[[{"header":{"parameterUnit":"m.s-1","parameterCategory":1,"la1":31.0,"la2":29.5877,"lo1":-88.7671,"lo2":-86.6584,"dy":0.0162,"dx":0.0185,"nx":115,"ny":88,"refTime":"2023-10-05T12:00:00:Z","depth":0,"parameterNumber":2,"parameterNumberName":"U-component_of_WINDS"},"data":[0.0,0.0,0.0,0.0,0.0,0.0,0.0,0.0,0.0,0.0,0.0,0.0,0.0,0.0,0.0,0.0,0.0,0.0,0.0,0.0,0.0,0.0,0.0,0.0,0.0,0.0,0.0,0.0,0.0,0.0,0.0,0.0,0.0,0.0,0.0,0.0,0.0,0.0,0.0,0.0,0.0,0.0,0.0,0.0,0.0,0.0,0.0,0.0,0.0,0.0,0.0,0.0,0.0,0.0,0.0,0.0,0.0,0.0,0.0,0.0,0.0,0.0,0.0,0.0,0.0,0.0,0.0,0.0,0.0,0.0,0.0,0.0,0.0,0.0,0.0,0.0,0.0,0.0,0.0,0.0,0.0,0.0,0.0,0.0,0.0,0.0,0.0,0.0,0.0,0.0,0.0,0.0,0.0,0.0,0.0,0.0,0.0,0.0,0.0,0.0,0.0,0.0,0.0,0.0,0.0,0.0,0.0,0.0,0.0,0.0,0.0,0.0,0.0,0.0,0.0,0.0,0.0,0.0,0.0,0.0,0.0,0.0,0.0,0.0,0.0,0.0,0.0,0.0,0.0,0.0,0.0,0.0,0.0,0.0,0.0,0.0,0.0,0.0,0.0,0.0,0.0,0.0,0.0,0.0,0.0,0.0,0.0,0.0,0.0,0.0,0.0,0.0,0.0,0.0,0.0,0.0,0.0,0.0,0.0,0.0,0.0,0.0,0.0,0.0,0.0,0.0,0.0,0.0,0.0,0.0,0.0,0.0,0.0,0.0,0.0,0.0,0.0,0.0,0.0,0.0,0.0,0.0,0.0,0.0,0.0,0.0,0.0,0.0,0.0,0.0,0.0,0.0,0.0,0.0,0.0,0.0,0.0,0.0,0.0,0.0,0.0,0.0,0.0,0.0,0.0,0.0,0.0,0.0,0.0,0.0,0.0,0.0,0.0,0.0,0.0,0.0,0.0,0.0,0.0,0.0,0.0,0.0,0.0,0.0,0.0,0.0,0.0,0.0,0.0,0.0,0.0,0.0,0.0,0.0,0.0,0.0,0.0,0.0,0.0,0.0,0.0,0.0,0.0,0.0,0.0,0.0,0.0,0.0,0.0,0.0,0.0,0.0,0.0,0.0,0.0,0.0,0.0,0.0,0.0,0.0,0.0,0.0,0.0,0.0,0.0,0.0,0.0,0.0,0.0,0.0,0.0,0.0,0.0,0.0,0.0,0.0,0.0,0.0,0.0,0.0,0.0,0.0,0.0,0.0,0.0,0.0,0.0,0.0,0.0,0.0,0.0,0.0,0.0,0.0,0.0,0.0,0.0,0.0,0.0,0.0,0.0,0.0,0.0,0.0,0.0,0.0,0.0,0.0,0.0,0.0,0.0,0.0,0.0,0.0,0.0,0.0,0.0,0.0,0.0,0.0,0.0,0.0,0.0,0.0,0.0,0.0,0.0,0.0,0.0,0.0,0.0,0.0,0.0,0.0,0.0,0.0,0.0,0.0,0.0,0.0,0.0,0.0,0.0,0.0,0.0,0.0,0.0,0.0,0.0,0.0,0.0,0.0,0.0,0.0,0.0,0.0,0.0,0.0,0.0,0.0,0.0,0.0,0.0,0.0,0.0,0.0,0.0,0.0,0.0,0.0,0.0,0.0,0.0,0.0,0.0,0.0,0.0,0.0,0.0,0.0,0.0,0.0,0.0,0.0,0.0,0.0,0.0,0.0,0.0,0.0,0.0,0.0,0.0,0.0,0.0,0.0,0.0,0.0,0.0,0.0,0.0,0.0,0.0,0.0,0.0,0.0,0.0,0.0,0.0,0.0,0.0,0.0,0.0,0.0,0.0,0.0,0.0,0.0,0.0,0.0,0.0,0.0,0.0,0.0,0.0,0.0,0.0,0.0,0.0,0.0,0.0,0.0,0.0,0.0,0.0,0.0,0.0,0.0,0.0,0.0,0.0,0.0,0.0,0.0,0.0,0.0,0.0,0.0,0.0,0.0,0.0,0.0,0.0,0.0,0.0,0.0,0.0,0.0,0.0,0.0,0.0,0.0,0.0,0.0,0.0,0.0,0.0,0.0,0.0,0.0,0.0,0.0,0.0,0.0,0.0,0.0,0.0,0.0,0.0,0.0,0.0,0.0,0.0,0.0,0.0,0.0,0.0,0.0,0.0,0.0,0.0,0.0,0.0,0.0,0.0,0.0,0.0,0.0,0.0,0.0,0.0,0.0,0.0,0.0,0.0,0.0,0.0,0.0,0.0,0.0,0.0,0.0,0.0,0.0,0.0,0.0,0.0,0.0,0.0,0.0,0.0,0.0,0.0,0.0,0.0,0.0,0.0,0.0,0.0,0.0,0.0,0.0,0.0,0.0,0.0,0.0,0.0,0.0,0.0,0.0,0.0,0.0,0.0,0.0,0.0,0.0,0.0,0.0,0.0,0.0,0.0,0.0,0.0,0.0,0.0,0.0,0.0,0.0,0.0,0.0,0.0,0.0,0.0,0.0,0.0,0.0,0.0,0.0,0.0,0.0,0.0,0.0,0.0,0.0,0.0,0.0,0.0,0.0,0.0,0.0,0.0,0.0,0.0,0.0,0.0,0.0,0.0,0.0,0.0,0.0,0.0,0.0,0.0,0.0,0.0,0.0,0.0,0.0,0.0,0.0,0.0,0.0,0.0,0.0,0.0,0.0,0.0,0.0,0.0,0.0,0.0,0.0,0.0,0.0,0.0,0.0,0.0,0.0,0.0,0.0,0.0,0.0,0.0,0.0,0.0,0.0,0.0,0.0,0.0,0.0,0.0,0.0,0.0,0.0,0.0,0.0,0.0,0.0,0.0,0.0,0.0,0.0,0.0,0.0,0.0,0.0,0.0,0.0,0.0,0.0,0.0,0.0,0.0,0.0,0.0,0.0,0.0,0.0,0.0,0.0,0.0,0.0,0.0,0.0,0.0,0.0,0.0,0.0,0.0,0.0,0.0,0.0,0.0,0.0,0.0,0.0,0.0,0.0,0.0,0.0,0.0,0.0,0.0,0.0,0.0,0.0,0.0,0.0,0.0,0.0,0.0,0.0,0.0,0.0,0.0,0.0,0.0,0.0,0.0,0.0,0.0,0.0,0.0,0.0,0.0,0.0,0.0,0.0,0.0,0.0,0.0,0.0,0.0,0.0,0.0,0.0,0.0,0.0,0.0,0.0,0.0,0.0,0.0,0.0,0.0,0.0,0.0,0.0,0.0,0.0,0.0,0.0,0.0,0.0,0.0,0.0,0.0,0.0,0.0,0.0,0.0,0.0,0.0,0.0,0.0,0.0,0.0,0.0,0.0,0.0,0.0,0.0,0.0,0.0,0.0,0.0,0.0,0.0,0.0,0.0,0.0,0.0,0.0,0.0,0.0,0.0,0.0,0.0,0.0,0.0,0.0,0.0,0.0,0.0,0.0,0.0,0.0,0.0,0.0,0.0,0.0,0.0,0.0,0.0,0.0,0.0,0.0,0.0,0.0,0.0,0.0,0.0,0.0,0.0,0.0,0.0,0.0,0.0,0.0,0.0,0.0,0.0,0.0,0.0,0.0,0.0,0.0,0.0,0.0,0.0,0.0,0.0,0.0,0.0,0.0,0.0,0.0,0.0,0.0,0.0,0.0,0.0,0.0,0.0,0.0,0.0,0.0,0.0,0.0,0.0,0.0,0.0,0.0,0.0,0.0,0.0,0.0,0.0,0.0,0.0,0.0,0.0,0.0,0.0,0.0,0.0,0.0,0.0,0.0,0.0,0.0,0.0,0.0,0.0,0.0,0.0,0.0,0.0,0.0,0.0,0.0,0.0,0.0,0.0,0.0,0.0,0.0,0.0,0.0,0.0,0.0,0.0,0.0,0.0,0.0,0.0,0.0,0.0,0.0,0.0,0.0,0.0,0.0,0.0,0.0,0.0,0.0,0.0,0.0,0.0,0.0,0.0,0.0,0.0,0.0,0.0,0.0,0.0,0.0,0.0,0.0,0.0,0.0,0.0,0.0,0.0,0.0,0.0,0.0,0.0,0.0,0.0,0.0,0.0,0.0,0.0,0.0,0.0,0.0,0.0,0.0,0.0,0.0,0.0,0.0,0.0,0.0,0.0,0.0,0.0,0.0,0.0,0.0,0.0,0.0,0.0,0.0,0.0,0.0,0.0,0.0,0.0,0.0,0.0,0.0,0.0,0.0,0.0,0.0,0.0,0.0,0.0,0.0,0.0,0.0,0.0,0.0,0.0,0.0,0.0,0.0,0.0,0.0,0.0,0.0,0.0,2.3068,0.0,0.0,0.0,0.0,0.0,0.0,0.0,0.0,0.0,0.0,0.0,0.0,0.0,0.0,0.0,0.0,0.0,0.0,0.0,0.0,0.0,0.0,0.0,0.0,0.0,0.0,0.0,0.0,0.0,0.0,0.0,0.0,0.0,0.0,0.0,0.0,0.0,0.0,0.0,0.0,0.0,0.0,0.0,0.0,0.0,0.0,0.0,0.0,0.0,0.0,0.0,0.0,0.0,0.0,0.0,0.0,0.0,0.0,0.0,0.0,0.0,0.0,0.0,0.0,0.0,0.0,0.0,0.0,0.0,0.0,0.0,0.0,0.0,0.0,0.0,0.0,0.0,0.0,0.0,0.0,0.0,0.0,0.0,0.0,0.0,0.0,0.0,0.0,0.0,0.0,0.0,0.0,0.0,0.0,0.0,0.0,0.0,0.0,0.0,0.0,0.0,0.0,0.0,0.0,0.0,0.0,0.0,0.0,0.0,0.0,2.4819,2.4411,2.4801,2.4653,2.3802,0.0,0.0,0.0,0.0,0.0,0.0,0.0,0.0,0.0,0.0,0.0,0.0,0.0,0.0,0.0,0.0,0.0,0.0,0.0,0.0,0.0,0.0,0.0,0.0,0.0,0.0,0.0,0.0,0.0,0.0,0.0,0.0,0.0,0.0,0.0,0.0,0.0,0.0,0.0,0.0,0.0,0.0,0.0,0.0,0.0,0.0,0.0,0.0,0.0,0.0,0.0,0.0,0.0,0.0,0.0,0.0,0.0,0.0,0.0,0.0,0.0,0.0,0.0,0.0,0.0,0.0,0.0,0.0,0.0,0.0,0.0,0.0,0.0,0.0,0.0,0.0,0.0,0.0,0.0,0.0,0.0,0.0,0.0,0.0,0.0,0.0,0.0,0.0,0.0,0.0,0.0,0.0,0.0,0.0,0.0,0.0,0.0,0.0,0.0,0.0,0.0,0.0,0.0,0.0,0.0,0.0,0.0,0.0,0.0,0.0,0.0,0.0,2.5262,2.5022,2.4008,0.0,0.0,0.0,0.0,0.0,0.0,0.0,0.0,0.0,0.0,0.0,0.0,0.0,0.0,0.0,0.0,0.0,0.0,0.0,0.0,0.0,0.0,0.0,0.0,0.0,0.0,0.0,0.0,0.0,0.0,0.0,0.0,0.0,0.0,0.0,0.0,0.0,0.0,0.0,0.0,0.0,0.0,0.0,0.0,0.0,0.0,0.0,0.0,0.0,0.0,0.0,0.0,0.0,0.0,0.0,0.0,0.0,0.0,0.0,0.0,0.0,0.0,0.0,0.0,0.0,0.0,0.0,0.0,0.0,0.0,0.0,0.0,0.0,0.0,0.0,0.0,0.0,0.0,0.0,0.0,0.0,0.0,0.0,0.0,0.0,0.0,0.0,0.0,0.0,0.0,0.0,0.0,0.0,0.0,0.0,0.0,0.0,0.0,0.0,0.0,0.0,0.0,0.0,0.0,0.0,0.0,0.0,0.0,0.0,0.0,2.5795,2.6462,2.5832,0.0,2.3125,0.0,0.0,0.0,0.0,0.0,0.0,0.0,0.0,0.0,0.0,0.0,0.0,0.0,0.0,0.0,0.0,0.0,0.0,0.0,0.0,0.0,0.0,0.0,0.0,0.0,0.0,0.0,0.0,0.0,0.0,0.0,0.0,0.0,0.0,0.0,0.0,0.0,0.0,0.0,0.0,0.0,0.0,0.0,0.0,0.0,0.0,0.0,0.0,0.0,0.0,0.0,0.0,0.0,0.0,0.0,0.0,0.0,0.0,0.0,0.0,0.0,0.0,0.0,0.0,0.0,0.0,0.0,0.0,0.0,0.0,0.0,0.0,0.0,0.0,0.0,0.0,0.0,0.0,0.0,0.0,0.0,0.0,0.0,0.0,0.0,0.0,0.0,0.0,0.0,0.0,0.0,0.0,0.0,0.0,0.0,0.0,0.0,0.0,0.0,0.0,0.0,0.0,0.0,0.0,0.0,0.0,0.0,0.0,0.0,0.0,2.6224,2.6512,2.5722,2.4931,0.0,0.0,0.0,0.0,0.0,0.0,0.0,0.0,0.0,0.0,0.0,0.0,0.0,0.0,0.0,0.0,0.0,0.0,0.0,0.0,0.0,0.0,0.0,0.0,0.0,0.0,0.0,0.0,0.0,0.0,0.0,0.0,0.0,0.0,0.0,0.0,0.0,0.0,0.0,0.0,0.0,0.0,0.0,0.0,0.0,0.0,0.0,0.0,0.0,0.0,0.0,0.0,0.0,0.0,0.0,0.0,0.0,0.0,0.0,0.0,0.0,0.0,0.0,0.0,0.0,0.0,0.0,0.0,0.0,0.0,0.0,0.0,0.0,0.0,0.0,0.0,0.0,0.0,0.0,0.0,0.0,0.0,0.0,0.0,0.0,0.0,0.0,0.0,0.0,0.0,0.0,0.0,0.0,0.0,0.0,0.0,0.0,0.0,0.0,0.0,0.0,0.0,0.0,0.0,0.0,0.0,0.0,0.0,0.0,0.0,2.6155,2.6512,2.6604,2.5814,2.5244,2.4986,0.0,0.0,0.0,0.0,0.0,0.0,0.0,0.0,0.0,0.0,0.0,0.0,0.0,0.0,0.0,0.0,0.0,0.0,0.0,0.0,0.0,0.0,0.0,0.0,0.0,0.0,0.0,0.0,0.0,0.0,0.0,0.0,0.0,0.0,0.0,0.0,0.0,0.0,0.0,0.0,0.0,0.0,0.0,0.0,0.0,0.0,0.0,0.0,0.0,0.0,0.0,0.0,0.0,0.0,0.0,0.0,0.0,0.0,0.0,0.0,0.0,0.0,0.0,0.0,0.0,0.0,0.0,0.0,0.0,0.0,0.0,0.0,0.0,0.0,0.0,0.0,0.0,0.0,0.0,0.0,0.0,0.0,0.0,0.0,0.0,0.0,0.0,0.0,0.0,0.0,0.0,0.0,0.0,0.0,0.0,0.0,0.0,0.0,0.0,0.0,0.0,0.0,0.0,0.0,0.0,0.0,0.0,0.0,2.6257,2.6336,2.6626,2.7222,2.6423,2.5578,0.0,0.0,0.0,0.0,0.0,0.0,0.0,0.0,0.0,0.0,0.0,0.0,0.0,0.0,0.0,0.0,0.0,0.0,0.0,0.0,0.0,0.0,0.0,0.0,0.0,0.0,0.0,0.0,0.0,0.0,0.0,0.0,0.0,0.0,0.0,0.0,0.0,0.0,0.0,0.0,0.0,0.0,0.0,0.0,0.0,0.0,0.0,0.0,0.0,0.0,0.0,0.0,0.0,0.0,0.0,0.0,0.0,0.0,0.0,0.0,0.0,0.0,0.0,0.0,0.0,0.0,0.0,0.0,0.0,0.0,0.0,0.0,0.0,0.0,0.0,0.0,0.0,0.0,0.0,0.0,0.0,0.0,0.0,0.0,0.0,0.0,0.0,0.0,0.0,0.0,0.0,0.0,0.0,0.0,0.0,0.0,0.0,0.0,0.0,0.0,0.0,0.0,0.0,0.0,0.0,0.0,0.0,0.0,0.0,2.6033,2.6954,2.7557,2.7754,2.6427,2.5488,0.0,0.0,0.0,0.0,0.0,0.0,0.0,0.0,0.0,0.0,0.0,0.0,0.0,0.0,0.0,0.0,0.0,0.0,0.0,0.0,0.0,0.0,0.0,0.0,0.0,0.0,0.0,0.0,0.0,0.0,0.0,0.0,0.0,0.0,0.0,0.0,0.0,0.0,0.0,0.0,0.0,0.0,0.0,0.0,0.0,0.0,0.0,0.0,0.0,0.0,0.0,0.0,0.0,0.0,0.0,0.0,0.0,0.0,0.0,0.0,0.0,0.0,0.0,0.0,0.0,0.0,0.0,0.0,0.0,0.0,0.0,0.0,0.0,0.0,0.0,0.0,0.0,0.0,0.0,0.0,0.0,0.0,0.0,0.0,0.0,0.0,0.0,0.0,0.0,0.0,0.0,0.0,0.0,0.0,0.0,0.0,0.0,0.0,0.0,0.0,0.0,0.0,0.0,0.0,0.0,0.0,0.0,0.0,0.0,2.5612,0.0,2.7836,2.7742,2.6163,2.5257,0.0,0.0,0.0,0.0,0.0,0.0,0.0,0.0,0.0,0.0,0.0,0.0,0.0,0.0,0.0,0.0,0.0,0.0,0.0,0.0,0.0,0.0,0.0,0.0,0.0,0.0,0.0,0.0,0.0,0.0,0.0,0.0,0.0,0.0,0.0,0.0,0.0,0.0,0.0,0.0,0.0,0.0,0.0,0.0,0.0,0.0,0.0,0.0,0.0,0.0,0.0,0.0,0.0,0.0,0.0,0.0,0.0,0.0,0.0,0.0,0.0,0.0,0.0,0.0,0.0,0.0,0.0,0.0,0.0,0.0,0.0,0.0,0.0,0.0,0.0,0.0,0.0,0.0,0.0,0.0,0.0,0.0,0.0,0.0,0.0,0.0,0.0,0.0,0.0,0.0,0.0,0.0,0.0,0.0,0.0,0.0,0.0,0.0,0.0,0.0,0.0,0.0,0.0,0.0,0.0,0.0,0.0,0.0,2.3841,2.509,2.6506,2.7227,2.7051,2.5579,2.4761,0.0,0.0,0.0,0.0,0.0,0.0,0.0,0.0,0.0,0.0,0.0,0.0,0.0,0.0,0.0,0.0,0.0,0.0,0.0,0.0,0.0,0.0,0.0,0.0,0.0,0.0,0.0,0.0,0.0,0.0,0.0,0.0,0.0,0.0,0.0,0.0,0.0,0.0,0.0,0.0,0.0,0.0,0.0,0.0,0.0,0.0,0.0,0.0,0.0,0.0,0.0,0.0,0.0,0.0,0.0,0.0,0.0,0.0,0.0,0.0,0.0,0.0,0.0,0.0,0.0,0.0,0.0,0.0,0.0,0.0,0.0,0.0,0.0,0.0,0.0,0.0,0.0,0.0,0.0,0.0,0.0,0.0,0.0,0.0,0.0,0.0,0.0,0.0,0.0,0.0,0.0,0.0,0.0,0.0,0.0,0.0,0.0,0.0,0.0,0.0,0.0,0.0,0.0,0.0,0.0,0.0,0.0,0.0,0.0,2.5007,2.5983,2.642,2.6232,2.4879,2.4064,0.0,0.0,0.0,0.0,0.0,0.0,0.0,0.0,0.0,0.0,0.0,0.0,0.0,0.0,0.0,0.0,0.0,0.0,0.0,0.0,0.0,0.0,0.0,0.0,0.0,0.0,0.0,0.0,0.0,0.0,0.0,0.0,0.0,0.0,0.0,0.0,0.0,0.0,0.0,0.0,0.0,0.0,0.0,0.0,0.0,0.0,0.0,0.0,0.0,0.0,0.0,0.0,0.0,0.0,0.0,0.0,0.0,0.0,0.0,0.0,0.0,0.0,0.0,0.0,0.0,0.0,0.0,0.0,0.0,0.0,0.0,0.0,0.0,0.0,0.0,0.0,0.0,0.0,0.0,0.0,0.0,0.0,0.0,0.0,0.0,0.0,0.0,0.0,0.0,0.0,0.0,0.0,0.0,0.0,0.0,0.0,0.0,0.0,0.0,0.0,0.0,0.0,0.0,0.0,0.0,0.0,0.0,0.0,0.0,2.4437,2.5317,2.5782,2.5673,2.4558,2.3722,2.3294,0.0,0.0,0.0,0.0,0.0,0.0,0.0,0.0,0.0,0.0,0.0,0.0,0.0,0.0,0.0,0.0,0.0,0.0,0.0,0.0,0.0,0.0,0.0,0.0,0.0,0.0,0.0,0.0,0.0,0.0,0.0,0.0,0.0,0.0,0.0,0.0,0.0,0.0,0.0,0.0,0.0,0.0,0.0,0.0,0.0,0.0,0.0,0.0,0.0,0.0,0.0,0.0,0.0,0.0,0.0,0.0,0.0,0.0,0.0,0.0,0.0,0.0,0.0,0.0,0.0,0.0,0.0,0.0,0.0,0.0,0.0,0.0,0.0,0.0,0.0,0.0,0.0,0.0,0.0,0.0,0.0,0.0,0.0,0.0,0.0,0.0,0.0,0.0,0.0,0.0,0.0,0.0,0.0,0.0,0.0,0.0,0.0,0.0,0.0,0.0,0.0,0.0,0.0,0.0,0.0,0.0,0.0,0.0,2.3483,2.4582,2.5142,2.5152,2.4434,2.3619,0.0,0.0,0.0,0.0,0.0,0.0,0.0,0.0,0.0,0.0,0.0,0.0,0.0,0.0,0.0,0.0,0.0,0.0,0.0,0.0,0.0,0.0,0.0,0.0,0.0,0.0,0.0,0.0,0.0,0.0,0.0,0.0,0.0,0.0,0.0,0.0,0.0,0.0,0.0,0.0,0.0,0.0,0.0,0.0,0.0,0.0,0.0,0.0,0.0,0.0,0.0,0.0,0.0,0.0,0.0,0.0,0.0,0.0,0.0,0.0,0.0,0.0,0.0,0.0,0.0,0.0,0.0,0.0,0.0,0.0,0.0,0.0,0.0,0.0,0.0,0.0,0.0,0.0,0.0,0.0,0.0,0.0,0.0,0.0,0.0,0.0,0.0,0.0,0.0,0.0,0.0,0.0,0.0,0.0,0.0,0.0,0.0,0.0,0.0,0.0,0.0,0.0,0.0,0.0,0.0,0.0,0.0,0.0,0.0,2.3245,2.3379,2.3529,2.3667,2.3136,2.2424,0.0,0.0,0.0,0.0,0.0,0.0,0.0,0.0,0.0,0.0,0.0,0.0,0.0,0.0,0.0,0.0,0.0,0.0,0.0,0.0,0.0,0.0,0.0,0.0,0.0,0.0,0.0,0.0,0.0,0.0,0.0,0.0,0.0,0.0,0.0,0.0,0.0,0.0,0.0,0.0,0.0,0.0,0.0,0.0,0.0,0.0,0.0,0.0,0.0,0.0,0.0,0.0,0.0,0.0,0.0,0.0,0.0,0.0,0.0,0.0,0.0,0.0,0.0,0.0,0.0,0.0,0.0,0.0,0.0,0.0,0.0,0.0,0.0,0.0,0.0,0.0,0.0,0.0,0.0,0.0,0.0,0.0,0.0,0.0,0.0,0.0,0.0,0.0,0.0,0.0,0.0,0.0,0.0,0.0,0.0,0.0,0.0,0.0,0.0,0.0,0.0,0.0,0.0,0.0,0.0,0.0,0.0,0.0,2.1805,2.2498,2.2476,2.2447,2.2372,2.2444,2.2074,0.0,0.0,0.0,0.0,0.0,0.0,0.0,0.0,0.0,0.0,0.0,0.0,0.0,0.0,0.0,0.0,0.0,0.0,0.0,0.0,0.0,0.0,0.0,0.0,0.0,0.0,0.0,0.0,0.0,0.0,0.0,0.0,0.0,0.0,0.0,0.0,0.0,0.0,0.0,0.0,0.0,0.0,0.0,0.0,0.0,0.0,0.0,0.0,0.0,0.0,0.0,0.0,0.0,0.0,0.0,0.0,0.0,0.0,0.0,0.0,0.0,0.0,0.0,0.0,0.0,0.0,0.0,0.0,0.0,0.0,0.0,0.0,0.0,0.0,0.0,0.0,0.0,0.0,0.0,0.0,0.0,0.0,0.0,0.0,0.0,0.0,0.0,0.0,0.0,0.0,0.0,0.0,0.0,0.0,0.0,0.0,0.0,0.0,0.0,0.0,0.0,0.0,0.0,0.0,0.0,0.0,0.0,0.0,2.1021,2.1526,2.1705,2.1663,2.1296,2.2001,2.197,0.0,0.0,0.0,0.0,0.0,0.0,0.0,0.0,0.0,0.0,0.0,0.0,0.0,0.0,0.0,0.0,0.0,0.0,0.0,0.0,0.0,0.0,0.0,0.0,0.0,0.0,0.0,0.0,0.0,0.0,0.0,0.0,0.0,0.0,0.0,0.0,0.0,0.0,0.0,0.0,0.0,0.0,0.0,0.0,0.0,0.0,0.0,0.0,0.0,0.0,0.0,0.0,0.0,0.0,0.0,0.0,0.0,0.0,0.0,0.0,0.0,0.0,0.0,0.0,0.0,0.0,0.0,0.0,0.0,0.0,0.0,0.0,0.0,0.0,0.0,0.0,0.0,0.0,0.0,0.0,0.0,0.0,0.0,0.0,0.0,0.0,0.0,0.0,0.0,0.0,0.0,0.0,0.0,0.0,0.0,0.0,0.0,0.0,0.0,0.0,0.0,0.0,0.0,0.0,0.0,0.0,0.0,0.0,2.0451,2.0796,2.0653,2.0573,2.0552,2.107,2.0939,0.0,0.0,0.0,0.0,0.0,0.0,0.0,0.0,0.0,0.0,0.0,0.0,0.0,0.0,0.0,0.0,0.0,0.0,0.0,0.0,0.0,0.0,0.0,0.0,0.0,0.0,0.0,0.0,0.0,0.0,0.0,0.0,0.0,0.0,0.0,0.0,0.0,0.0,0.0,0.0,0.0,0.0,0.0,0.0,0.0,0.0,0.0,0.0,2.509,0.0,0.0,0.0,0.0,0.0,0.0,0.0,0.0,0.0,0.0,0.0,0.0,0.0,0.0,0.0,0.0,0.0,0.0,0.0,0.0,0.0,0.0,0.0,0.0,0.0,0.0,0.0,0.0,0.0,0.0,0.0,0.0,0.0,0.0,0.0,0.0,0.0,0.0,0.0,0.0,0.0,0.0,0.0,0.0,0.0,0.0,0.0,0.0,0.0,0.0,0.0,0.0,0.0,0.0,0.0,0.0,0.0,0.0,0.0,1.9521,2.0071,1.9875,1.9793,1.9798,2.0092,2.0075,0.0,0.0,0.0,0.0,0.0,0.0,0.0,0.0,0.0,0.0,0.0,0.0,0.0,0.0,0.0,0.0,0.0,0.0,0.0,0.0,0.0,0.0,0.0,0.0,0.0,0.0,0.0,0.0,0.0,0.0,0.0,0.0,0.0,0.0,0.0,0.0,0.0,0.0,0.0,0.0,0.0,0.0,0.0,0.0,0.0,0.0,0.0,0.0,0.0,0.0,0.0,0.0,0.0,0.0,0.0,0.0,0.0,0.0,0.0,0.0,0.0,0.0,0.0,0.0,0.0,0.0,0.0,0.0,0.0,0.0,0.0,0.0,0.0,0.0,0.0,0.0,0.0,0.0,0.0,0.0,0.0,0.0,0.0,0.0,0.0,0.0,0.0,0.0,0.0,0.0,0.0,0.0,0.0,0.0,0.0,0.0,0.0,0.0,0.0,0.0,0.0,0.0,0.0,0.0,0.0,0.0,0.0,1.8243,1.8605,1.9243,1.9042,1.8958,1.8912,1.9,1.9142,1.9287,0.0,0.0,0.0,0.0,0.0,0.0,0.0,0.0,0.0,0.0,0.0,0.0,0.0,0.0,0.0,0.0,0.0,0.0,0.0,0.0,0.0,0.0,0.0,0.0,0.0,0.0,0.0,0.0,0.0,0.0,0.0,0.0,0.0,0.0,0.0,0.0,0.0,0.0,2.2102,2.3227,0.0,0.0,0.0,0.0,0.0,0.0,0.0,0.0,2.5064,0.0,0.0,0.0,0.0,0.0,0.0,0.0,0.0,0.0,0.0,0.0,0.0,0.0,0.0,0.0,0.0,0.0,0.0,0.0,0.0,0.0,0.0,0.0,0.0,0.0,0.0,0.0,0.0,0.0,0.0,0.0,0.0,0.0,0.0,0.0,0.0,0.0,0.0,0.0,0.0,0.0,0.0,0.0,0.0,0.0,0.0,0.0,0.0,0.0,0.0,0.0,0.0,0.0,0.0,0.0,0.0,1.7502,1.8183,1.8311,1.7812,1.7731,1.7637,1.7265,1.7723,1.793,1.7719,0.0,0.0,0.0,0.0,0.0,0.0,0.0,0.0,0.0,0.0,0.0,0.0,0.0,0.0,0.0,0.0,0.0,0.0,0.0,0.0,0.0,0.0,0.0,0.0,0.0,0.0,0.0,0.0,0.0,0.0,0.0,0.0,0.0,0.0,0.0,0.0,0.0,0.0,0.0,2.4092,2.4854,0.0,0.0,0.0,0.0,0.0,0.0,0.0,0.0,2.5966,0.0,0.0,0.0,0.0,0.0,0.0,0.0,0.0,0.0,0.0,0.0,0.0,0.0,0.0,0.0,0.0,0.0,0.0,0.0,0.0,0.0,0.0,0.0,0.0,0.0,0.0,0.0,0.0,0.0,0.0,0.0,0.0,0.0,0.0,0.0,0.0,0.0,0.0,0.0,0.0,0.0,0.0,0.0,0.0,0.0,0.0,0.0,0.0,0.0,0.0,0.0,0.0,0.0,0.0,0.0,1.6997,1.7473,1.7503,1.7119,1.6928,1.6826,1.6665,1.7288,1.7451,0.0,0.0,0.0,0.0,0.0,0.0,0.0,0.0,0.0,0.0,0.0,0.0,0.0,0.0,0.0,0.0,0.0,0.0,0.0,0.0,0.0,0.0,0.0,0.0,0.0,0.0,0.0,0.0,0.0,0.0,0.0,0.0,0.0,0.0,0.0,0.0,0.0,0.0,0.0,0.0,2.4071,2.4672,2.4862,0.0,0.0,0.0,0.0,0.0,0.0,2.5585,2.5678,0.0,0.0,0.0,0.0,0.0,0.0,0.0,0.0,0.0,0.0,0.0,0.0,0.0,0.0,0.0,0.0,0.0,0.0,0.0,0.0,0.0,0.0,0.0,0.0,0.0,0.0,0.0,0.0,0.0,0.0,0.0,0.0,0.0,0.0,0.0,0.0,0.0,0.0,0.0,0.0,0.0,0.0,0.0,0.0,0.0,0.0,0.0,0.0,0.0,0.0,0.0,0.0,0.0,0.0,0.0,1.6494,1.6733,1.6776,1.6547,1.6254,1.6162,1.6363,1.6819,1.694,0.0,0.0,0.0,0.0,0.0,0.0,0.0,0.0,0.0,0.0,0.0,0.0,0.0,0.0,0.0,0.0,0.0,0.0,0.0,0.0,0.0,0.0,0.0,0.0,0.0,0.0,0.0,0.0,0.0,0.0,0.0,0.0,0.0,0.0,0.0,0.0,0.0,0.0,0.0,0.0,0.0,2.4634,2.4985,2.5075,0.0,0.0,0.0,0.0,2.5084,2.5345,0.0,0.0,0.0,0.0,0.0,0.0,0.0,0.0,0.0,0.0,0.0,0.0,0.0,0.0,0.0,0.0,0.0,0.0,0.0,0.0,0.0,0.0,0.0,0.0,0.0,0.0,0.0,0.0,0.0,0.0,0.0,0.0,0.0,0.0,0.0,0.0,0.0,0.0,0.0,0.0,0.0,0.0,0.0,0.0,0.0,0.0,0.0,0.0,0.0,0.0,0.0,0.0,0.0,0.0,0.0,0.0,1.5974,1.6394,1.6353,1.5889,1.5535,1.5452,1.5799,1.5843,1.6108,0.0,0.0,0.0,0.0,0.0,0.0,0.0,0.0,0.0,0.0,0.0,0.0,0.0,0.0,0.0,0.0,0.0,0.0,0.0,0.0,0.0,0.0,0.0,0.0,0.0,0.0,0.0,0.0,0.0,0.0,0.0,0.0,0.0,0.0,0.0,0.0,0.0,0.0,0.0,0.0,0.0,2.5517,2.5386,2.5807,2.6058,0.0,0.0,2.5898,2.5791,2.603,0.0,0.0,0.0,0.0,0.0,0.0,0.0,0.0,0.0,0.0,0.0,0.0,0.0,0.0,0.0,0.0,0.0,0.0,0.0,0.0,0.0,0.0,0.0,0.0,0.0,0.0,0.0,0.0,0.0,0.0,0.0,0.0,0.0,0.0,0.0,0.0,0.0,0.0,0.0,0.0,0.0,0.0,0.0,0.0,0.0,0.0,0.0,0.0,0.0,0.0,0.0,0.0,0.0,0.0,0.0,1.651,1.5836,1.6025,1.6058,1.5921,1.5202,1.5113,1.5667,1.5661,1.5942,0.0,0.0,0.0,0.0,0.0,0.0,0.0,0.0,0.0,0.0,0.0,0.0,0.0,0.0,0.0,0.0,0.0,0.0,0.0,0.0,0.0,0.0,0.0,0.0,0.0,0.0,0.0,0.0,0.0,0.0,0.0,0.0,0.0,0.0,0.0,0.0,0.0,0.0,0.0,0.0,0.0,0.0,2.5418,2.5699,0.0,0.0,0.0,2.5564,2.5508,0.0,0.0,0.0,0.0,0.0,0.0,0.0,0.0,0.0,0.0,0.0,0.0,0.0,0.0,0.0,0.0,0.0,0.0,0.0,0.0,0.0,0.0,0.0,0.0,0.0,0.0,0.0,0.0,0.0,0.0,0.0,0.0,0.0,0.0,0.0,0.0,0.0,0.0,0.0,0.0,0.0,0.0,0.0,0.0,0.0,0.0,0.0,0.0,0.0,0.0,0.0,0.0,0.0,0.0,0.0,0.0,0.0,1.5753,1.5789,1.5845,1.5869,1.5081,1.4985,1.5592,1.5592,0.0,0.0,0.0,0.0,0.0,0.0,0.0,0.0,0.0,0.0,0.0,0.0,0.0,0.0,0.0,0.0,0.0,0.0,0.0,0.0,0.0,0.0,0.0,0.0,0.0,0.0,0.0,1.9394,0.0,0.0,0.0,0.0,0.0,0.0,0.0,0.0,0.0,0.0,0.0,0.0,0.0,0.0,2.5187,2.5563,2.5589,2.5658,0.0,0.0,2.5279,2.5222,2.5256,2.5314,0.0,0.0,0.0,0.0,0.0,0.0,0.0,0.0,0.0,0.0,0.0,0.0,0.0,0.0,0.0,0.0,0.0,0.0,0.0,0.0,0.0,0.0,0.0,0.0,0.0,0.0,0.0,0.0,0.0,0.0,0.0,0.0,0.0,0.0,0.0,0.0,0.0,0.0,0.0,0.0,0.0,0.0,0.0,0.0,0.0,0.0,0.0,0.0,0.0,0.0,0.0,0.0,0.0,0.0,0.0,1.5624,1.572,1.5638,1.5317,1.5015,1.5095,1.5522,1.5355,1.5771,0.0,0.0,0.0,0.0,0.0,0.0,0.0,0.0,0.0,0.0,0.0,0.0,0.0,0.0,0.0,0.0,0.0,0.0,0.0,0.0,0.0,0.0,0.0,0.0,0.0,0.0,0.0,0.0,0.0,0.0,0.0,0.0,0.0,0.0,0.0,0.0,0.0,0.0,0.0,0.0,0.0,2.5508,2.5796,2.5904,2.6036,0.0,0.0,2.5539,2.5421,2.5083,2.4878,2.5005,0.0,0.0,0.0,0.0,0.0,0.0,0.0,0.0,0.0,0.0,0.0,0.0,0.0,0.0,0.0,0.0,0.0,0.0,0.0,0.0,0.0,0.0,0.0,0.0,0.0,0.0,0.0,0.0,0.0,0.0,0.0,0.0,0.0,0.0,0.0,0.0,0.0,0.0,0.0,0.0,0.0,0.0,0.0,0.0,0.0,0.0,0.0,0.0,0.0,0.0,0.0,0.0,0.0,1.6256,1.5615,1.5866,1.5771,1.5338,1.5141,1.5371,1.591,1.5769,1.6067,0.0,0.0,0.0,0.0,0.0,0.0,0.0,0.0,0.0,0.0,0.0,0.0,0.0,0.0,0.0,0.0,0.0,0.0,0.0,0.0,0.0,0.0,0.0,0.0,0.0,0.0,0.0,0.0,2.1632,2.2199,2.2746,0.0,0.0,0.0,0.0,0.0,0.0,0.0,0.0,0.0,0.0,2.5383,2.5316,2.5661,0.0,0.0,2.5985,2.572,2.5302,2.5124,2.4975,2.4761,2.4865,0.0,0.0,0.0,0.0,0.0,0.0,0.0,0.0,0.0,0.0,0.0,0.0,0.0,0.0,0.0,0.0,0.0,0.0,0.0,0.0,0.0,0.0,0.0,0.0,0.0,0.0,0.0,0.0,0.0,0.0,0.0,0.0,0.0,0.0,0.0,0.0,0.0,0.0,0.0,0.0,0.0,0.0,0.0,0.0,0.0,0.0,0.0,0.0,0.0,0.0,0.0,0.0,1.6256,1.5606,1.5934,1.5842,1.5417,1.5346,1.5584,1.6122,1.6133,1.629,0.0,0.0,0.0,0.0,0.0,0.0,0.0,0.0,0.0,0.0,0.0,0.0,0.0,0.0,0.0,0.0,0.0,0.0,0.0,0.0,0.0,0.0,0.0,0.0,0.0,0.0,0.0,0.0,2.2002,2.2527,2.2904,0.0,0.0,0.0,0.0,0.0,0.0,0.0,0.0,0.0,0.0,2.514,2.5221,2.5673,2.6048,2.6371,2.624,2.5992,2.5598,2.5389,2.5174,2.4873,0.0,0.0,0.0,0.0,0.0,0.0,0.0,0.0,0.0,0.0,0.0,0.0,0.0,0.0,0.0,0.0,0.0,0.0,0.0,0.0,0.0,0.0,0.0,0.0,0.0,0.0,0.0,0.0,0.0,0.0,1.2195,0.0,0.0,0.0,0.0,0.0,0.0,0.0,0.0,0.0,0.0,0.0,0.0,0.0,0.0,0.0,0.0,0.0,0.0,0.0,0.0,0.0,0.0,1.6265,1.5615,1.5943,1.5921,1.5497,1.5505,1.5647,1.6053,1.6251,1.6515,1.6898,0.0,0.0,0.0,0.0,0.0,0.0,0.0,0.0,0.0,0.0,0.0,0.0,0.0,0.0,0.0,0.0,0.0,0.0,0.0,0.0,0.0,0.0,0.0,0.0,0.0,0.0,2.1598,2.2214,2.2586,0.0,0.0,0.0,0.0,0.0,0.0,0.0,0.0,0.0,0.0,2.4645,2.4809,2.5739,2.5864,2.6253,2.7126,2.6751,2.6401,2.6362,2.5896,2.5521,0.0,0.0,0.0,0.0,0.0,0.0,0.0,0.0,0.0,0.0,0.0,0.0,0.0,0.0,0.0,0.0,0.0,0.0,0.0,0.0,0.0,0.0,0.0,0.0,0.0,0.0,0.0,1.1349,1.1511,0.0,0.0,0.0,0.0,0.0,0.0,0.0,0.0,0.0,0.0,0.0,1.2609,1.2512,0.0,0.0,0.0,0.0,0.0,0.0,0.0,0.0,0.0,0.0,0.0,0.0,1.6453,1.6215,1.6213,1.6132,1.5921,1.5788,1.5859,1.6202,1.6495,1.6988,1.7533,0.0,0.0,0.0,0.0,0.0,0.0,0.0,0.0,0.0,0.0,0.0,0.0,0.0,0.0,0.0,0.0,0.0,0.0,0.0,0.0,0.0,0.0,0.0,0.0,0.0,2.1605,0.0,0.0,0.0,0.0,0.0,0.0,0.0,0.0,0.0,0.0,0.0,2.4478,2.441,2.4734,2.5065,2.5306,2.5857,2.6362,0.0,0.0,0.0,0.0,0.0,0.0,0.0,0.0,0.0,0.0,0.0,0.0,0.0,0.0,2.5635,2.6185,2.6349,2.6524,2.6801,0.0,0.0,0.0,0.0,0.0,0.0,0.0,0.0,0.0,0.0,0.0,0.0,0.0,0.0,0.0,0.0,1.2038,0.0,0.0,0.0,0.0,0.0,0.0,0.0,0.0,1.2684,1.257,1.2391,1.2291,1.2509,0.0,1.3238,1.3664,0.0,0.0,0.0,0.0,0.0,0.0,0.0,0.0,1.6663,1.6485,1.6345,1.6202,1.6132,1.6,1.6,1.6263,1.6762,1.7368,1.803,1.8138,1.8237,0.0,0.0,0.0,0.0,0.0,0.0,0.0,0.0,0.0,0.0,0.0,0.0,0.0,0.0,0.0,0.0,0.0,0.0,0.0,0.0,0.0,0.0,0.0,2.1777,0.0,0.0,0.0,0.0,0.0,0.0,0.0,0.0,0.0,2.4186,2.4452,2.4589,2.4494,2.483,2.5148,2.5289,0.0,0.0,0.0,0.0,0.0,0.0,0.0,2.572,2.529,2.5029,2.495,2.5149,2.5228,2.536,2.5438,0.0,0.0,2.6051,2.6233,2.6404,2.6782,2.6889,2.7069,2.7276,2.7575,2.7774,0.0,0.0,0.0,0.0,0.0,0.0,0.0,0.0,1.2091,1.2461,0.0,1.2876,0.0,0.0,0.0,0.0,0.0,1.3073,0.0,0.0,1.2351,1.2303,1.2346,1.2082,1.2296,1.2994,1.3059,1.3439,1.414,1.4681,0.0,0.0,0.0,0.0,0.0,0.0,1.6817,1.6522,1.6354,1.6272,1.6132,1.6132,1.6202,1.6333,1.6996,1.7655,1.8328,1.7991,1.7999,1.8589,1.8623,0.0,0.0,0.0,0.0,0.0,0.0,0.0,0.0,0.0,0.0,0.0,0.0,0.0,0.0,0.0,0.0,0.0,0.0,0.0,0.0,2.2078,0.0,0.0,0.0,0.0,0.0,0.0,0.0,0.0,0.0,0.0,2.4853,2.4525,2.4418,2.4915,0.0,0.0,0.0,0.0,2.6037,2.6277,2.6346,2.6346,2.6346,2.6082,2.5816,2.5594,0.0,0.0,2.5523,2.5535,2.5581,2.5828,2.5779,2.5772,2.5563,2.56,2.5714,2.6153,2.6303,2.6361,2.6695,2.7414,2.794,0.7151,0.0,0.0,0.0,0.0,1.0554,1.0934,1.1149,1.1416,1.1805,1.2244,1.2219,0.0,0.0,0.0,0.0,0.0,0.0,1.2654,1.2452,1.2451,1.2459,1.2317,1.238,1.2604,1.2912,1.3329,1.3853,1.4463,1.4739,1.5221,1.5841,0.0,0.0,0.0,0.0,1.6911,1.698,1.6558,1.6342,1.6473,1.6202,1.6342,1.6959,1.76,1.8141,1.8369,1.8595,1.8676,1.8588,1.8826,0.0,0.0,0.0,0.0,0.0,0.0,0.0,0.0,0.0,0.0,0.0,0.0,0.0,0.0,0.0,0.0,0.0,0.0,0.0,2.1555,2.2035,2.2326,0.0,0.0,0.0,0.0,0.0,0.0,0.0,0.0,0.0,2.4878,2.4872,2.4797,0.0,0.0,2.5214,2.537,2.5535,2.5746,2.5816,0.0,0.0,0.0,2.5523,2.5229,2.5158,2.504,2.4992,2.4992,2.5064,2.5064,2.5147,2.5194,2.5356,2.5355,2.5747,2.6139,2.6631,2.6895,2.7105,2.743,2.7822,2.8058,0.7343,0.8032,0.8543,0.915,0.9718,1.0272,1.0679,1.092,1.1198,1.1552,1.1911,1.1911,1.2047,1.2289,1.2358,0.0,0.0,0.0,1.2613,1.2476,1.2583,1.2526,1.2452,1.2599,1.29,1.32,1.3572,1.4152,1.4713,1.4928,1.5394,1.6033,0.0,0.0,1.6883,1.692,1.706,1.7157,1.6682,1.6473,1.6603,1.6473,1.676,1.752,1.8066,1.8419,1.8757,1.8945,1.9011,1.8974,1.893,1.8983,0.0,0.0,0.0,0.0,0.0,0.0,0.0,0.0,0.0,0.0,0.0,2.0959,0.0,0.0,0.0,0.0,2.1046,2.1017,2.1347,2.1814,0.0,0.0,0.0,0.0,0.0,0.0,0.0,2.3991,2.4033,2.4206,2.465,2.486,2.4912,2.4924,2.5119,2.5182,2.5111,0.0,2.5382,2.5382,2.5382,2.5382,2.5382,2.5028,2.4743,2.4671,2.4622,2.4574,2.4646,2.4646,2.4718,2.479,2.4992,2.5111,2.5182,2.5594,2.6013,2.6633,2.6837,2.704,2.751,2.7723,2.7934,0.7693,0.841,0.8622,0.903,0.9637,0.9991,1.0472,1.1031,1.1254,1.1558,1.1929,1.1929,1.2005,1.2111,1.2331,0.0,1.29,1.2673,1.2592,1.2599,1.2673,1.2673,1.2673,1.29,1.3193,1.3564,1.379,1.4225,1.4935,1.5133,1.5559,1.6263,1.6269,1.6492,1.6778,1.7048,1.7166,1.7235,1.6811,1.6603,1.6673,1.689,1.7314,1.8008,1.8269,1.8674,1.9264,1.9125,1.9188,1.9563,1.9022,1.8805,1.9078,0.0,0.0,0.0,0.0,0.0,0.0,0.0,0.0,0.0,0.0,0.0,0.0,0.0,0.0,0.0,2.0676,0.0,2.1144,2.1571,0.0,0.0,0.0,2.2813,2.3264,2.3247,2.3337,2.3857,0.0,0.0,2.4269,0.0,2.4861,2.5052,2.5052,2.4992,2.479,2.4897,2.5016,2.5016,2.4957,2.4945,2.4945,2.4694,2.4418,2.4261,2.4189,2.4261,2.4418,2.449,2.4574,2.4718,2.4921,2.5052,2.5052,2.5182,2.5523,2.6208,2.6427,2.6564,2.7134,2.7403,2.759,0.8291,0.8795,0.9206,0.9451,0.9648,1.0418,1.0726,1.0669,1.1043,1.1335,1.1552,1.1558,1.1742,1.2045,1.2198,1.2458,1.268,1.2599,1.2673,1.282,1.2973,1.3046,1.3046,1.3419,1.3702,1.3992,1.4281,1.4641,1.5133,1.5355,1.5709,1.6272,1.6323,1.6486,1.683,1.6922,1.7038,1.7235,1.6968,1.6968,1.7235,1.7588,1.792,1.8385,1.8731,1.9142,1.9539,1.9629,1.9651,1.9596,1.9415,1.9213,1.8942,1.9074,0.0,0.0,0.0,0.0,0.0,0.0,0.0,0.0,0.0,2.1315,2.1225,0.0,2.1268,0.0,2.1198,2.1102,2.1116,2.1451,0.0,0.0,2.2111,2.2415,2.2403,2.2834,2.327,2.3686,2.3908,2.4213,2.4625,2.4719,2.479,2.4634,2.4778,2.4861,2.4801,2.4849,2.4838,2.4849,2.4694,2.4622,2.4634,2.4418,2.4273,2.42,2.4189,2.4189,2.4261,2.4273,2.4273,2.4345,2.4646,2.4849,2.4861,2.5111,2.5465,2.5886,2.6164,2.644,2.6943,2.7214,2.7469,0.8926,0.9434,0.9862,1.004,1.0105,1.0483,1.0599,1.0663,1.0887,1.1111,1.1409,1.1558,1.1855,1.215,1.2372,1.2526,1.2746,1.2826,1.29,1.3046,1.3346,1.3492,1.363,1.3928,1.4217,1.4425,1.4649,1.4999,1.5426,1.5576,1.5929,1.6403,1.6482,1.67,1.7038,1.7038,1.7107,1.7314,1.7314,1.7442,1.7842,1.8124,1.8462,1.8865,1.9065,1.9341,1.9747,1.9868,1.9879,1.9799,1.9695,1.9454,1.9231,1.9297,1.9286,0.0,0.0,0.0,0.0,0.0,0.0,0.0,0.0,0.0,0.0,0.0,2.1015,0.0,2.089,2.086,2.097,2.1112,2.129,2.1456,2.1755,2.2088,2.24,2.2754,2.3178,2.3718,2.3906,2.4082,2.4455,2.4502,2.449,2.4357,2.449,2.449,2.4562,2.4562,2.4574,2.449,2.4418,2.4345,2.4345,2.4273,2.4189,2.4189,2.4189,2.4189,2.4189,2.4189,2.4189,2.42,2.449,2.479,2.4801,2.504,2.5465,2.5758,2.5968,2.6314,2.6888,2.7079,2.7268,0.9699,1.012,1.0549,1.0657,1.074,1.0496,1.0627,1.0812,1.0887,1.1111,1.149,1.1855,1.215,1.2378,1.2599,1.2753,1.2973,1.32,1.3273,1.3339,1.371,1.4,1.4209,1.4425,1.4641,1.5015,1.5007,1.5292,1.5876,1.5876,1.614,1.6603,1.683,1.7038,1.7304,1.7304,1.7382,1.7598,1.7716,1.8114,1.8576,1.8576,1.8854,1.9341,1.9351,1.955,1.9933,1.9933,1.9998,2.0064,1.9852,1.964,1.9574,1.9614,1.9604,0.0,1.996,0.0,0.0,0.0,0.0,0.0,0.0,0.0,0.0,2.0532,2.0476,2.0569,2.0245,2.0301,2.073,2.0714,2.0872,2.1219,2.1464,2.1878,2.2611,2.2778,2.3122,2.3779,2.3897,2.397,2.42,2.4189,2.4189,2.42,2.42,2.4273,2.42,2.42,2.42,2.4189,2.4189,2.4189,2.4189,2.42,2.4189,2.4189,2.4189,2.4189,2.4189,2.4189,2.4189,2.4273,2.4574,2.479,2.4861,2.5123,2.5453,2.5828,2.5923,2.6188,2.682,2.7024,2.7146,1.012,1.0554,1.0982,1.125,1.1393,1.1393,1.1175,1.0812,1.1111,1.1484,1.1929,1.215,1.2378,1.2599,1.2893,1.32,1.3419,1.3572,1.3863,1.4209,1.4353,1.4577,1.4721,1.4832,1.5117,1.5584,1.5655,1.5867,1.6211,1.6211,1.6412,1.6839,1.6899,1.7176,1.7803,0.0,0.0,0.0,1.8472,1.8741,1.8998,1.9075,1.933,1.9802,1.9802,0.0,2.0074,2.0074,2.0074,2.0074,2.0052,0.0,0.0,0.0,0.0,0.0,0.0,0.0,0.0,0.0,0.0,0.0,2.063,2.0873,2.0661,2.0618,2.0527,2.0448,2.0127,1.9966,2.0064,2.0434,2.0628,2.0736,2.1559,2.2188,2.2374,2.286,2.3356,2.3582,2.3824,2.397,2.4189,2.4189,2.4189,2.4189,2.4189,2.4189,2.4189,2.4189,2.4189,2.4189,2.4189,2.4189,2.4189,2.4189,2.4189,2.4189,2.4189,2.4189,2.4189,2.42,2.4273,2.4418,2.4646,2.4861,2.4981,2.5324,2.5606,2.584,2.6062,2.6339,2.6888,2.7024,2.7079,1.0646,0.0,1.1332,1.1623,0.0,1.1792,1.1534,1.131,1.139,1.1706,1.2157,1.2599,1.282,1.3046,1.3346,1.3637,1.392,1.4145,1.4361,1.4649,1.4776,1.4999,1.5221,1.5346,1.5559,1.5938,1.6,1.6211,1.6551,1.663,1.6839,1.7185,1.7323,1.7598,1.8018,1.8624,1.8829,1.8674,1.8952,1.9208,1.9462,1.9539,1.9747,2.0009,0.0,0.0,0.0,0.0,0.0,0.0,0.0,0.0,0.0,0.0,0.0,1.9732,1.9918,2.0053,2.0065,2.0341,2.0477,2.0288,2.032,2.0406,2.0392,2.0298,2.0194,2.0009,2.0083,2.009,2.0111,2.0586,2.1032,2.1269,2.1876,2.24,2.263,2.2933,2.3298,2.3519,2.3666,2.3824,2.4189,2.4189,2.4189,2.4189,2.4189,2.4189,2.4189,2.4189,2.4189,2.4189,2.4189,2.4189,2.4189,2.4189,2.4189,2.4189,2.4189,2.4189,2.4189,2.4273,2.4418,2.449,2.4706,2.4992,2.5182,2.5394,2.5688,2.598,2.6188,2.6465,2.6875,2.7024,2.7092,1.117,1.1413,1.1688,1.1918,1.2111,1.1978,1.1903,1.1903,0.0,0.0,0.0,1.3046,1.3411,1.371,1.3863,1.4152,1.4497,1.4641,1.4784,1.5007,1.5204,1.5426,1.5638,1.5788,1.6,1.6202,1.636,1.663,1.6978,1.7047,1.7245,1.7608,1.7872,1.8183,1.8408,1.9448,1.9902,1.9536,1.9582,1.9793,2.0115,2.0106,2.0129,2.0271,2.0118,2.0085,2.0085,2.0085,2.0085,2.0085,2.0085,2.0085,2.0085,2.0281,2.0346,2.0346,2.0475,2.0604,2.0604,2.0604,2.0573,2.0467,2.0139,2.0019,2.0053,1.9998,1.9865,1.9666,2.0022,2.0297,2.0376,2.1011,2.1571,2.1948,2.2223,2.2597,2.2936,2.3075,2.3224,2.3519,2.3677,2.3824,2.4116,2.4189,2.4189,2.4189,2.4189,2.4189,2.4189,2.4189,2.4189,2.4189,2.4189,2.4189,2.4189,2.4189,2.4189,2.4189,2.42,2.4273,2.4273,2.4418,2.4574,2.4634,2.4909,2.5182,2.5324,2.5594,2.5828,2.6201,2.6383,2.6645,2.6943,2.7079,2.7146,1.1424,1.1693,1.2118,1.2425,1.2614,1.2288,1.2176,1.2223,1.2177,1.2606,1.3346,1.3426,1.3783,1.4289,1.4425,1.4569,1.4864,1.5062,1.5213,0.0,1.5647,1.5797,1.5991,1.6123,1.6254,1.6542,1.6954,1.7153,1.7176,1.7442,1.7716,1.794,1.8144,1.873,1.9538,2.054,2.1032,2.0968,2.1038,2.1038,2.1096,2.0913,2.0762,2.074,2.0369,2.0085,2.0085,2.0096,2.0085,2.0085,2.0085,2.0085,2.0085,2.0151,2.014,2.0151,2.0151,2.0151,2.0216,2.0205,2.0391,2.0785,2.0493,2.0186,1.9921,1.9977,2.0018,1.997,2.0209,2.0469,2.0642,2.1246,2.1782,2.2013,2.2578,2.2936,2.3001,2.3161,2.3372,2.3604,2.3751,2.3897,2.4116,2.4189,2.4212,2.4212,2.4269,2.4223,2.4246,2.4189,2.4189,2.4189,2.4189,2.4189,2.4189,2.4189,2.4189,2.4189,2.4345,2.4418,2.4418,2.4646,2.479,2.4981,2.5182,2.5312,2.5523,2.5943,2.622,2.6358,2.6658,2.693,2.7214,2.7281,2.7403,1.178,1.2118,1.2448,1.2705,1.2936,1.3117,1.3252,1.3473,1.3618,1.3575,1.3506,1.392,1.4289,1.4497,1.4776,1.507,1.5221,1.5434,1.5647,1.585,1.6,1.614,1.6202,1.6482,1.6621,1.683,1.7213,1.7489,1.7666,1.7784,1.8066,1.8424,1.8985,1.9754,2.062,2.1289,2.1679,2.1728,2.1561,2.1441,2.1441,2.1374,2.1254,2.1254,2.1024,2.0926,2.0937,2.0926,2.0926,2.0926,2.0675,2.0533,2.0522,2.0293,2.0085,2.0085,2.0391,2.0544,2.0533,2.0784,2.1024,2.1232,2.0978,2.0833,2.0676,2.0344,2.0191,2.0211,2.0678,2.101,2.1104,2.1796,2.2295,2.2368,2.2722,2.3075,2.315,2.3224,2.3446,2.3677,2.3824,2.3982,2.4189,2.4189,2.4315,2.451,2.459,2.459,2.4579,2.4349,2.42,2.4189,2.4189,2.4189,2.4189,2.4189,2.4261,2.4345,2.4418,2.4574,2.4646,2.4849,2.5052,2.5182,2.5394,2.5606,2.5943,2.622,2.6427,2.6726,2.693,2.7201,2.7403,2.7577,2.7855,1.2135,1.2534,1.2784,1.3008,1.3445,1.3974,1.4337,1.4684,1.4902,1.4699,1.4184,1.4582,1.476,1.4977,1.5182,1.5426,1.5638,1.5797,1.6008,1.6132,1.6272,1.6421,1.6482,1.683,1.7047,1.7107,1.7461,1.7803,1.8066,1.8202,1.86,1.9215,2.0123,2.0946,2.1593,2.2132,2.2361,2.2411,2.2144,2.205,2.198,2.1952,2.1875,2.1886,2.1787,2.1721,2.1662,2.1662,2.1662,2.157,2.1232,2.1092,2.1081,2.0742,2.0544,2.0566,2.0962,2.116,2.1182,2.1512,2.1706,2.1815,2.1604,2.1506,2.1532,2.1174,2.0823,2.0792,2.1282,2.1639,2.1745,2.2232,2.2703,2.2852,2.3001,2.3161,2.3372,2.3372,2.3519,2.3824,2.3988,2.4226,2.4299,2.4476,2.4705,2.5027,2.5096,2.5096,2.5113,2.4745,2.4469,2.4484,2.4353,2.4189,2.42,2.4273,2.4345,2.4502,2.4562,2.4706,2.4921,2.5123,2.5253,2.5465,2.5664,2.5943,2.6277,2.6552,2.6701,2.6998,2.7268,2.7469,2.7669,2.7973,2.8235,1.2466,1.2705,1.3112,1.3644,1.4185,1.4639,1.4931,1.5118,1.5459,1.5734,1.5815,1.5359,1.5438,1.5903,1.5593,1.5735,1.6008,1.6061,1.614,1.636,1.6464,1.6682,1.6875,1.7125,1.7373,1.7657,1.7891,1.8163,1.8452,1.8885,1.9494,2.0443,2.155,2.221,2.2546,2.3123,2.3441,2.3441,2.3419,2.3323,2.325,2.2961,2.2797,2.2775,2.2383,2.2079,2.1926,2.1882,2.1801,2.1592,2.1559,2.1585,2.1782,2.1749,2.1796,2.1991,2.2058,2.208,2.2092,2.1907,2.2081,2.2446,2.2132,2.2161,2.2476,2.2307,2.1999,2.1807,2.2062,2.236,2.2563,2.2681,2.2852,2.315,2.3224,2.3372,2.3519,2.374,2.3886,2.3897,2.442,2.4855,2.4877,2.5233,2.5555,2.5612,2.5712,2.5777,2.5796,2.5477,2.5175,2.5253,2.4827,2.4319,2.4284,2.4357,2.449,2.4574,2.4838,2.5052,2.5182,2.5394,2.5618,2.5816,2.6082,2.6358,2.6496,2.6782,2.7201,2.7255,2.7523,2.7802,2.8013,2.8183,2.83,1.2826,1.3307,1.3691,1.4205,1.4957,1.5532,1.5878,1.6077,1.654,1.6858,1.6975,1.6713,1.659,1.6578,1.6285,1.6329,1.659,1.6439,1.6607,1.7026,1.7186,1.7589,1.8161,1.8333,1.8492,1.8527,1.8735,1.8859,1.9014,1.9737,2.0733,2.1717,2.238,2.2855,2.3206,2.3492,2.3604,2.37,2.3762,2.3773,2.3858,2.3498,2.3374,2.3385,2.3183,2.301,2.2927,2.2927,2.2855,2.2772,2.2517,2.2329,2.2181,2.2121,2.225,2.2548,2.259,2.2767,2.2988,2.2938,2.3005,2.3206,2.3072,2.3025,2.3191,2.315,2.2977,2.2845,2.2669,2.2628,2.2841,2.3001,2.315,2.3446,2.3457,2.3519,2.3751,2.3824,2.4061,2.4431,2.4723,2.5061,2.5371,2.5919,2.6286,2.6387,2.6465,2.6531,2.6562,2.6153,2.5948,2.593,2.5417,2.4912,2.4667,2.4574,2.4706,2.4849,2.5052,2.5241,2.5465,2.5734,2.6025,2.6164,2.644,2.6701,2.6905,2.7121,2.7469,2.759,2.7829,2.8105,2.8183,2.8379,2.8444,1.3338,1.3893,1.4448,1.5115,1.5809,1.6312,1.6722,1.6976,1.7383,1.7716,1.7917,1.782,1.77,1.7541,1.7094,1.7013,1.717,1.7054,1.7295,1.7786,1.8031,1.848,1.9029,1.934,1.9481,1.9485,1.9602,1.9708,1.9758,2.0834,2.1882,2.2704,2.3059,2.339,2.3779,2.3813,2.392,2.4089,2.4139,2.4212,2.4246,2.3982,2.3835,2.3858,2.3835,2.3751,2.3677,2.3666,2.3677,2.3582,2.3257,2.301,2.2789,2.2685,2.2795,2.3119,2.3205,2.3428,2.3728,2.374,2.3677,2.3677,2.3677,2.3593,2.3593,2.3593,2.3593,2.3508,2.3224,2.3001,2.315,2.3298,2.3457,2.3666,2.3677,2.374,2.397,2.4061,2.4386,2.478,2.5199,2.5532,2.6115,2.6676,2.6988,2.7079,2.7226,2.7372,2.738,2.7103,2.6747,2.68,2.6459,2.5884,2.518,2.4992,2.5028,2.5123,2.5312,2.5606,2.5746,2.6082,2.6371,2.6508,2.6714,2.6918,2.7175,2.7456,2.7656,2.7908,2.8105,2.8287,2.8365,2.8509,2.8587,1.3964,1.4475,1.5575,1.6245,1.6656,1.6976,1.7294,1.7619,1.787,1.8121,1.8362,1.8576,1.8798,1.9067,1.8069,1.7803,1.8054,1.799,1.8221,1.8654,1.8874,1.9112,1.9287,1.9703,2.0083,2.0379,2.0333,2.0511,2.1051,2.2213,2.295,2.3171,2.3674,2.4082,2.4357,2.4418,2.4574,2.4646,2.4729,2.4706,2.4611,2.4478,2.4345,2.42,2.42,2.4043,2.3897,2.3897,2.3824,2.3593,2.3548,2.361,2.3756,2.3806,2.3845,2.4097,2.412,2.4154,2.4105,2.397,2.3897,2.3897,2.3751,2.3593,2.3666,2.3666,2.3666,2.3604,2.3593,2.3519,2.3604,2.3604,2.3666,2.3813,2.3897,2.397,2.4116,2.4505,2.4843,2.5084,2.5761,2.6495,2.7221,2.7452,2.7602,2.7787,2.7822,2.7959,2.8183,2.7891,2.7806,2.7956,2.7665,2.698,2.5908,2.5552,2.5373,2.5455,2.5798,2.598,2.622,2.6414,2.6645,2.6863,2.7134,2.7323,2.7456,2.7643,2.7908,2.8105,2.8235,2.8365,2.8509,2.8587,2.8587,1.4803,1.5516,1.6221,1.6648,1.6976,1.7465,1.7789,1.7951,1.829,1.8603,1.8754,1.9002,1.9301,1.9678,1.9406,1.9278,1.9089,1.8805,1.9036,1.9658,1.99,2.0346,2.0927,2.1151,2.1345,2.1413,2.1177,2.1435,2.2117,2.2889,2.3603,2.4116,2.4397,2.4574,2.4657,2.4718,2.4729,2.4801,2.4801,2.479,2.4766,2.4718,2.4646,2.4574,2.4345,2.4189,2.4116,2.4127,2.4043,2.3982,2.397,2.4043,2.4116,2.4116,2.4116,2.42,2.4189,2.4189,2.42,2.4127,2.4116,2.4116,2.4043,2.397,2.397,2.397,2.3982,2.397,2.397,2.397,2.397,2.3897,2.3897,2.4032,2.4116,2.4127,2.4281,2.4613,2.5038,2.5486,2.638,2.7232,2.7533,2.7857,2.8179,2.8271,2.851,2.8669,2.8803,2.8699,2.8655,2.8802,2.8521,2.8101,2.7953,2.681,2.6188,2.6149,2.6288,2.6275,2.6452,2.6782,2.7066,2.7201,2.7403,2.759,2.7709,2.7973,2.817,2.8379,2.8444,2.8509,2.8587,2.8651,2.8716,1.5726,1.6429,1.696,1.7212,1.7456,1.7959,1.8282,1.8353,1.8772,1.9002,1.9311,1.9539,1.9863,2.0255,2.0498,2.0517,2.0365,1.9899,2.0068,2.0657,2.0958,2.1422,2.1983,2.2252,2.2306,2.2147,2.2165,2.2421,2.2902,2.3572,2.4213,2.4766,2.4849,2.4921,2.4992,2.4992,2.5064,2.5147,2.5147,2.5135,2.5135,2.5076,2.5076,2.4992,2.4694,2.4394,2.4418,2.4418,2.4345,2.4273,2.4273,2.4273,2.4189,2.4189,2.4189,2.4189,2.4189,2.4189,2.4189,2.4189,2.4189,2.4189,2.42,2.4189,2.4189,2.4189,2.4189,2.4189,2.4189,2.4189,2.4189,2.4043,2.4043,2.4189,2.4189,2.4258,2.443,2.4877,2.5474,2.6207,2.6978,2.7545,2.7857,2.8179,2.851,2.8669,2.8973,2.9209,2.93,2.9365,2.9521,2.9626,2.9415,2.929,2.9101,2.8386,2.7503,2.7388,2.7047,2.6886,2.6929,2.7288,2.7468,2.7496,2.7656,2.7855,2.8039,2.8249,2.8379,2.8587,2.8651,2.8651,2.8716,2.878,2.8908,1.664,1.7131,1.7789,1.7951,1.804,1.8531,1.8851,1.8993,1.9231,1.9548,1.9951,2.0177,2.0489,2.0867,2.1118,2.1415,2.1583,2.138,2.1303,2.1507,2.1897,2.2199,2.2478,2.2852,2.2897,2.2601,2.3126,2.3364,2.3356,2.4284,2.4814,2.4849,2.504,2.5158,2.53,2.5465,2.5688,2.5758,2.584,2.584,2.591,2.5688,2.5535,2.5535,2.517,2.4969,2.4861,2.479,2.4646,2.4502,2.449,2.4418,2.4261,2.4273,2.4261,2.4273,2.42,2.42,2.4189,2.4273,2.4273,2.4273,2.42,2.4273,2.4273,2.42,2.4189,2.4189,2.4189,2.4189,2.4189,2.42,2.42,2.4189,2.42,2.4361,2.482,2.5383,2.6161,2.7105,2.758,2.7753,2.8259,2.859,2.8828,2.9052,2.9353,2.9586,2.9767,2.9921,3.0139,3.0292,3.019,3.01,3.0074,2.9881,2.9244,2.866,2.8112,2.7831,2.7893,2.8105,2.8048,2.8078,2.7961,2.8131,2.8314,2.8509,2.8573,2.8716,2.8716,2.8844,2.8894,2.9022,2.9212,1.731,1.7789,1.8264,1.8585,1.8754,1.9161,1.9399,1.9627,1.9863,2.0264,2.0731,2.0896,2.1185,2.1721,2.1949,2.2176,2.2402,2.2553,2.2553,2.2402,2.2692,2.2927,2.3075,2.3446,2.348,2.3475,2.4108,2.4365,2.4357,2.4999,2.5407,2.556,2.5618,2.5688,2.5676,2.5746,2.5898,2.6094,2.6094,2.6094,2.6082,2.6013,2.598,2.5947,2.57,2.5618,2.556,2.5064,2.479,2.4729,2.4718,2.4646,2.4646,2.4646,2.4562,2.4574,2.4646,2.4646,2.4574,2.4574,2.4574,2.4574,2.449,2.4418,2.4345,2.4273,2.4189,2.4189,2.4189,2.4261,2.4345,2.4418,2.4345,2.4189,2.42,2.4395,2.5021,2.587,2.6779,2.7624,2.803,2.8271,2.859,2.8919,2.939,2.9534,2.9831,3.0126,3.0216,3.0305,3.0381,3.0533,3.0609,3.0698,3.0631,3.0628,3.0342,2.9762,2.923,2.8802,2.8838,2.8825,2.8699,2.8558,2.8451,2.8433,2.86,2.8702,2.8766,2.8972,2.9085,2.9135,2.9184,2.9373,2.9637,1.8031,1.8442,1.8834,1.9143,1.9399,1.9715,2.0029,2.0342,2.0576,2.0974,2.1436,2.1578,2.1883,2.2327,2.2628,2.2852,2.3075,2.3446,2.353,2.3372,2.3446,2.3519,2.3632,2.3899,2.4108,2.4224,2.4646,2.4924,2.4932,2.5465,2.5886,2.6094,2.6176,2.6176,2.6176,2.6258,2.6396,2.6521,2.6521,2.6508,2.6427,2.6508,2.6465,2.6433,2.627,2.6176,2.6176,2.5688,2.5265,2.5135,2.4981,2.4909,2.4838,2.4861,2.4801,2.4801,2.4801,2.4801,2.4801,2.4801,2.4801,2.4801,2.4718,2.4634,2.4574,2.449,2.4418,2.4418,2.4418,2.4502,2.4562,2.4574,2.4574,2.4429,2.4418,2.4719,2.5367,2.6508,2.7355,2.8051,2.8351,2.859,2.9077,2.9312,2.9869,3.0011,3.0305,3.052,3.052,3.0672,3.0748,3.0911,3.1061,3.1149,3.1224,3.1286,3.136,3.0863,3.0316,2.9974,2.9834,2.9618,2.9507,2.9242,2.9064,2.8947,2.9073,2.8999,2.9071,2.9261,2.9463,2.9574,2.9685,2.9946,3.0129,1.8913,1.9073,1.9557,1.9784,2.0029,2.0342,2.0731,2.1205,2.1282,2.1655,2.2101,2.2402,2.2553,2.2852,2.3224,2.3519,2.3666,2.4043,2.4334,2.4322,2.425,2.4177,2.436,2.446,2.4677,2.4881,2.5042,2.521,2.5505,2.6009,2.6289,2.6496,2.6645,2.6726,2.6726,2.6943,2.7011,2.7011,2.7024,2.7011,2.7079,2.7079,2.7024,2.7037,2.6794,2.6714,2.6645,2.6427,2.6151,2.5676,2.5312,2.5099,2.5028,2.4921,2.4933,2.4933,2.4873,2.4933,2.4861,2.5004,2.5004,2.5004,2.4933,2.4861,2.4849,2.4849,2.4778,2.4849,2.4861,2.4861,2.4861,2.4861,2.4873,2.492,2.5001,2.5362,2.6259,2.7313,2.7992,2.8407,2.859,2.884,2.9636,2.9792,3.0088,3.0381,3.0609,3.0761,3.0836,3.1061,3.1198,3.1347,3.136,3.1373,3.1447,3.1669,3.1743,3.1596,3.1235,3.1061,3.0793,3.0573,3.0471,3.0174,2.9813,2.9614,2.9517,2.9519,2.9505,2.9637,2.9822,3.0054,3.0237,3.0493,3.0673,1.9696,1.9932,2.0498,2.0819,2.0886,2.1272,2.1645,2.2025,2.2101,2.2402,2.2927,2.3213,2.3361,2.3593,2.397,2.425,2.4443,2.4659,2.4886,2.5099,2.5182,2.5182,2.5253,2.5426,2.5595,2.5859,2.604,2.6307,2.6362,2.6637,2.6863,2.7053,2.7134,2.7188,2.7255,2.7335,2.7456,2.759,2.759,2.7603,2.7616,2.7603,2.7642,2.7654,2.7307,2.7134,2.7134,2.693,2.6589,2.6094,2.5816,2.5676,2.5688,2.563,2.556,2.556,2.556,2.563,2.556,2.556,2.563,2.563,2.5407,2.5407,2.5394,2.5253,2.5182,2.5182,2.5182,2.5265,2.5336,2.536,2.5575,2.6045,2.6079,2.6332,2.7138,2.7896,2.851,2.8907,2.9221,2.9546,2.9779,3.0164,3.0546,3.0761,3.0986,3.1136,3.1224,3.1373,3.1522,3.1522,3.1522,3.1522,3.1669,3.189,3.2023,3.2096,3.2019,3.2096,3.1837,3.1537,3.1557,3.1446,3.0738,3.0476,3.0326,3.0247,3.0202,3.0215,3.0372,3.0613,3.0792,3.097,3.1204,2.0566,2.0789,2.1339,2.1655,2.1731,2.2025,2.2478,2.2852,2.2916,2.3224,2.3666,2.3959,2.4082,2.4322,2.4671,2.4969,2.5229,2.5312,2.5511,2.5804,2.6082,2.6082,2.6013,2.6176,2.6383,2.6645,2.685,2.704,2.7175,2.7268,2.7403,2.7603,2.7616,2.7723,2.7842,2.7842,2.7921,2.8052,2.8052,2.8039,2.8052,2.8,2.7961,2.7961,2.7775,2.7683,2.7616,2.7469,2.7066,2.6658,2.6383,2.6245,2.6245,2.6176,2.6094,2.6107,2.6107,2.6094,2.6037,2.6037,2.598,2.591,2.5758,2.5758,2.5688,2.5606,2.5535,2.5535,2.5535,2.5606,2.5725,2.5942,2.6404,2.698,2.7223,2.742,2.7989,2.8463,2.9003,2.9365,2.9702,3.0011,3.0164,3.0546,3.0836,3.1061,3.1286,3.1447,3.1535,3.1683,3.1757,3.1743,3.1877,3.1936,3.2082,3.2228,3.2516,3.2574,3.2803,3.2931,3.2735,3.2485,3.2389,3.2232,3.1734,3.1302,3.1154,3.1036,3.0959,3.0981,3.1087,3.1161,3.1321,3.1379,3.161,2.1441,2.1649,2.208,2.2402,2.2553,2.2767,2.3169,2.3514,2.3706,2.3902,2.423,2.4612,2.4862,2.485,2.53,2.5676,2.6037,2.6037,2.622,2.6552,2.6824,2.6892,2.6688,2.6782,2.6985,2.7255,2.7335,2.759,2.7709,2.7855,2.7987,2.8131,2.8145,2.8262,2.8365,2.8365,2.8509,2.8587,2.8509,2.843,2.843,2.8327,2.8289,2.8276,2.821,2.8131,2.8066,2.7921,2.7577,2.7159,2.6875,2.6794,2.6726,2.6564,2.6496,2.6427,2.6508,2.6427,2.6302,2.6314,2.6233,2.6119,2.6119,2.6037,2.6037,2.6119,2.6037,2.605,2.605,2.6037,2.6181,2.6494,2.7145,2.7788,2.8313,2.8574,2.8709,2.9133,2.9586,2.9856,3.0088,3.0394,3.0609,3.0911,3.1136,3.136,3.1582,3.1656,3.1803,3.195,3.2023,3.2096,3.2228,3.2489,3.2561,3.2632,3.2917,3.3129,3.3437,3.3577,3.3479,3.3295,3.318,3.2976,3.2706,3.2364,3.2028,3.1894,3.1752,3.1545,3.1439,3.1625,3.1781,3.1838,3.2023,2.1964,2.2361,2.2974,2.3372,2.3593,2.3813,2.3887,2.385,2.4281,2.4519,2.4646,2.5272,2.5594,2.5676,2.6,2.6346,2.6701,2.6769,2.6973,2.7242,2.763,2.7776,2.763,2.7643,2.7656,2.7789,2.796,2.8091,2.8235,2.8379,2.8509,2.8624,2.8688,2.8739,2.8894,2.8958,2.8958,2.8972,2.8958,2.8944,2.8894,2.8908,2.8858,2.8844,2.8702,2.8495,2.83,2.8235,2.8105,2.7789,2.7469,2.7268,2.7134,2.6998,2.693,2.6943,2.6875,2.6863,2.6794,2.6794,2.6807,2.6739,2.6671,2.6739,2.6739,2.6752,2.6739,2.6752,2.6739,2.6671,2.6784,2.7329,2.7914,2.8486,2.902,2.9578,3.0024,3.0075,3.0062,3.0305,3.0609,3.0849,3.0986,3.1299,3.1522,3.173,3.1877,3.195,3.2082,3.2286,3.2359,3.2431,3.2717,3.2917,3.3058,3.3199,3.3548,3.3756,3.4045,3.4332,3.4235,3.4221,3.41,3.4031,3.3915,3.3515,3.3087,3.2721,3.2571,3.2206,3.1841,3.2023,3.2191,3.2302,3.2358,2.2402,2.275,2.3521,2.3953,2.4153,2.4637,2.4661,2.4548,2.5141,2.5277,2.5314,2.6052,2.644,2.6564,2.6905,2.7229,2.7443,2.7709,2.7855,2.8052,2.8379,2.8495,2.856,2.856,2.856,2.8365,2.856,2.8688,2.8803,2.8944,2.9085,2.9135,2.9198,2.9324,2.9512,2.9588,2.9651,2.9637,2.9574,2.9512,2.9463,2.9352,2.9352,2.9289,2.9135,2.8931,2.8803,2.8688,2.8651,2.8522,2.8183,2.7855,2.7683,2.7549,2.7549,2.7549,2.7496,2.7482,2.7403,2.7268,2.7201,2.7146,2.7079,2.7024,2.7024,2.7024,2.7024,2.7024,2.705,2.7101,2.7533,2.8061,2.8686,2.9444,3.0004,3.0572,3.0921,3.0773,3.0609,3.0836,3.1061,3.1299,3.1447,3.1743,3.1877,3.2082,3.2273,3.2417,3.2574,3.2704,3.2775,3.2917,3.3199,3.3409,3.3563,3.377,3.4249,3.4438,3.4706,3.4971,3.5088,3.5037,3.5088,3.4961,3.4818,3.4696,3.4301,3.3834,3.3313,3.3027,3.2773,3.2653,3.2539,3.2594,3.2664,2.2794,2.2998,2.3899,2.4249,2.4458,2.5132,2.5259,2.5036,2.5902,2.5967,2.6072,2.6786,2.7297,2.7497,2.7762,2.8026,2.83,2.8573,2.8716,2.883,2.9085,2.9275,2.9338,2.9526,2.9512,2.9121,2.9198,2.9324,2.9449,2.9651,2.9775,2.9727,2.9789,2.9898,3.0129,3.019,3.019,3.0251,3.0129,3.0068,2.9946,2.9837,2.9789,2.9775,2.9699,2.9498,2.9435,2.9324,2.9226,2.9162,2.9008,2.8702,2.8379,2.8145,2.8145,2.8066,2.8013,2.7947,2.7802,2.7656,2.7523,2.7416,2.7281,2.7214,2.7227,2.7294,2.7294,2.7278,2.7411,2.7712,2.8291,2.893,2.9607,3.0322,3.0963,3.1455,3.1582,3.136,3.1347,3.136,3.1582,3.173,3.195,3.2169,3.2372,3.2503,3.2704,3.2832,3.3044,3.3199,3.3269,3.3548,3.3825,3.4153,3.4288,3.4491,3.4905,3.5118,3.5365,3.5559,3.5816,3.5816,3.5816,3.5752,3.5619,3.5489,3.5141,3.4572,3.4118,3.3851,3.3364,3.2843,3.2827,3.2897,3.306,2.3396,2.3573,2.4295,2.4701,2.4856,2.5163,2.5129,2.4898,2.6065,2.6323,2.6277,2.7468,2.8143,2.8338,2.8546,2.8803,2.9121,2.9401,2.9512,2.9623,2.9822,3.0021,3.0144,3.0326,3.0312,3.0266,3.0129,2.9993,3.0068,3.0266,3.0387,3.0462,3.0447,3.0507,3.0507,3.0507,3.0568,3.0628,3.0628,3.0568,3.0507,3.0447,3.0387,3.0387,3.0372,3.019,3.0007,2.9946,2.9822,2.9526,2.9477,2.9324,2.9058,2.8624,2.8379,2.8197,2.821,2.821,2.8131,2.8066,2.8013,2.7961,2.7881,2.7881,2.7881,2.7881,2.7815,2.8,2.8278,2.8703,2.889,2.9781,3.0392,3.0823,3.1328,3.1877,3.2023,3.2082,3.2082,3.2009,3.2096,3.2241,3.2444,3.2731,3.286,3.3058,3.3199,3.3479,3.3687,3.3756,3.3825,3.4182,3.4534,3.4839,3.5139,3.535,3.5623,3.5767,3.5958,3.6148,3.6336,3.6523,3.6523,3.6383,3.6322,3.6138,3.5765,3.5279,3.4825,3.4457,3.3779,3.3045,3.3318,3.3693,3.3763,2.3819,2.4004,2.4751,2.5107,2.5283,2.573,2.5691,2.5495,2.6725,2.7188,2.7428,2.8339,2.9121,2.931,2.9484,2.9732,3.0054,3.019,3.0297,3.0418,3.0613,3.0747,3.0851,3.0984,3.1029,3.1029,3.097,3.0777,3.0598,3.0911,3.1029,3.1087,3.1087,3.1087,3.1161,3.1204,3.1161,3.1146,3.1146,3.1161,3.1087,3.1087,3.1087,3.1029,3.0984,3.0807,3.0613,3.0493,3.0372,3.0205,3.0144,2.9946,2.9685,2.9435,2.9058,2.8702,2.8587,2.8587,2.8522,2.8457,2.8341,2.8341,2.821,2.8079,2.8079,2.8079,2.8145,2.8344,2.8785,2.9349,2.9889,3.0715,3.1243,3.1765,3.2195,3.2461,3.2646,3.2789,3.2789,3.2803,3.2789,3.2874,3.3086,3.3297,3.3423,3.3632,3.377,3.4045,3.4317,3.4452,3.452,3.4839,3.5184,3.5444,3.5737,3.5991,3.618,3.6336,3.6538,3.6723,3.6846,3.6968,3.7013,3.6937,3.6843,3.6765,3.6516,3.6119,3.5629,3.5153,3.4706,3.4353,3.4321,3.4423,3.451,2.4337,2.4447,2.5159,2.5491,2.5616,2.6303,2.6339,2.6233,2.7381,2.7956,2.8064,2.9118,2.9911,3.0283,3.0553,3.0732,3.097,3.1014,3.1073,3.1263,3.1379,3.1452,3.1552,3.161,3.1667,3.1709,3.1781,3.1652,3.1321,3.1495,3.1595,3.1652,3.1652,3.1709,3.1781,3.1781,3.1853,3.1838,3.1838,3.1781,3.1724,3.1652,3.1652,3.1652,3.1552,3.1394,3.1204,3.1087,3.097,3.0807,3.0747,3.0613,3.0372,3.0251,3.0007,2.9463,2.9289,2.9162,2.9085,2.8908,2.878,2.8716,2.8471,2.8341,2.8341,2.8419,2.8446,2.8673,2.9306,3.0065,3.0856,3.1543,3.2109,3.2581,3.2946,3.3199,3.3199,3.3423,3.3632,3.3632,3.3479,3.3563,3.377,3.3908,3.4113,3.4235,3.437,3.4691,3.4971,3.5118,3.5249,3.5623,3.5879,3.61,3.6336,3.6569,3.6693,3.6815,3.7029,3.7165,3.7285,3.7405,3.7433,3.7476,3.7417,3.7322,3.7105,3.6884,3.6327,3.5966,3.5744,3.5459,3.5181,3.5165,3.5331,2.5231,2.53,2.5675,2.5827,2.5924,2.6283,2.6349,2.6432,2.7336,2.8035,2.8579,2.9535,3.0411,3.1026,3.1377,3.1522,3.161,3.1694,3.1879,3.2007,3.2135,3.2191,3.2231,3.2272,3.2287,3.2272,3.2437,3.2231,3.2023,3.2079,3.2191,3.2231,3.2231,3.2287,3.2302,3.2302,3.2358,3.2287,3.2342,3.2342,3.2287,3.2272,3.2287,3.2231,3.2135,3.2023,3.1853,3.1667,3.1552,3.1422,3.1364,3.119,3.097,3.0911,3.0732,3.0326,2.9898,2.9477,2.9373,2.9247,2.9212,2.9085,2.8972,2.8972,2.8922,2.9018,2.9261,2.9821,3.0491,3.1165,3.1832,3.2611,3.3059,3.3297,3.3563,3.3701,3.377,3.4085,3.437,3.452,3.4438,3.437,3.4452,3.4654,3.4787,3.492,3.5037,3.5285,3.5544,3.5767,3.5958,3.6258,3.6507,3.6723,3.6846,3.7089,3.7194,3.7298,3.7433,3.7583,3.77,3.7743,3.7902,3.7902,3.7902,3.7902,3.7774,3.7486,3.7054,3.6757,3.6582,3.6238,3.5758,3.5902,3.6238,2.6558,2.6176,2.6443,2.6563,2.6602,2.6864,2.7004,2.7189,2.7958,2.8562,2.9026,2.9801,3.0697,3.1463,3.1704,3.2044,3.236,3.2461,3.2602,3.2796,3.2812,3.2866,3.2888,3.2772,3.2756,3.2904,3.2958,3.3011,3.2812,3.2648,3.2648,3.2664,3.2703,3.2648,3.2703,3.2718,3.2757,3.2812,3.285,3.2904,3.2904,3.285,3.2812,3.2812,3.2664,3.2539,3.2342,3.2272,3.216,3.2048,3.1951,3.1796,3.1625,3.1452,3.1321,3.1087,3.0851,3.0478,2.9993,2.9794,2.9685,2.9512,2.9401,2.9352,2.9408,2.9722,3.0023,3.0409,3.1533,3.2302,3.2738,3.3468,3.3794,3.3977,3.4249,3.4317,3.4505,3.4758,3.5023,3.5169,3.5314,3.5249,3.5234,3.5314,3.5444,3.5429,3.5623,3.5879,3.618,3.6507,3.6646,3.6892,3.7074,3.7329,3.7405,3.7524,3.7567,3.7669,3.777,3.796,3.8017,3.8132,3.8303,3.8415,3.8472,3.8455,3.8455,3.8197,3.7794,3.7625,3.7512,3.7206,3.6932,3.7222,3.7568,2.7849,2.7363,2.7363,2.7429,2.7414,2.7715,2.7799,2.7875,2.8564,2.9081,2.9539,3.0211,3.1036,3.1601,3.1793,3.2143,3.2893,3.2977,3.324,3.3371,3.3503,3.3503,3.3471,3.3355,3.3355,3.3503,3.3487,3.3539,3.3487,3.3382,3.3187,3.3112,3.3134,3.3096,3.3096,3.3096,3.3187,3.324,3.3346,3.3346,3.3346,3.3293,3.3256,3.3203,3.315,3.2989,3.2834,3.278,3.2726,3.2578,3.2468,3.2373,3.2135,3.2007,3.1894,3.1766,3.1652,3.1364,3.0896,3.0553,3.0237,3.0068,2.9988,2.9984,3.0239,3.0594,3.1105,3.1532,3.2436,3.3172,3.3665,3.4301,3.4551,3.4706,3.492,3.5052,3.5184,3.5429,3.5608,3.5816,3.5958,3.6085,3.6022,3.6085,3.6085,3.6006,3.6196,3.6461,3.6769,3.7058,3.7238,3.7433,3.7551,3.7801,3.7876,3.7992,3.8049,3.8091,3.8189,3.8286,3.8415,3.8528,3.8694,3.886,3.904,3.9077,3.9007,3.8805,3.8583,3.8388,3.8274,3.8381,3.8398,3.856,3.8544,2.9044,2.9059,2.8496,2.824,2.8255,2.8496,2.8638,2.8622,2.8967,2.9438,3.0054,3.0894,3.1261,3.1566,3.1758,3.2112,3.2786,3.2934,3.3386,3.3824,3.405,3.405,3.405,3.4034,3.4034,3.405,3.4066,3.4066,3.405,3.405,3.3864,3.371,3.3607,3.3658,3.3607,3.3607,3.3607,3.3658,3.3694,3.3694,3.3694,3.3642,3.3658,3.3658,3.3555,3.345,3.345,3.333,3.3187,3.3096,3.3043,3.2866,3.2672,3.2547,3.2453,3.2342,3.2287,3.2048,3.1724,3.1219,3.0881,3.0628,3.0609,3.087,3.1409,3.1496,3.2077,3.3042,3.3644,3.4192,3.4676,3.5088,3.5285,3.5415,3.5559,3.5688,3.5831,3.6022,3.6211,3.6414,3.6538,3.6585,3.6723,3.6723,3.6585,3.6507,3.6708,3.6952,3.7238,3.7535,3.7786,3.796,3.8001,3.8189,3.8335,3.8448,3.8528,3.8583,3.8678,3.8805,3.8914,3.9023,3.9131,3.9309,3.9415,3.952,3.9573,3.9398,3.9222,3.9023,3.8969,3.8985,3.8931,3.8985,3.8969,2.9865,2.9908,2.9729,2.9435,2.909,2.9287,2.9393,2.9422,2.9677,2.9923,3.0259,3.064,3.1059,3.1475,3.1622,3.2073,3.276,3.3285,3.3643,3.3971,3.4315,3.4561,3.4594,3.4594,3.4594,3.4611,3.4643,3.4627,3.4594,3.4594,3.4562,3.4399,3.4151,3.3949,3.3949,3.405,3.405,3.4101,3.4151,3.4201,3.4201,3.4101,3.4066,3.405,3.3949,3.3899,3.3848,3.3848,3.3694,3.3607,3.3503,3.333,3.3156,3.3102,3.2958,3.285,3.285,3.2703,3.2459,3.1985,3.1674,3.1812,3.1782,3.2079,3.2716,3.3102,3.3502,3.4159,3.4703,3.5175,3.5533,3.5752,3.5928,3.607,3.6196,3.6336,3.6461,3.66,3.6708,3.6907,3.7029,3.7089,3.721,3.7405,3.721,3.7058,3.7254,3.7508,3.7786,3.8017,3.8246,3.8415,3.8511,3.8623,3.8766,3.886,3.8952,3.9007,3.9131,3.9239,3.9345,3.952,3.9625,3.9729,3.9849,3.9935,3.9969,4.002,3.985,3.9556,3.9451,3.9398,3.9398,3.9345,3.9398,3.0625,3.0666,3.0788,3.046,2.9881,2.9995,3.0097,3.014,3.0342,3.051,3.0584,3.0617,3.0908,3.1425,3.1558,3.19,3.2634,3.3301,3.3723,3.4205,3.4705,3.5068,3.5118,3.5118,3.5118,3.5135,3.5168,3.5168,3.5102,3.5118,3.5071,3.4961,3.4723,3.4578,3.4399,3.4448,3.4497,3.4497,3.4546,3.4611,3.4611,3.4562,3.4513,3.4448,3.4399,3.4349,3.4349,3.43,3.4201,3.405,3.3949,3.3797,3.3694,3.3607,3.345,3.3398,3.3324,3.325,3.3154,3.2767,3.2703,3.2987,3.3108,3.3471,3.4046,3.4529,3.4725,3.5118,3.5652,3.607,3.6226,3.6336,3.6507,3.6631,3.6693,3.6831,3.6968,3.7165,3.727,3.7389,3.7508,3.761,3.7727,3.786,3.7786,3.7653,3.7801,3.8033,3.823,3.8455,3.8639,3.886,3.9023,3.9077,3.9169,3.9345,3.9451,3.9451,3.9556,3.9661,3.9781,3.9935,4.0037,4.0138,4.0188,4.0337,4.0337,4.0271,4.0121,3.9918,3.9867,3.9764,3.9729,3.9729,3.9833,3.1372,3.1466,3.1466,3.1162,3.0649,3.0723,3.0747,3.0788,3.0942,3.11,3.124,3.124,3.1334,3.1509,3.1499,3.1834,3.2405,3.3085,3.3702,3.4361,3.4986,3.5425,3.5577,3.5577,3.5622,3.5577,3.5622,3.5577,3.556,3.556,3.556,3.556,3.5453,3.5287,3.493,3.4916,3.4916,3.4899,3.4947,3.503,3.493,3.493,3.4899,3.4899,3.4883,3.4883,3.4835,3.4771,3.4675,3.4546,3.4399,3.43,3.4151,3.4101,3.4,3.3899,3.3912,3.4146,3.4457,3.388,3.4001,3.4334,3.4442,3.4781,3.526,3.5584,3.5768,3.6153,3.6538,3.6662,3.68,3.6862,3.7029,3.7134,3.7194,3.7314,3.7508,3.7642,3.7759,3.7844,3.8001,3.8116,3.823,3.8286,3.8343,3.8286,3.8319,3.8488,3.875,3.8914,3.9077,3.9309,3.9468,3.9573,3.9661,3.9781,3.9901,3.9901,3.9986,4.0087,4.0188,4.0355,4.0453,4.0502,4.0583,4.0662,4.0566,4.0517,4.0419,4.037,4.0188,4.0087,4.0037,4.0037,4.0138,3.2056,3.2109,3.2214,3.2127,3.1896,3.1507,3.1355,3.1414,3.1565,3.1714,3.1768,3.175,3.1804,3.1804,3.1821,3.1903,3.2156,3.2823,3.3539,3.4213,3.5,3.56,3.5874,3.6011,3.6088,3.6088,3.6045,3.6045,3.6045,3.6088,3.6088,3.6088,3.6028,3.5854,3.5757,3.5836,3.6101,3.5774,3.5898,3.6038,3.5537,3.5424,3.535,3.535,3.535,3.535,3.535,3.5287,3.5195,3.5024,3.493,3.4835,3.4659,3.4659,3.4578,3.4513,3.4658,3.5484,3.6066,3.6102,3.5927,3.589,3.577,3.6052,3.6648,3.6773,3.6946,3.704,3.7134,3.7254,3.7329,3.7405,3.7524,3.7685,3.7727,3.7828,3.7943,3.8091,3.8221,3.8303,3.8399,3.8567,3.8678,3.8843,3.8843,3.8952,3.8969,3.904,3.9202,3.9345,3.952,3.9729,3.9901,4.0003,4.0104,4.0255,4.0355,4.0387,4.0453,4.0551,4.0648,4.0745,4.0793,4.0888,4.0918,4.0995,4.0948,4.0901,4.0918,4.0823,4.0614,4.0436,4.0387,4.0337,4.0387,3.2619,3.2619,3.2752,3.277,3.2687,3.2162,3.1966,3.2039,3.2162,3.2214,3.2231,3.2248,3.2283,3.2283,3.2248,3.2214,3.2249,3.2875,3.3308,3.4015,3.4948,3.5573,3.6024,3.6446,3.655,3.6568,3.655,3.655,3.6568,3.6568,3.655,3.655,3.6533,3.6451,3.6422,3.65,3.6422,3.6174,3.6302,3.6361,3.6053,3.5881,3.5827,3.5827,3.5827,3.5844,3.5827,3.5783,3.5694,3.5577,3.5458,3.5383,3.5261,3.5352,3.534,3.5462,3.6075,3.6828,3.7343,3.7861,3.7627,3.7487,3.7254,3.7323,3.7632,3.7706,3.7722,3.7727,3.7727,3.7786,3.7918,3.7934,3.7976,3.8148,3.8246,3.8327,3.8439,3.86,3.8694,3.8788,3.8898,3.9077,3.9239,3.9345,3.9398,3.9556,3.9677,3.9694,3.9746,3.9833,3.9986,4.0138,4.0305,4.0387,4.0485,4.0631,4.0745,4.0793,4.0888,4.0982,4.1076,4.1152,4.1215,4.1261,4.129,4.13,4.13,4.1318,4.1272,4.1244,4.1088,4.0918,4.0728,4.0728,4.071,3.3147,3.3117,3.3147,3.3147,3.3068,3.2798,3.2654,3.2621,3.2621,3.2636,3.2734,3.2734,3.2766,3.2816,3.2766,3.2702,3.274,3.3263,3.353,3.404,3.5043,3.5586,3.6127,3.6658,3.6939,3.7027,3.7027,3.7009,3.7009,3.7009,3.7009,3.7009,3.7009,3.6992,3.6965,3.6864,3.6684,3.6632,3.6793,3.6752,3.6509,3.635,3.6326,3.6343,3.6326,3.6301,3.6284,3.6241,3.6114,3.6002,3.5915,3.5834,3.5938,3.6412,3.6481,3.688,3.7653,3.8,3.8396,3.8911,3.906,3.8813,3.8603,3.8528,3.8375,3.8432,3.8359,3.8359,3.8359,3.8432,3.8448,3.8432,3.8472,3.8639,3.875,3.8843,3.9007,3.9115,3.9206,3.9329,3.9398,3.9573,3.9764,3.9867,3.9918,4.0121,4.0271,4.0303,4.032,4.0305,4.0436,4.0583,4.0697,4.0776,4.0871,4.1012,4.1105,4.1198,4.1335,4.1426,4.1471,4.156,4.1648,4.1692,4.1631,4.1631,4.1701,4.1675,4.1648,4.1604,4.1542,4.138,4.1198,4.1134,4.1117,3.3743,3.3743,3.3743,3.3762,3.3734,3.3634,3.3408,3.3068,3.3117,3.3196,3.3196,3.3196,3.3208,3.3244,3.3226,3.3147,3.3158,3.3275,3.3609,3.4204,3.4939,3.5652,3.6327,3.6932,3.7323,3.7429,3.7429,3.7429,3.7429,3.7429,3.7429,3.7447,3.7429,3.7449,3.7449,3.7394,3.7246,3.7182,3.7439,3.7255,3.7005,3.6816,3.6794,3.6794,3.6794,3.6811,3.6753,3.6736,3.6615,3.6451,3.6409,3.6456,3.7006,3.7202,3.7449,3.8452,3.8804,3.8975,3.9463,3.9732,3.985,3.9833,3.9644,3.9329,3.9169,3.9007,3.9023,3.8969,3.9023,3.9023,3.9007,3.9007,3.9007,3.9115,3.9276,3.9435,3.954,3.9696,3.9799,3.985,3.9935,4.007,4.0271,4.032,4.0402,4.0662,4.0806,4.0884,4.0884,4.0871,4.0888,4.1029,4.1105,4.118,4.1226,4.138,4.1471,4.1604,4.1692,4.1805,4.1849,4.1934,4.2061,4.2061,4.2019,4.2061,4.2103,4.2061,4.2037,4.2079,4.2037,4.1823,4.1648,4.1542,4.148,3.4161,3.4173,3.4154,3.4154,3.4148,3.4148,3.3954,3.3716,3.3652,3.3633,3.3615,3.3643,3.3615,3.3605,3.3587,3.3559,3.3473,3.3452,3.3599,3.3906,3.4709,3.5382,3.6175,3.6949,3.7416,3.7631,3.7774,3.7774,3.781,3.781,3.7774,3.7774,3.781,3.7792,3.7827,3.7845,3.7845,3.7829,3.7844,3.7751,3.7534,3.7299,3.7241,3.7241,3.7259,3.7241,3.7241,3.7241,3.7108,3.6913,3.6891,3.7178,3.7808,3.8192,3.8936,3.9846,3.9932,3.9993,4.0283,4.0368,4.0419,4.0419,4.0436,4.0204,3.9952,3.9731,3.9627,3.9575,3.9592,3.9592,3.9575,3.9523,3.9523,3.9575,3.9747,3.9969,4.0121,4.0271,4.032,4.037,4.0468,4.0566,4.0662,4.0741,4.0836,4.1134,4.1318,4.1408,4.1346,4.1318,4.1335,4.138,4.1471,4.1542,4.1631,4.1719,4.1805,4.1934,4.2061,4.2127,4.2228,4.231,4.2351,4.2391,4.2391,4.2391,4.2432,4.2409,4.2369,4.245,4.245,4.2287,4.2061,4.1892,4.1849,3.4433,3.4431,3.4439,3.4458,3.4431,3.4547,3.4581,3.4521,3.4457,3.4203,3.4086,3.4042,3.3998,3.3947,3.3939,3.3895,3.3815,3.378,3.3726,3.3706,3.4524,3.5272,3.5973,3.6612,3.7482,3.7935,3.8135,3.8135,3.8135,3.8135,3.8153,3.8135,3.8135,3.8135,3.8168,3.8238,3.8219,3.8241,3.8056,3.7899,3.7757,3.765,3.7649,3.7667,3.7667,3.7595,3.7613,3.7594,3.7558,3.741,3.7509,3.7768,3.8719,3.9546,4.0463,4.0791,4.0834,4.0827,4.0913,4.0965,4.0965,4.0965,4.0918,4.0901,4.0693,4.0353,4.0154,4.0154,4.0154,4.0171,4.0154,4.0154,4.0154,4.0204,4.0353,4.0517,4.0614,4.0758,4.0901,4.0948,4.0948,4.1041,4.1163,4.1237,4.1346,4.1587,4.178,4.1849,4.1892,4.1805,4.178,4.1823,4.1849,4.1934,4.2019,4.2103,4.2187,4.2269,4.2374,4.2472,4.257,4.2591,4.2631,4.267,4.2747,4.2709,4.267,4.2688,4.2709,4.2709,4.2727,4.2688,4.2512,4.2351,4.2187,3.4787,3.4772,3.4773,3.4773,3.4866,3.551,3.5775,3.5831,3.6375,3.5691,3.4507,3.4354,3.433,3.4405,3.4357,3.4271,3.4173,3.4124,3.4049,3.4231,3.4723,3.545,3.6201,3.6948,3.7705,3.8253,3.8491,3.8473,3.8491,3.851,3.8528,3.8491,3.8491,3.8491,3.8491,3.8541,3.8541,3.8541,3.8428,3.8231,3.808,3.8034,3.8002,3.809,3.8108,3.7949,3.7915,3.788,3.7774,3.7685,3.8293,3.9126,4.0326,4.1078,4.1462,4.1648,4.1525,4.1453,4.1408,4.1426,4.1426,4.1426,4.1426,4.1426,4.129,4.0901,4.0728,4.0728,4.0728,4.0728,4.068,4.0728,4.0728,4.0823,4.0901,4.0995,4.1041,4.1226,4.1408,4.1426,4.1426,4.1542,4.1657,4.1788,4.1892,4.2019,4.2187,4.2269,4.231,4.2269,4.2269,4.2269,4.2228,4.231,4.2351,4.2432,4.253,4.2631,4.2709,4.2804,4.2899,4.2918,4.29,4.3013,4.305,4.2975,4.2956,4.3068,4.3068,4.2975,4.2938,4.2918,4.2956,4.2824,4.2591,3.5039,3.5094,3.5473,3.5625,3.5778,3.6501,3.6881,3.6938,3.7338,3.6939,3.5964,3.5746,3.5531,3.5246,3.5108,3.4798,3.4645,3.4431,3.434,3.4511,3.5132,3.5799,3.6535,3.7313,3.8079,3.8641,3.8789,3.8826,3.8826,3.8844,3.8844,3.8826,3.8826,3.8844,3.8826,3.8826,3.8826,3.8844,3.8826,3.87,3.848,3.8423,3.8437,3.851,3.8409,3.8303,3.8219,3.8223,3.8339,3.8778,3.9608,4.0291,4.122,4.1797,4.2121,4.2145,4.2061,4.1892,4.1892,4.1892,4.1892,4.1892,4.1909,4.1909,4.1909,4.1569,4.1408,4.1363,4.1244,4.1198,4.1198,4.1198,4.1198,4.129,4.1363,4.1453,4.1631,4.1762,4.1892,4.1909,4.1934,4.1977,4.2086,4.2169,4.231,4.2432,4.257,4.267,4.2709,4.2709,4.2688,4.2688,4.2631,4.267,4.2765,4.2804,4.2842,4.2956,4.2994,4.3031,4.3068,4.3142,4.3214,4.3196,4.3196,4.3178,4.3178,4.3251,4.3214,4.3142,4.3142,4.3178,4.3178,4.3178,4.2975,3.5239,3.5372,3.6157,3.652,3.6673,3.7515,3.7898,3.7917,3.8032,3.8108,3.8016,3.7852,3.7242,3.6557,3.627,3.5718,3.5392,3.5503,3.5192,3.5262,3.5706,3.6494,3.7175,3.7779,3.8428,3.8904,3.91,3.9137,3.9137,3.9137,3.9137,3.9137,3.9137,3.9156,3.9156,3.9156,3.9137,3.9137,3.9119,3.9082,3.8924,3.8799,3.8829,3.8793,3.8726,3.8572,3.8541,3.8716,3.8998,3.9719,4.0724,4.1524,4.1995,4.2443,4.2564,4.2631,4.2472,4.2374,4.2351,4.2369,4.2369,4.2369,4.2369,4.2369,4.2328,4.2246,4.2019,4.1934,4.1823,4.1692,4.1692,4.1692,4.1692,4.1736,4.1805,4.1934,4.2121,4.2287,4.2328,4.2369,4.2369,4.2391,4.2472,4.2609,4.2688,4.2804,4.2918,4.2994,4.3031,4.2994,4.2994,4.2994,4.2994,4.3049,4.3086,4.3086,4.3068,4.316,4.3178,4.3214,4.3251,4.3286,4.3322,4.3268,4.3268,4.3286,4.3286,4.3304,4.3286,4.3305,4.3286,4.3322,4.3322,4.3304,4.3251,3.5432,3.5496,3.6381,3.6738,3.694,3.8251,3.8904,3.9039,3.965,3.9957,3.9807,3.9753,3.9057,3.741,3.7394,3.7072,3.673,3.6691,3.6861,3.699,3.6911,3.7448,3.7985,3.8348,3.8788,3.9152,3.9427,3.9427,3.9502,3.9464,3.9446,3.9502,3.952,3.952,3.9502,3.9558,3.9689,3.9745,3.9689,3.967,3.9462,3.933,3.9166,3.91,3.9071,3.8929,3.898,3.9436,3.9656,4.0272,4.1321,4.2365,4.2845,4.3014,4.3069,4.305,4.2882,4.2806,4.2786,4.2786,4.2786,4.2727,4.2688,4.2649,4.2649,4.2667,4.253,4.253,4.2409,4.2187,4.2187,4.2145,4.2163,4.2187,4.2269,4.2351,4.249,4.2609,4.2688,4.2727,4.2727,4.2804,4.2899,4.2956,4.3013,4.3105,4.3142,4.3214,4.3251,4.3251,4.3251,4.3269,4.3305,4.3233,4.3196,4.3214,4.3251,4.3286,4.3376,4.3393,4.3428,4.3463,4.3463,4.3463,4.3463,4.3481,4.3463,4.3574,4.3538,4.3593,4.3499,4.3444,4.341,4.341,4.3358]},{"header":{"parameterUnit":"m.s-1","parameterCategory":1,"la1":31.0,"la2":29.5877,"lo1":-88.7671,"lo2":-86.6584,"dy":0.0162,"dx":0.0185,"nx":115,"ny":88,"refTime":"2023-10-05T12:00:00:Z","depth":0,"parameterNumber":3,"parameterNumberName":"V-component_of_WINDS"},"data":[0.0,0.0,0.0,0.0,0.0,0.0,0.0,0.0,0.0,0.0,0.0,0.0,0.0,0.0,0.0,0.0,0.0,0.0,0.0,0.0,0.0,0.0,0.0,0.0,0.0,0.0,0.0,0.0,0.0,0.0,0.0,0.0,0.0,0.0,0.0,0.0,0.0,0.0,0.0,0.0,0.0,0.0,0.0,0.0,0.0,0.0,0.0,0.0,0.0,0.0,0.0,0.0,0.0,0.0,0.0,0.0,0.0,0.0,0.0,0.0,0.0,0.0,0.0,0.0,0.0,0.0,0.0,0.0,0.0,0.0,0.0,0.0,0.0,0.0,0.0,0.0,0.0,0.0,0.0,0.0,0.0,0.0,0.0,0.0,0.0,0.0,0.0,0.0,0.0,0.0,0.0,0.0,0.0,0.0,0.0,0.0,0.0,0.0,0.0,0.0,0.0,0.0,0.0,0.0,0.0,0.0,0.0,0.0,0.0,0.0,0.0,0.0,0.0,0.0,0.0,0.0,0.0,0.0,0.0,0.0,0.0,0.0,0.0,0.0,0.0,0.0,0.0,0.0,0.0,0.0,0.0,0.0,0.0,0.0,0.0,0.0,0.0,0.0,0.0,0.0,0.0,0.0,0.0,0.0,0.0,0.0,0.0,0.0,0.0,0.0,0.0,0.0,0.0,0.0,0.0,0.0,0.0,0.0,0.0,0.0,0.0,0.0,0.0,0.0,0.0,0.0,0.0,0.0,0.0,0.0,0.0,0.0,0.0,0.0,0.0,0.0,0.0,0.0,0.0,0.0,0.0,0.0,0.0,0.0,0.0,0.0,0.0,0.0,0.0,0.0,0.0,0.0,0.0,0.0,0.0,0.0,0.0,0.0,0.0,0.0,0.0,0.0,0.0,0.0,0.0,0.0,0.0,0.0,0.0,0.0,0.0,0.0,0.0,0.0,0.0,0.0,0.0,0.0,0.0,0.0,0.0,0.0,0.0,0.0,0.0,0.0,0.0,0.0,0.0,0.0,0.0,0.0,0.0,0.0,0.0,0.0,0.0,0.0,0.0,0.0,0.0,0.0,0.0,0.0,0.0,0.0,0.0,0.0,0.0,0.0,0.0,0.0,0.0,0.0,0.0,0.0,0.0,0.0,0.0,0.0,0.0,0.0,0.0,0.0,0.0,0.0,0.0,0.0,0.0,0.0,0.0,0.0,0.0,0.0,0.0,0.0,0.0,0.0,0.0,0.0,0.0,0.0,0.0,0.0,0.0,0.0,0.0,0.0,0.0,0.0,0.0,0.0,0.0,0.0,0.0,0.0,0.0,0.0,0.0,0.0,0.0,0.0,0.0,0.0,0.0,0.0,0.0,0.0,0.0,0.0,0.0,0.0,0.0,0.0,0.0,0.0,0.0,0.0,0.0,0.0,0.0,0.0,0.0,0.0,0.0,0.0,0.0,0.0,0.0,0.0,0.0,0.0,0.0,0.0,0.0,0.0,0.0,0.0,0.0,0.0,0.0,0.0,0.0,0.0,0.0,0.0,0.0,0.0,0.0,0.0,0.0,0.0,0.0,0.0,0.0,0.0,0.0,0.0,0.0,0.0,0.0,0.0,0.0,0.0,0.0,0.0,0.0,0.0,0.0,0.0,0.0,0.0,0.0,0.0,0.0,0.0,0.0,0.0,0.0,0.0,0.0,0.0,0.0,0.0,0.0,0.0,0.0,0.0,0.0,0.0,0.0,0.0,0.0,0.0,0.0,0.0,0.0,0.0,0.0,0.0,0.0,0.0,0.0,0.0,0.0,0.0,0.0,0.0,0.0,0.0,0.0,0.0,0.0,0.0,0.0,0.0,0.0,0.0,0.0,0.0,0.0,0.0,0.0,0.0,0.0,0.0,0.0,0.0,0.0,0.0,0.0,0.0,0.0,0.0,0.0,0.0,0.0,0.0,0.0,0.0,0.0,0.0,0.0,0.0,0.0,0.0,0.0,0.0,0.0,0.0,0.0,0.0,0.0,0.0,0.0,0.0,0.0,0.0,0.0,0.0,0.0,0.0,0.0,0.0,0.0,0.0,0.0,0.0,0.0,0.0,0.0,0.0,0.0,0.0,0.0,0.0,0.0,0.0,0.0,0.0,0.0,0.0,0.0,0.0,0.0,0.0,0.0,0.0,0.0,0.0,0.0,0.0,0.0,0.0,0.0,0.0,0.0,0.0,0.0,0.0,0.0,0.0,0.0,0.0,0.0,0.0,0.0,0.0,0.0,0.0,0.0,0.0,0.0,0.0,0.0,0.0,0.0,0.0,0.0,0.0,0.0,0.0,0.0,0.0,0.0,0.0,0.0,0.0,0.0,0.0,0.0,0.0,0.0,0.0,0.0,0.0,0.0,0.0,0.0,0.0,0.0,0.0,0.0,0.0,0.0,0.0,0.0,0.0,0.0,0.0,0.0,0.0,0.0,0.0,0.0,0.0,0.0,0.0,0.0,0.0,0.0,0.0,0.0,0.0,0.0,0.0,0.0,0.0,0.0,0.0,0.0,0.0,0.0,0.0,0.0,0.0,0.0,0.0,0.0,0.0,0.0,0.0,0.0,0.0,0.0,0.0,0.0,0.0,0.0,0.0,0.0,0.0,0.0,0.0,0.0,0.0,0.0,0.0,0.0,0.0,0.0,0.0,0.0,0.0,0.0,0.0,0.0,0.0,0.0,0.0,0.0,0.0,0.0,0.0,0.0,0.0,0.0,0.0,0.0,0.0,0.0,0.0,0.0,0.0,0.0,0.0,0.0,0.0,0.0,0.0,0.0,0.0,0.0,0.0,0.0,0.0,0.0,0.0,0.0,0.0,0.0,0.0,0.0,0.0,0.0,0.0,0.0,0.0,0.0,0.0,0.0,0.0,0.0,0.0,0.0,0.0,0.0,0.0,0.0,0.0,0.0,0.0,0.0,0.0,0.0,0.0,0.0,0.0,0.0,0.0,0.0,0.0,0.0,0.0,0.0,0.0,0.0,0.0,0.0,0.0,0.0,0.0,0.0,0.0,0.0,0.0,0.0,0.0,0.0,0.0,0.0,0.0,0.0,0.0,0.0,0.0,0.0,0.0,0.0,0.0,0.0,0.0,0.0,0.0,0.0,0.0,0.0,0.0,0.0,0.0,0.0,0.0,0.0,0.0,0.0,0.0,0.0,0.0,0.0,0.0,0.0,0.0,0.0,0.0,0.0,0.0,0.0,0.0,0.0,0.0,0.0,0.0,0.0,0.0,0.0,0.0,0.0,0.0,0.0,0.0,0.0,0.0,0.0,0.0,0.0,0.0,0.0,0.0,0.0,0.0,0.0,0.0,0.0,0.0,0.0,0.0,0.0,0.0,0.0,0.0,0.0,0.0,0.0,0.0,0.0,0.0,0.0,0.0,0.0,0.0,0.0,0.0,0.0,0.0,0.0,0.0,0.0,0.0,0.0,0.0,0.0,0.0,0.0,0.0,0.0,0.0,0.0,0.0,0.0,0.0,0.0,0.0,0.0,0.0,0.0,0.0,0.0,0.0,0.0,0.0,0.0,0.0,0.0,0.0,0.0,0.0,0.0,0.0,0.0,0.0,0.0,0.0,0.0,0.0,0.0,0.0,0.0,0.0,0.0,0.0,0.0,0.0,0.0,0.0,0.0,0.0,0.0,0.0,0.0,0.0,0.0,0.0,0.0,0.0,0.0,0.0,0.0,0.0,0.0,0.0,0.0,0.0,0.0,0.0,0.0,0.0,0.0,0.0,0.0,0.0,0.0,0.0,0.0,0.0,0.0,0.0,0.0,0.0,0.0,0.0,0.0,0.0,0.0,0.0,0.0,0.0,0.0,0.0,0.0,0.0,0.0,0.0,0.0,0.0,0.0,0.0,0.0,0.0,0.0,0.0,0.0,0.0,0.0,0.0,0.0,0.0,0.0,0.0,0.0,0.0,0.0,0.0,0.0,0.0,0.0,0.0,0.0,0.0,0.0,0.0,0.0,0.0,0.0,0.0,0.0,0.0,0.0,0.0,0.0,0.0,0.0,0.0,0.0,0.0,0.0,0.0,0.0,0.0,0.0,0.0,0.0,0.0,0.0,0.0,0.0,0.0,0.0,0.0,0.0,0.0,0.0,0.0,0.0,0.0,0.0,0.0,0.0,0.0,0.0,0.0,0.0,0.0,0.0,0.0,0.0,0.0,0.0,0.0,0.0,0.0,0.0,0.0,0.0,0.0,0.0,0.0,0.0,0.0,0.0,0.0,0.0,0.0,0.0,0.0,0.0,0.0,-0.744,0.0,0.0,0.0,0.0,0.0,0.0,0.0,0.0,0.0,0.0,0.0,0.0,0.0,0.0,0.0,0.0,0.0,0.0,0.0,0.0,0.0,0.0,0.0,0.0,0.0,0.0,0.0,0.0,0.0,0.0,0.0,0.0,0.0,0.0,0.0,0.0,0.0,0.0,0.0,0.0,0.0,0.0,0.0,0.0,0.0,0.0,0.0,0.0,0.0,0.0,0.0,0.0,0.0,0.0,0.0,0.0,0.0,0.0,0.0,0.0,0.0,0.0,0.0,0.0,0.0,0.0,0.0,0.0,0.0,0.0,0.0,0.0,0.0,0.0,0.0,0.0,0.0,0.0,0.0,0.0,0.0,0.0,0.0,0.0,0.0,0.0,0.0,0.0,0.0,0.0,0.0,0.0,0.0,0.0,0.0,0.0,0.0,0.0,0.0,0.0,0.0,0.0,0.0,0.0,0.0,0.0,0.0,0.0,0.0,0.0,-0.8304,-0.8109,-0.8298,-0.8249,-0.8022,0.0,0.0,0.0,0.0,0.0,0.0,0.0,0.0,0.0,0.0,0.0,0.0,0.0,0.0,0.0,0.0,0.0,0.0,0.0,0.0,0.0,0.0,0.0,0.0,0.0,0.0,0.0,0.0,0.0,0.0,0.0,0.0,0.0,0.0,0.0,0.0,0.0,0.0,0.0,0.0,0.0,0.0,0.0,0.0,0.0,0.0,0.0,0.0,0.0,0.0,0.0,0.0,0.0,0.0,0.0,0.0,0.0,0.0,0.0,0.0,0.0,0.0,0.0,0.0,0.0,0.0,0.0,0.0,0.0,0.0,0.0,0.0,0.0,0.0,0.0,0.0,0.0,0.0,0.0,0.0,0.0,0.0,0.0,0.0,0.0,0.0,0.0,0.0,0.0,0.0,0.0,0.0,0.0,0.0,0.0,0.0,0.0,0.0,0.0,0.0,0.0,0.0,0.0,0.0,0.0,0.0,0.0,0.0,0.0,0.0,0.0,0.0,-0.876,-0.8738,-0.8443,0.0,0.0,0.0,0.0,0.0,0.0,0.0,0.0,0.0,0.0,0.0,0.0,0.0,0.0,0.0,0.0,0.0,0.0,0.0,0.0,0.0,0.0,0.0,0.0,0.0,0.0,0.0,0.0,0.0,0.0,0.0,0.0,0.0,0.0,0.0,0.0,0.0,0.0,0.0,0.0,0.0,0.0,0.0,0.0,0.0,0.0,0.0,0.0,0.0,0.0,0.0,0.0,0.0,0.0,0.0,0.0,0.0,0.0,0.0,0.0,0.0,0.0,0.0,0.0,0.0,0.0,0.0,0.0,0.0,0.0,0.0,0.0,0.0,0.0,0.0,0.0,0.0,0.0,0.0,0.0,0.0,0.0,0.0,0.0,0.0,0.0,0.0,0.0,0.0,0.0,0.0,0.0,0.0,0.0,0.0,0.0,0.0,0.0,0.0,0.0,0.0,0.0,0.0,0.0,0.0,0.0,0.0,0.0,0.0,0.0,-0.9071,-0.9176,-0.9084,0.0,-0.8588,0.0,0.0,0.0,0.0,0.0,0.0,0.0,0.0,0.0,0.0,0.0,0.0,0.0,0.0,0.0,0.0,0.0,0.0,0.0,0.0,0.0,0.0,0.0,0.0,0.0,0.0,0.0,0.0,0.0,0.0,0.0,0.0,0.0,0.0,0.0,0.0,0.0,0.0,0.0,0.0,0.0,0.0,0.0,0.0,0.0,0.0,0.0,0.0,0.0,0.0,0.0,0.0,0.0,0.0,0.0,0.0,0.0,0.0,0.0,0.0,0.0,0.0,0.0,0.0,0.0,0.0,0.0,0.0,0.0,0.0,0.0,0.0,0.0,0.0,0.0,0.0,0.0,0.0,0.0,0.0,0.0,0.0,0.0,0.0,0.0,0.0,0.0,0.0,0.0,0.0,0.0,0.0,0.0,0.0,0.0,0.0,0.0,0.0,0.0,0.0,0.0,0.0,0.0,0.0,0.0,0.0,0.0,0.0,0.0,0.0,-0.961,-0.9846,-0.9617,-0.9445,0.0,0.0,0.0,0.0,0.0,0.0,0.0,0.0,0.0,0.0,0.0,0.0,0.0,0.0,0.0,0.0,0.0,0.0,0.0,0.0,0.0,0.0,0.0,0.0,0.0,0.0,0.0,0.0,0.0,0.0,0.0,0.0,0.0,0.0,0.0,0.0,0.0,0.0,0.0,0.0,0.0,0.0,0.0,0.0,0.0,0.0,0.0,0.0,0.0,0.0,0.0,0.0,0.0,0.0,0.0,0.0,0.0,0.0,0.0,0.0,0.0,0.0,0.0,0.0,0.0,0.0,0.0,0.0,0.0,0.0,0.0,0.0,0.0,0.0,0.0,0.0,0.0,0.0,0.0,0.0,0.0,0.0,0.0,0.0,0.0,0.0,0.0,0.0,0.0,0.0,0.0,0.0,0.0,0.0,0.0,0.0,0.0,0.0,0.0,0.0,0.0,0.0,0.0,0.0,0.0,0.0,0.0,0.0,0.0,0.0,-0.9909,-1.0177,-1.048,-1.0299,-1.0199,-1.0159,0.0,0.0,0.0,0.0,0.0,0.0,0.0,0.0,0.0,0.0,0.0,0.0,0.0,0.0,0.0,0.0,0.0,0.0,0.0,0.0,0.0,0.0,0.0,0.0,0.0,0.0,0.0,0.0,0.0,0.0,0.0,0.0,0.0,0.0,0.0,0.0,0.0,0.0,0.0,0.0,0.0,0.0,0.0,0.0,0.0,0.0,0.0,0.0,0.0,0.0,0.0,0.0,0.0,0.0,0.0,0.0,0.0,0.0,0.0,0.0,0.0,0.0,0.0,0.0,0.0,0.0,0.0,0.0,0.0,0.0,0.0,0.0,0.0,0.0,0.0,0.0,0.0,0.0,0.0,0.0,0.0,0.0,0.0,0.0,0.0,0.0,0.0,0.0,0.0,0.0,0.0,0.0,0.0,0.0,0.0,0.0,0.0,0.0,0.0,0.0,0.0,0.0,0.0,0.0,0.0,0.0,0.0,0.0,-1.0079,-1.0308,-1.069,-1.1346,-1.108,-1.0923,0.0,0.0,0.0,0.0,0.0,0.0,0.0,0.0,0.0,0.0,0.0,0.0,0.0,0.0,0.0,0.0,0.0,0.0,0.0,0.0,0.0,0.0,0.0,0.0,0.0,0.0,0.0,0.0,0.0,0.0,0.0,0.0,0.0,0.0,0.0,0.0,0.0,0.0,0.0,0.0,0.0,0.0,0.0,0.0,0.0,0.0,0.0,0.0,0.0,0.0,0.0,0.0,0.0,0.0,0.0,0.0,0.0,0.0,0.0,0.0,0.0,0.0,0.0,0.0,0.0,0.0,0.0,0.0,0.0,0.0,0.0,0.0,0.0,0.0,0.0,0.0,0.0,0.0,0.0,0.0,0.0,0.0,0.0,0.0,0.0,0.0,0.0,0.0,0.0,0.0,0.0,0.0,0.0,0.0,0.0,0.0,0.0,0.0,0.0,0.0,0.0,0.0,0.0,0.0,0.0,0.0,0.0,0.0,0.0,-1.085,-1.158,-1.2054,-1.2285,-1.1904,-1.175,0.0,0.0,0.0,0.0,0.0,0.0,0.0,0.0,0.0,0.0,0.0,0.0,0.0,0.0,0.0,0.0,0.0,0.0,0.0,0.0,0.0,0.0,0.0,0.0,0.0,0.0,0.0,0.0,0.0,0.0,0.0,0.0,0.0,0.0,0.0,0.0,0.0,0.0,0.0,0.0,0.0,0.0,0.0,0.0,0.0,0.0,0.0,0.0,0.0,0.0,0.0,0.0,0.0,0.0,0.0,0.0,0.0,0.0,0.0,0.0,0.0,0.0,0.0,0.0,0.0,0.0,0.0,0.0,0.0,0.0,0.0,0.0,0.0,0.0,0.0,0.0,0.0,0.0,0.0,0.0,0.0,0.0,0.0,0.0,0.0,0.0,0.0,0.0,0.0,0.0,0.0,0.0,0.0,0.0,0.0,0.0,0.0,0.0,0.0,0.0,0.0,0.0,0.0,0.0,0.0,0.0,0.0,0.0,0.0,-1.1807,0.0,-1.3277,-1.3381,-1.2831,-1.2593,0.0,0.0,0.0,0.0,0.0,0.0,0.0,0.0,0.0,0.0,0.0,0.0,0.0,0.0,0.0,0.0,0.0,0.0,0.0,0.0,0.0,0.0,0.0,0.0,0.0,0.0,0.0,0.0,0.0,0.0,0.0,0.0,0.0,0.0,0.0,0.0,0.0,0.0,0.0,0.0,0.0,0.0,0.0,0.0,0.0,0.0,0.0,0.0,0.0,0.0,0.0,0.0,0.0,0.0,0.0,0.0,0.0,0.0,0.0,0.0,0.0,0.0,0.0,0.0,0.0,0.0,0.0,0.0,0.0,0.0,0.0,0.0,0.0,0.0,0.0,0.0,0.0,0.0,0.0,0.0,0.0,0.0,0.0,0.0,0.0,0.0,0.0,0.0,0.0,0.0,0.0,0.0,0.0,0.0,0.0,0.0,0.0,0.0,0.0,0.0,0.0,0.0,0.0,0.0,0.0,0.0,0.0,0.0,-1.1757,-1.2922,-1.3798,-1.4401,-1.4688,-1.3961,-1.3584,0.0,0.0,0.0,0.0,0.0,0.0,0.0,0.0,0.0,0.0,0.0,0.0,0.0,0.0,0.0,0.0,0.0,0.0,0.0,0.0,0.0,0.0,0.0,0.0,0.0,0.0,0.0,0.0,0.0,0.0,0.0,0.0,0.0,0.0,0.0,0.0,0.0,0.0,0.0,0.0,0.0,0.0,0.0,0.0,0.0,0.0,0.0,0.0,0.0,0.0,0.0,0.0,0.0,0.0,0.0,0.0,0.0,0.0,0.0,0.0,0.0,0.0,0.0,0.0,0.0,0.0,0.0,0.0,0.0,0.0,0.0,0.0,0.0,0.0,0.0,0.0,0.0,0.0,0.0,0.0,0.0,0.0,0.0,0.0,0.0,0.0,0.0,0.0,0.0,0.0,0.0,0.0,0.0,0.0,0.0,0.0,0.0,0.0,0.0,0.0,0.0,0.0,0.0,0.0,0.0,0.0,0.0,0.0,0.0,-1.473,-1.5305,-1.5718,-1.5918,-1.5097,-1.4746,0.0,0.0,0.0,0.0,0.0,0.0,0.0,0.0,0.0,0.0,0.0,0.0,0.0,0.0,0.0,0.0,0.0,0.0,0.0,0.0,0.0,0.0,0.0,0.0,0.0,0.0,0.0,0.0,0.0,0.0,0.0,0.0,0.0,0.0,0.0,0.0,0.0,0.0,0.0,0.0,0.0,0.0,0.0,0.0,0.0,0.0,0.0,0.0,0.0,0.0,0.0,0.0,0.0,0.0,0.0,0.0,0.0,0.0,0.0,0.0,0.0,0.0,0.0,0.0,0.0,0.0,0.0,0.0,0.0,0.0,0.0,0.0,0.0,0.0,0.0,0.0,0.0,0.0,0.0,0.0,0.0,0.0,0.0,0.0,0.0,0.0,0.0,0.0,0.0,0.0,0.0,0.0,0.0,0.0,0.0,0.0,0.0,0.0,0.0,0.0,0.0,0.0,0.0,0.0,0.0,0.0,0.0,0.0,0.0,-1.7836,-1.7645,-1.7555,-1.7645,-1.6957,-1.638,-1.5935,0.0,0.0,0.0,0.0,0.0,0.0,0.0,0.0,0.0,0.0,0.0,0.0,0.0,0.0,0.0,0.0,0.0,0.0,0.0,0.0,0.0,0.0,0.0,0.0,0.0,0.0,0.0,0.0,0.0,0.0,0.0,0.0,0.0,0.0,0.0,0.0,0.0,0.0,0.0,0.0,0.0,0.0,0.0,0.0,0.0,0.0,0.0,0.0,0.0,0.0,0.0,0.0,0.0,0.0,0.0,0.0,0.0,0.0,0.0,0.0,0.0,0.0,0.0,0.0,0.0,0.0,0.0,0.0,0.0,0.0,0.0,0.0,0.0,0.0,0.0,0.0,0.0,0.0,0.0,0.0,0.0,0.0,0.0,0.0,0.0,0.0,0.0,0.0,0.0,0.0,0.0,0.0,0.0,0.0,0.0,0.0,0.0,0.0,0.0,0.0,0.0,0.0,0.0,0.0,0.0,0.0,0.0,0.0,-2.1898,-2.0627,-1.9909,-1.9739,-1.9262,-1.837,0.0,0.0,0.0,0.0,0.0,0.0,0.0,0.0,0.0,0.0,0.0,0.0,0.0,0.0,0.0,0.0,0.0,0.0,0.0,0.0,0.0,0.0,0.0,0.0,0.0,0.0,0.0,0.0,0.0,0.0,0.0,0.0,0.0,0.0,0.0,0.0,0.0,0.0,0.0,0.0,0.0,0.0,0.0,0.0,0.0,0.0,0.0,0.0,0.0,0.0,0.0,0.0,0.0,0.0,0.0,0.0,0.0,0.0,0.0,0.0,0.0,0.0,0.0,0.0,0.0,0.0,0.0,0.0,0.0,0.0,0.0,0.0,0.0,0.0,0.0,0.0,0.0,0.0,0.0,0.0,0.0,0.0,0.0,0.0,0.0,0.0,0.0,0.0,0.0,0.0,0.0,0.0,0.0,0.0,0.0,0.0,0.0,0.0,0.0,0.0,0.0,0.0,0.0,0.0,0.0,0.0,0.0,0.0,0.0,-2.4495,-2.4422,-2.3427,-2.1497,-2.0832,-1.9752,0.0,0.0,0.0,0.0,0.0,0.0,0.0,0.0,0.0,0.0,0.0,0.0,0.0,0.0,0.0,0.0,0.0,0.0,0.0,0.0,0.0,0.0,0.0,0.0,0.0,0.0,0.0,0.0,0.0,0.0,0.0,0.0,0.0,0.0,0.0,0.0,0.0,0.0,0.0,0.0,0.0,0.0,0.0,0.0,0.0,0.0,0.0,0.0,0.0,0.0,0.0,0.0,0.0,0.0,0.0,0.0,0.0,0.0,0.0,0.0,0.0,0.0,0.0,0.0,0.0,0.0,0.0,0.0,0.0,0.0,0.0,0.0,0.0,0.0,0.0,0.0,0.0,0.0,0.0,0.0,0.0,0.0,0.0,0.0,0.0,0.0,0.0,0.0,0.0,0.0,0.0,0.0,0.0,0.0,0.0,0.0,0.0,0.0,0.0,0.0,0.0,0.0,0.0,0.0,0.0,0.0,0.0,0.0,-2.5195,-2.6811,-2.7387,-2.6752,-2.4956,-2.3343,-2.1787,0.0,0.0,0.0,0.0,0.0,0.0,0.0,0.0,0.0,0.0,0.0,0.0,0.0,0.0,0.0,0.0,0.0,0.0,0.0,0.0,0.0,0.0,0.0,0.0,0.0,0.0,0.0,0.0,0.0,0.0,0.0,0.0,0.0,0.0,0.0,0.0,0.0,0.0,0.0,0.0,0.0,0.0,0.0,0.0,0.0,0.0,0.0,0.0,0.0,0.0,0.0,0.0,0.0,0.0,0.0,0.0,0.0,0.0,0.0,0.0,0.0,0.0,0.0,0.0,0.0,0.0,0.0,0.0,0.0,0.0,0.0,0.0,0.0,0.0,0.0,0.0,0.0,0.0,0.0,0.0,0.0,0.0,0.0,0.0,0.0,0.0,0.0,0.0,0.0,0.0,0.0,0.0,0.0,0.0,0.0,0.0,0.0,0.0,0.0,0.0,0.0,0.0,0.0,0.0,0.0,0.0,0.0,0.0,-2.7149,-2.8826,-2.9738,-2.9817,-2.9045,-2.6336,-2.4081,0.0,0.0,0.0,0.0,0.0,0.0,0.0,0.0,0.0,0.0,0.0,0.0,0.0,0.0,0.0,0.0,0.0,0.0,0.0,0.0,0.0,0.0,0.0,0.0,0.0,0.0,0.0,0.0,0.0,0.0,0.0,0.0,0.0,0.0,0.0,0.0,0.0,0.0,0.0,0.0,0.0,0.0,0.0,0.0,0.0,0.0,0.0,0.0,0.0,0.0,0.0,0.0,0.0,0.0,0.0,0.0,0.0,0.0,0.0,0.0,0.0,0.0,0.0,0.0,0.0,0.0,0.0,0.0,0.0,0.0,0.0,0.0,0.0,0.0,0.0,0.0,0.0,0.0,0.0,0.0,0.0,0.0,0.0,0.0,0.0,0.0,0.0,0.0,0.0,0.0,0.0,0.0,0.0,0.0,0.0,0.0,0.0,0.0,0.0,0.0,0.0,0.0,0.0,0.0,0.0,0.0,0.0,0.0,-2.948,-3.0687,-3.1651,-3.1679,-3.0758,-2.8216,-2.5743,0.0,0.0,0.0,0.0,0.0,0.0,0.0,0.0,0.0,0.0,0.0,0.0,0.0,0.0,0.0,0.0,0.0,0.0,0.0,0.0,0.0,0.0,0.0,0.0,0.0,0.0,0.0,0.0,0.0,0.0,0.0,0.0,0.0,0.0,0.0,0.0,0.0,0.0,0.0,0.0,0.0,0.0,0.0,0.0,0.0,0.0,0.0,0.0,-1.6765,0.0,0.0,0.0,0.0,0.0,0.0,0.0,0.0,0.0,0.0,0.0,0.0,0.0,0.0,0.0,0.0,0.0,0.0,0.0,0.0,0.0,0.0,0.0,0.0,0.0,0.0,0.0,0.0,0.0,0.0,0.0,0.0,0.0,0.0,0.0,0.0,0.0,0.0,0.0,0.0,0.0,0.0,0.0,0.0,0.0,0.0,0.0,0.0,0.0,0.0,0.0,0.0,0.0,0.0,0.0,0.0,0.0,0.0,0.0,-3.0938,-3.2276,-3.3242,-3.3268,-3.2307,-3.05,-2.8144,0.0,0.0,0.0,0.0,0.0,0.0,0.0,0.0,0.0,0.0,0.0,0.0,0.0,0.0,0.0,0.0,0.0,0.0,0.0,0.0,0.0,0.0,0.0,0.0,0.0,0.0,0.0,0.0,0.0,0.0,0.0,0.0,0.0,0.0,0.0,0.0,0.0,0.0,0.0,0.0,0.0,0.0,0.0,0.0,0.0,0.0,0.0,0.0,0.0,0.0,0.0,0.0,0.0,0.0,0.0,0.0,0.0,0.0,0.0,0.0,0.0,0.0,0.0,0.0,0.0,0.0,0.0,0.0,0.0,0.0,0.0,0.0,0.0,0.0,0.0,0.0,0.0,0.0,0.0,0.0,0.0,0.0,0.0,0.0,0.0,0.0,0.0,0.0,0.0,0.0,0.0,0.0,0.0,0.0,0.0,0.0,0.0,0.0,0.0,0.0,0.0,0.0,0.0,0.0,0.0,0.0,0.0,-3.0212,-3.2063,-3.3499,-3.4531,-3.4555,-3.3598,-3.2579,-3.0485,-2.729,0.0,0.0,0.0,0.0,0.0,0.0,0.0,0.0,0.0,0.0,0.0,0.0,0.0,0.0,0.0,0.0,0.0,0.0,0.0,0.0,0.0,0.0,0.0,0.0,0.0,0.0,0.0,0.0,0.0,0.0,0.0,0.0,0.0,0.0,0.0,0.0,0.0,0.0,-1.5765,-1.7109,0.0,0.0,0.0,0.0,0.0,0.0,0.0,0.0,-1.8631,0.0,0.0,0.0,0.0,0.0,0.0,0.0,0.0,0.0,0.0,0.0,0.0,0.0,0.0,0.0,0.0,0.0,0.0,0.0,0.0,0.0,0.0,0.0,0.0,0.0,0.0,0.0,0.0,0.0,0.0,0.0,0.0,0.0,0.0,0.0,0.0,0.0,0.0,0.0,0.0,0.0,0.0,0.0,0.0,0.0,0.0,0.0,0.0,0.0,0.0,0.0,0.0,0.0,0.0,0.0,0.0,-2.856,-3.1653,-3.3551,-3.4216,-3.5178,-3.5182,-3.4254,-3.3158,-3.1213,-2.8357,0.0,0.0,0.0,0.0,0.0,0.0,0.0,0.0,0.0,0.0,0.0,0.0,0.0,0.0,0.0,0.0,0.0,0.0,0.0,0.0,0.0,0.0,0.0,0.0,0.0,0.0,0.0,0.0,0.0,0.0,0.0,0.0,0.0,0.0,0.0,0.0,0.0,0.0,0.0,-1.8907,-1.977,0.0,0.0,0.0,0.0,0.0,0.0,0.0,0.0,-2.0378,0.0,0.0,0.0,0.0,0.0,0.0,0.0,0.0,0.0,0.0,0.0,0.0,0.0,0.0,0.0,0.0,0.0,0.0,0.0,0.0,0.0,0.0,0.0,0.0,0.0,0.0,0.0,0.0,0.0,0.0,0.0,0.0,0.0,0.0,0.0,0.0,0.0,0.0,0.0,0.0,0.0,0.0,0.0,0.0,0.0,0.0,0.0,0.0,0.0,0.0,0.0,0.0,0.0,0.0,0.0,-2.8999,-3.185,-3.3804,-3.4524,-3.5095,-3.508,-3.455,-3.3387,-3.1483,0.0,0.0,0.0,0.0,0.0,0.0,0.0,0.0,0.0,0.0,0.0,0.0,0.0,0.0,0.0,0.0,0.0,0.0,0.0,0.0,0.0,0.0,0.0,0.0,0.0,0.0,0.0,0.0,0.0,0.0,0.0,0.0,0.0,0.0,0.0,0.0,0.0,0.0,0.0,0.0,-2.002,-2.0794,-2.1234,0.0,0.0,0.0,0.0,0.0,0.0,-2.1468,-2.1356,0.0,0.0,0.0,0.0,0.0,0.0,0.0,0.0,0.0,0.0,0.0,0.0,0.0,0.0,0.0,0.0,0.0,0.0,0.0,0.0,0.0,0.0,0.0,0.0,0.0,0.0,0.0,0.0,0.0,0.0,0.0,0.0,0.0,0.0,0.0,0.0,0.0,0.0,0.0,0.0,0.0,0.0,0.0,0.0,0.0,0.0,0.0,0.0,0.0,0.0,0.0,0.0,0.0,0.0,0.0,-2.9153,-3.1804,-3.3647,-3.4498,-3.4659,-3.4659,-3.45,-3.3188,-3.1362,0.0,0.0,0.0,0.0,0.0,0.0,0.0,0.0,0.0,0.0,0.0,0.0,0.0,0.0,0.0,0.0,0.0,0.0,0.0,0.0,0.0,0.0,0.0,0.0,0.0,0.0,0.0,0.0,0.0,0.0,0.0,0.0,0.0,0.0,0.0,0.0,0.0,0.0,0.0,0.0,0.0,-2.1794,-2.2398,-2.2677,0.0,0.0,0.0,0.0,-2.2784,-2.2522,0.0,0.0,0.0,0.0,0.0,0.0,0.0,0.0,0.0,0.0,0.0,0.0,0.0,0.0,0.0,0.0,0.0,0.0,0.0,0.0,0.0,0.0,0.0,0.0,0.0,0.0,0.0,0.0,0.0,0.0,0.0,0.0,0.0,0.0,0.0,0.0,0.0,0.0,0.0,0.0,0.0,0.0,0.0,0.0,0.0,0.0,0.0,0.0,0.0,0.0,0.0,0.0,0.0,0.0,0.0,0.0,-2.942,-3.2002,-3.3529,-3.3881,-3.4088,-3.4104,-3.388,-3.2126,-3.0455,0.0,0.0,0.0,0.0,0.0,0.0,0.0,0.0,0.0,0.0,0.0,0.0,0.0,0.0,0.0,0.0,0.0,0.0,0.0,0.0,0.0,0.0,0.0,0.0,0.0,0.0,0.0,0.0,0.0,0.0,0.0,0.0,0.0,0.0,0.0,0.0,0.0,0.0,0.0,0.0,0.0,-2.3178,-2.3466,-2.396,-2.4406,0.0,0.0,-2.4576,-2.4689,-2.438,0.0,0.0,0.0,0.0,0.0,0.0,0.0,0.0,0.0,0.0,0.0,0.0,0.0,0.0,0.0,0.0,0.0,0.0,0.0,0.0,0.0,0.0,0.0,0.0,0.0,0.0,0.0,0.0,0.0,0.0,0.0,0.0,0.0,0.0,0.0,0.0,0.0,0.0,0.0,0.0,0.0,0.0,0.0,0.0,0.0,0.0,0.0,0.0,0.0,0.0,0.0,0.0,0.0,0.0,0.0,-2.9033,-2.9472,-3.162,-3.3108,-3.3758,-3.3552,-3.355,-3.3791,-3.1933,-3.03,0.0,0.0,0.0,0.0,0.0,0.0,0.0,0.0,0.0,0.0,0.0,0.0,0.0,0.0,0.0,0.0,0.0,0.0,0.0,0.0,0.0,0.0,0.0,0.0,0.0,0.0,0.0,0.0,0.0,0.0,0.0,0.0,0.0,0.0,0.0,0.0,0.0,0.0,0.0,0.0,0.0,0.0,-2.4653,-2.4925,0.0,0.0,0.0,-2.5342,-2.5397,0.0,0.0,0.0,0.0,0.0,0.0,0.0,0.0,0.0,0.0,0.0,0.0,0.0,0.0,0.0,0.0,0.0,0.0,0.0,0.0,0.0,0.0,0.0,0.0,0.0,0.0,0.0,0.0,0.0,0.0,0.0,0.0,0.0,0.0,0.0,0.0,0.0,0.0,0.0,0.0,0.0,0.0,0.0,0.0,0.0,0.0,0.0,0.0,0.0,0.0,0.0,0.0,0.0,0.0,0.0,0.0,0.0,-2.9472,-3.1324,-3.2669,-3.3458,-3.3093,-3.3072,-3.3438,-3.1618,0.0,0.0,0.0,0.0,0.0,0.0,0.0,0.0,0.0,0.0,0.0,0.0,0.0,0.0,0.0,0.0,0.0,0.0,0.0,0.0,0.0,0.0,0.0,0.0,0.0,0.0,0.0,-1.5496,0.0,0.0,0.0,0.0,0.0,0.0,0.0,0.0,0.0,0.0,0.0,0.0,0.0,0.0,-2.4751,-2.5675,-2.5814,-2.5883,0.0,0.0,-2.6063,-2.6118,-2.5813,-2.5536,0.0,0.0,0.0,0.0,0.0,0.0,0.0,0.0,0.0,0.0,0.0,0.0,0.0,0.0,0.0,0.0,0.0,0.0,0.0,0.0,0.0,0.0,0.0,0.0,0.0,0.0,0.0,0.0,0.0,0.0,0.0,0.0,0.0,0.0,0.0,0.0,0.0,0.0,0.0,0.0,0.0,0.0,0.0,0.0,0.0,0.0,0.0,0.0,0.0,0.0,0.0,0.0,0.0,0.0,0.0,-2.954,-3.1358,-3.2422,-3.2661,-3.2758,-3.2743,-3.2542,-3.0798,-2.9506,0.0,0.0,0.0,0.0,0.0,0.0,0.0,0.0,0.0,0.0,0.0,0.0,0.0,0.0,0.0,0.0,0.0,0.0,0.0,0.0,0.0,0.0,0.0,0.0,0.0,0.0,0.0,0.0,0.0,0.0,0.0,0.0,0.0,0.0,0.0,0.0,0.0,0.0,0.0,0.0,0.0,-2.5619,-2.6596,-2.6708,-2.6961,0.0,0.0,-2.7031,-2.7142,-2.6548,-2.5988,-2.5893,0.0,0.0,0.0,0.0,0.0,0.0,0.0,0.0,0.0,0.0,0.0,0.0,0.0,0.0,0.0,0.0,0.0,0.0,0.0,0.0,0.0,0.0,0.0,0.0,0.0,0.0,0.0,0.0,0.0,0.0,0.0,0.0,0.0,0.0,0.0,0.0,0.0,0.0,0.0,0.0,0.0,0.0,0.0,0.0,0.0,0.0,0.0,0.0,0.0,0.0,0.0,0.0,0.0,-2.9175,-2.9523,-3.1307,-3.2335,-3.2521,-3.2657,-3.2592,-3.2441,-3.1115,-2.9902,0.0,0.0,0.0,0.0,0.0,0.0,0.0,0.0,0.0,0.0,0.0,0.0,0.0,0.0,0.0,0.0,0.0,0.0,0.0,0.0,0.0,0.0,0.0,0.0,0.0,0.0,0.0,0.0,-1.8639,-1.9297,-1.9948,0.0,0.0,0.0,0.0,0.0,0.0,0.0,0.0,0.0,0.0,-2.6748,-2.7267,-2.7639,0.0,0.0,-2.8111,-2.7824,-2.7492,-2.7178,-2.6783,-2.6207,-2.5974,0.0,0.0,0.0,0.0,0.0,0.0,0.0,0.0,0.0,0.0,0.0,0.0,0.0,0.0,0.0,0.0,0.0,0.0,0.0,0.0,0.0,0.0,0.0,0.0,0.0,0.0,0.0,0.0,0.0,0.0,0.0,0.0,0.0,0.0,0.0,0.0,0.0,0.0,0.0,0.0,0.0,0.0,0.0,0.0,0.0,0.0,0.0,0.0,0.0,0.0,0.0,0.0,-2.9175,-2.9506,-3.1272,-3.2301,-3.2506,-3.2539,-3.2491,-3.2336,-3.1324,-3.0159,0.0,0.0,0.0,0.0,0.0,0.0,0.0,0.0,0.0,0.0,0.0,0.0,0.0,0.0,0.0,0.0,0.0,0.0,0.0,0.0,0.0,0.0,0.0,0.0,0.0,0.0,0.0,0.0,-1.9551,-2.0106,-2.0623,0.0,0.0,0.0,0.0,0.0,0.0,0.0,0.0,0.0,0.0,-2.7799,-2.8382,-2.8764,-2.9057,-2.916,-2.9015,-2.874,-2.8306,-2.8074,-2.7715,-2.7144,0.0,0.0,0.0,0.0,0.0,0.0,0.0,0.0,0.0,0.0,0.0,0.0,0.0,0.0,0.0,0.0,0.0,0.0,0.0,0.0,0.0,0.0,0.0,0.0,0.0,0.0,0.0,0.0,0.0,0.0,-2.4866,0.0,0.0,0.0,0.0,0.0,0.0,0.0,0.0,0.0,0.0,0.0,0.0,0.0,0.0,0.0,0.0,0.0,0.0,0.0,0.0,0.0,0.0,-2.9193,-2.9523,-3.129,-3.2284,-3.2489,-3.2507,-3.2439,-3.2197,-3.1219,-3.0103,-2.8831,0.0,0.0,0.0,0.0,0.0,0.0,0.0,0.0,0.0,0.0,0.0,0.0,0.0,0.0,0.0,0.0,0.0,0.0,0.0,0.0,0.0,0.0,0.0,0.0,0.0,0.0,-2.014,-2.0625,-2.097,0.0,0.0,0.0,0.0,0.0,0.0,0.0,0.0,0.0,0.0,-2.7979,-2.8665,-3.0004,-3.0283,-3.0334,-3.066,-3.0236,-2.9841,-2.9797,-2.9271,-2.8846,0.0,0.0,0.0,0.0,0.0,0.0,0.0,0.0,0.0,0.0,0.0,0.0,0.0,0.0,0.0,0.0,0.0,0.0,0.0,0.0,0.0,0.0,0.0,0.0,0.0,0.0,0.0,-2.6415,-2.5704,0.0,0.0,0.0,0.0,0.0,0.0,0.0,0.0,0.0,0.0,0.0,-3.0441,-3.0206,0.0,0.0,0.0,0.0,0.0,0.0,0.0,0.0,0.0,0.0,0.0,0.0,-2.9379,-3.0177,-3.148,-3.2179,-3.2284,-3.2371,-3.2336,-3.2144,-3.1686,-3.0489,-2.8472,0.0,0.0,0.0,0.0,0.0,0.0,0.0,0.0,0.0,0.0,0.0,0.0,0.0,0.0,0.0,0.0,0.0,0.0,0.0,0.0,0.0,0.0,0.0,0.0,0.0,-2.0503,0.0,0.0,0.0,0.0,0.0,0.0,0.0,0.0,0.0,0.0,0.0,-2.7186,-2.808,-2.9217,-3.0138,-3.0699,-3.0953,-3.114,0.0,0.0,0.0,0.0,0.0,0.0,0.0,0.0,0.0,0.0,0.0,0.0,0.0,0.0,-2.761,-2.7116,-2.693,-2.6757,-2.6452,0.0,0.0,0.0,0.0,0.0,0.0,0.0,0.0,0.0,0.0,0.0,0.0,0.0,0.0,0.0,0.0,-2.7521,0.0,0.0,0.0,0.0,0.0,0.0,0.0,0.0,-3.0621,-3.1111,-3.1456,-3.1202,-3.1157,0.0,-3.0812,-2.9811,0.0,0.0,0.0,0.0,0.0,0.0,0.0,0.0,-2.9753,-3.052,-3.1566,-3.2144,-3.2179,-3.2267,-3.2267,-3.2091,-3.1524,-3.0387,-2.8715,-2.7273,-2.6166,0.0,0.0,0.0,0.0,0.0,0.0,0.0,0.0,0.0,0.0,0.0,0.0,0.0,0.0,0.0,0.0,0.0,0.0,0.0,0.0,0.0,0.0,0.0,-2.1588,0.0,0.0,0.0,0.0,0.0,0.0,0.0,0.0,0.0,-2.605,-2.7157,-2.8287,-2.919,-3.0256,-3.1055,-3.1369,0.0,0.0,0.0,0.0,0.0,0.0,0.0,-3.0788,-3.0408,-3.0498,-3.0537,-3.0373,-3.0333,-3.0223,-3.0182,0.0,0.0,-2.8554,-2.8254,-2.8068,-2.7734,-2.7603,-2.7426,-2.7276,-2.7336,-2.7412,0.0,0.0,0.0,0.0,0.0,0.0,0.0,0.0,-3.1091,-3.065,0.0,-3.052,0.0,0.0,0.0,0.0,0.0,-3.0797,0.0,0.0,-3.1157,-3.1637,-3.2374,-3.1681,-3.1619,-3.2162,-3.1333,-3.0724,-3.0322,-2.9126,0.0,0.0,0.0,0.0,0.0,0.0,-3.0338,-3.0589,-3.1583,-3.2108,-3.2179,-3.2179,-3.2144,-3.2055,-3.082,-2.9972,-2.9473,-2.7837,-2.6685,-2.6181,-2.5168,0.0,0.0,0.0,0.0,0.0,0.0,0.0,0.0,0.0,0.0,0.0,0.0,0.0,0.0,0.0,0.0,0.0,0.0,0.0,0.0,-2.2664,0.0,0.0,0.0,0.0,0.0,0.0,0.0,0.0,0.0,0.0,-2.7846,-2.8213,-2.9101,-3.0767,0.0,0.0,0.0,0.0,-3.1868,-3.1595,-3.1537,-3.1537,-3.1537,-3.1781,-3.2023,-3.2176,0.0,0.0,-3.2231,-3.2247,-3.216,-3.2038,-3.1977,-3.1403,-2.9407,-2.9063,-2.8937,-2.8541,-2.8455,-2.8268,-2.8008,-2.8264,-2.8432,-3.476,0.0,0.0,0.0,0.0,-3.1316,-3.131,-3.1483,-3.1366,-3.1159,-3.0884,-3.102,0.0,0.0,0.0,0.0,0.0,0.0,-3.1919,-3.2019,-3.2648,-3.3104,-3.3386,-3.3113,-3.3049,-3.3203,-3.2785,-3.2439,-3.2107,-3.1076,-3.0035,-2.9025,0.0,0.0,0.0,0.0,-3.0666,-3.1273,-3.1808,-3.2073,-3.1984,-3.2144,-3.2073,-3.1728,-3.1108,-3.0342,-2.954,-2.8772,-2.7688,-2.6302,-2.5794,0.0,0.0,0.0,0.0,0.0,0.0,0.0,0.0,0.0,0.0,0.0,0.0,0.0,0.0,0.0,0.0,0.0,0.0,0.0,-2.3216,-2.3942,-2.4365,0.0,0.0,0.0,0.0,0.0,0.0,0.0,0.0,0.0,-2.9913,-3.0172,-3.0485,0.0,0.0,-3.2127,-3.2327,-3.2247,-3.2079,-3.2023,0.0,0.0,0.0,-3.2231,-3.2437,-3.2492,-3.2633,-3.2718,-3.2718,-3.2664,-3.2664,-3.2624,-3.2539,-3.2164,-3.1591,-3.1095,-3.0741,-3.0367,-3.0134,-2.9971,-2.9674,-2.9576,-2.9567,-3.6913,-3.4447,-3.3639,-3.2993,-3.2545,-3.2333,-3.2386,-3.2636,-3.2521,-3.2397,-3.2287,-3.2287,-3.2007,-3.1601,-3.1574,0.0,0.0,0.0,-3.2858,-3.2931,-3.3433,-3.3726,-3.3753,-3.3698,-3.3605,-3.3509,-3.3382,-3.314,-3.2852,-3.2196,-3.1389,-3.0473,0.0,0.0,-3.0302,-3.0683,-3.1096,-3.16,-3.1875,-3.1984,-3.1894,-3.1984,-3.1856,-3.1445,-3.1134,-3.0654,-2.9873,-2.9313,-2.8452,-2.7224,-2.6417,-2.5654,0.0,0.0,0.0,0.0,0.0,0.0,0.0,0.0,0.0,0.0,0.0,-2.0777,0.0,0.0,0.0,0.0,-2.2968,-2.3756,-2.4557,-2.5316,0.0,0.0,0.0,0.0,0.0,0.0,0.0,-2.8974,-2.9546,-3.016,-3.1129,-3.1535,-3.1743,-3.1758,-3.2151,-3.2523,-3.2578,0.0,-3.2342,-3.2342,-3.2342,-3.2342,-3.2342,-3.2617,-3.2834,-3.2888,-3.2973,-3.3058,-3.3005,-3.3005,-3.2951,-3.2897,-3.2718,-3.2578,-3.2523,-3.2176,-3.1838,-3.1321,-3.1146,-3.097,-3.0553,-3.0387,-3.0219,-3.8676,-3.7546,-3.5913,-3.4603,-3.3607,-3.3462,-3.3724,-3.4203,-3.413,-3.4049,-3.3921,-3.3921,-3.3437,-3.2609,-3.2547,0.0,-3.3605,-3.3671,-3.368,-3.3698,-3.3671,-3.3671,-3.3671,-3.3605,-3.3491,-3.3364,-3.3292,-3.3109,-3.2773,-3.2639,-3.2438,-3.2091,-3.1253,-3.0693,-3.0583,-3.1236,-3.1617,-3.1579,-3.1785,-3.1894,-3.1858,-3.1765,-3.1559,-3.119,-3.1015,-3.0773,-3.0384,-2.9592,-2.899,-2.8597,-2.7166,-2.6243,-2.59,0.0,0.0,0.0,0.0,0.0,0.0,0.0,0.0,0.0,0.0,0.0,0.0,0.0,0.0,0.0,-2.4208,0.0,-2.5879,-2.6638,0.0,0.0,0.0,-2.8297,-2.8987,-2.9225,-2.9603,-3.0262,0.0,0.0,-3.1772,0.0,-3.2843,-3.2648,-3.2648,-3.2718,-3.2897,-3.2742,-3.2602,-3.2602,-3.2672,-3.2656,-3.2656,-3.292,-3.315,-3.324,-3.3293,-3.324,-3.315,-3.3096,-3.3058,-3.2951,-3.2773,-3.2648,-3.2648,-3.2523,-3.2231,-3.1652,-3.1495,-3.1379,-3.094,-3.0702,-3.0507,-3.9431,-3.848,-3.7982,-3.6875,-3.5388,-3.5169,-3.4811,-3.4358,-3.424,-3.4124,-3.403,-3.4049,-3.3862,-3.3548,-3.3513,-3.3542,-3.3689,-3.3698,-3.3671,-3.3615,-3.3577,-3.3549,-3.3549,-3.3422,-3.3286,-3.3165,-3.3042,-3.2884,-3.2639,-3.2557,-3.2387,-3.2108,-3.1863,-3.1669,-3.1487,-3.166,-3.1709,-3.1579,-3.1746,-3.1746,-3.1579,-3.1406,-3.1196,-3.0902,-3.0716,-3.0485,-3.0231,-2.994,-2.941,-2.8646,-2.8249,-2.7438,-2.6072,-2.566,0.0,0.0,0.0,0.0,0.0,0.0,0.0,0.0,0.0,-2.3569,-2.3676,0.0,-2.5012,0.0,-2.6061,-2.6888,-2.7149,-2.7829,0.0,0.0,-2.8947,-2.9477,-2.973,-3.0164,-3.074,-3.1576,-3.1727,-3.1986,-3.2531,-3.2803,-3.2897,-3.2989,-3.2881,-3.2843,-3.2912,-3.2827,-3.2812,-3.2827,-3.292,-3.2973,-3.2989,-3.315,-3.3256,-3.3309,-3.3293,-3.3293,-3.324,-3.3256,-3.3256,-3.3203,-3.3005,-3.2827,-3.2843,-3.2578,-3.2302,-3.1966,-3.1739,-3.1509,-3.1132,-3.0895,-3.0642,-3.9852,-3.9294,-3.9188,-3.8134,-3.6437,-3.5964,-3.5217,-3.434,-3.4269,-3.4197,-3.4099,-3.4049,-3.3947,-3.3842,-3.3762,-3.3726,-3.3643,-3.3633,-3.3605,-3.3549,-3.3452,-3.3393,-3.3316,-3.3214,-3.3091,-3.2979,-3.2902,-3.2722,-3.2523,-3.2473,-3.2301,-3.202,-3.2001,-3.191,-3.1709,-3.1709,-3.1671,-3.1559,-3.1559,-3.1466,-3.1218,-3.1078,-3.0878,-3.0634,-3.051,-3.0359,-3.0119,-3.0017,-2.9751,-2.9216,-2.8791,-2.8174,-2.7211,-2.6683,-2.6183,0.0,0.0,0.0,0.0,0.0,0.0,0.0,0.0,0.0,0.0,0.0,-2.6184,0.0,-2.7348,-2.7934,-2.8339,-2.8793,-2.917,-2.9532,-2.9943,-3.0401,-3.1116,-3.1462,-3.1902,-3.2645,-3.2604,-3.2694,-3.3049,-3.3112,-3.3096,-3.3219,-3.3096,-3.3096,-3.3043,-3.3043,-3.3058,-3.3096,-3.315,-3.3203,-3.3203,-3.3256,-3.3293,-3.3293,-3.3293,-3.3293,-3.3293,-3.3293,-3.3293,-3.3309,-3.3096,-3.2897,-3.2912,-3.2633,-3.2302,-3.2094,-3.1925,-3.164,-3.1205,-3.1014,-3.0821,-4.0013,-3.9848,-3.9717,-3.8757,-3.715,-3.6306,-3.531,-3.4293,-3.4269,-3.4197,-3.4092,-3.3947,-3.3842,-3.378,-3.3698,-3.3661,-3.3577,-3.3509,-3.3481,-3.3433,-3.3304,-3.3183,-3.3073,-3.2979,-3.2884,-3.2758,-3.274,-3.2608,-3.2371,-3.2371,-3.2196,-3.1894,-3.1819,-3.1709,-3.1542,-3.1542,-3.1521,-3.1423,-3.1312,-3.1061,-3.0764,-3.0764,-3.0617,-3.0359,-3.0375,-3.0248,-2.9973,-2.9973,-2.993,-2.9886,-2.9157,-2.871,-2.8613,-2.7753,-2.7232,0.0,-2.6851,0.0,0.0,0.0,0.0,0.0,0.0,0.0,0.0,-2.6638,-2.7172,-2.8052,-2.8383,-2.8726,-2.9332,-2.9582,-2.9948,-3.0587,-3.0797,-3.139,-3.2593,-3.2834,-3.3022,-3.3491,-3.3503,-3.345,-3.3309,-3.3293,-3.3293,-3.3309,-3.3309,-3.3256,-3.3309,-3.3309,-3.3309,-3.3293,-3.3293,-3.3293,-3.3293,-3.3309,-3.3293,-3.3293,-3.3293,-3.3293,-3.3293,-3.3293,-3.3293,-3.3256,-3.3058,-3.2897,-3.2843,-3.2594,-3.2287,-3.2038,-3.2012,-3.1769,-3.1264,-3.1087,-3.0955,-3.9848,-3.9735,-3.9599,-3.8914,-3.7854,-3.6976,-3.5714,-3.4293,-3.4197,-3.4074,-3.3921,-3.3842,-3.378,-3.3698,-3.3587,-3.3509,-3.3422,-3.3382,-3.3262,-3.3073,-3.3011,-3.2934,-3.287,-3.2734,-3.2603,-3.2491,-3.2457,-3.2354,-3.2161,-3.2161,-3.2037,-3.1837,-3.1783,-3.1634,-3.1308,0.0,0.0,0.0,-3.0895,-3.0733,-3.0551,-3.0526,-3.0342,-3.006,-3.006,0.0,-2.9902,-2.9902,-2.9902,-2.9902,-2.9729,0.0,0.0,0.0,0.0,0.0,0.0,0.0,0.0,0.0,0.0,0.0,-2.8395,-2.8338,-2.7668,-2.8379,-2.9045,-2.9339,-2.956,-2.974,-2.9886,-3.0437,-3.0871,-3.1034,-3.1963,-3.2741,-3.3016,-3.3417,-3.3668,-3.3678,-3.3555,-3.345,-3.3293,-3.3293,-3.3293,-3.3293,-3.3293,-3.3293,-3.3293,-3.3293,-3.3293,-3.3293,-3.3293,-3.3293,-3.3293,-3.3293,-3.3293,-3.3293,-3.3293,-3.3293,-3.3293,-3.3309,-3.3256,-3.315,-3.3005,-3.2843,-3.2703,-3.2413,-3.2191,-3.2053,-3.1898,-3.167,-3.1205,-3.1087,-3.1014,-3.9731,0.0,-3.9521,-3.8927,0.0,-3.7117,-3.6031,-3.481,-3.429,-3.3998,-3.386,-3.3698,-3.3615,-3.3549,-3.3452,-3.3334,-3.3196,-3.3122,-3.3028,-3.2902,-3.2802,-3.2722,-3.2641,-3.2539,-3.2438,-3.2319,-3.2267,-3.2161,-3.1965,-3.1946,-3.1837,-3.1651,-3.1576,-3.1423,-3.1207,-3.1304,-3.1182,-3.0773,-3.0626,-3.0443,-3.0258,-3.0231,-3.0119,-2.9946,0.0,0.0,0.0,0.0,0.0,0.0,0.0,0.0,0.0,0.0,0.0,-2.8576,-2.8446,-2.8375,-2.8391,-2.865,-2.8841,-2.8974,-2.9428,-2.9416,-2.8854,-2.9396,-2.9798,-2.9946,-3.0342,-3.0642,-3.0675,-3.125,-3.1776,-3.2134,-3.2739,-3.321,-3.355,-3.384,-3.3899,-3.3745,-3.3642,-3.3555,-3.3293,-3.3293,-3.3293,-3.3293,-3.3293,-3.3293,-3.3293,-3.3293,-3.3293,-3.3293,-3.3293,-3.3293,-3.3293,-3.3293,-3.3293,-3.3293,-3.3293,-3.3293,-3.3293,-3.3256,-3.315,-3.3096,-3.2935,-3.2718,-3.2523,-3.2358,-3.215,-3.194,-3.1769,-3.1539,-3.119,-3.1087,-3.1028,-3.9607,-3.9477,-3.9458,-3.8981,-3.8122,-3.714,-3.6096,-3.5066,0.0,0.0,0.0,-3.3549,-3.3404,-3.3304,-3.3262,-3.314,-3.2948,-3.2884,-3.282,-3.274,-3.2606,-3.2523,-3.2422,-3.2371,-3.2267,-3.2144,-3.2107,-3.1946,-3.1763,-3.1726,-3.1596,-3.144,-3.1269,-3.1179,-3.1251,-3.1582,-3.1391,-3.0813,-3.0738,-3.0625,-3.0391,-3.0233,-3.0124,-3.0053,-2.9967,-2.9918,-2.9918,-2.9918,-2.9918,-2.9918,-2.9918,-2.9918,-2.9918,-2.9786,-2.9742,-2.9742,-2.9653,-2.9563,-2.9563,-2.9563,-2.9656,-2.9919,-3.0141,-3.0103,-2.987,-3.0071,-3.0299,-3.0428,-3.1128,-3.1555,-3.1527,-3.2047,-3.259,-3.316,-3.3259,-3.3501,-3.4003,-3.405,-3.3949,-3.3745,-3.3658,-3.3555,-3.3346,-3.3293,-3.3293,-3.3293,-3.3293,-3.3293,-3.3293,-3.3293,-3.3293,-3.3293,-3.3293,-3.3293,-3.3293,-3.3293,-3.3293,-3.3293,-3.3309,-3.3256,-3.3256,-3.315,-3.3058,-3.2989,-3.2757,-3.2523,-3.2413,-3.2176,-3.2038,-3.1784,-3.1582,-3.1336,-3.1132,-3.1014,-3.0955,-3.9514,-3.9476,-3.9328,-3.9109,-3.8822,-3.7264,-3.5613,-3.4044,-3.3915,-3.3716,-3.3452,-3.3441,-3.3274,-3.306,-3.2979,-3.2916,-3.2805,-3.2672,-3.2623,0.0,-3.2439,-3.2388,-3.2249,-3.2161,-3.2073,-3.1948,-3.1886,-3.1757,-3.1634,-3.1466,-3.1312,-3.123,-3.1112,-3.1173,-3.1573,-3.1933,-3.2079,-3.1981,-3.1936,-3.1936,-3.1873,-3.1151,-3.0781,-3.0749,-3.0198,-2.9918,-2.9918,-2.9935,-2.9918,-2.9918,-2.9918,-2.9918,-2.9918,-2.9874,-2.9858,-2.9874,-2.9874,-2.9874,-2.983,-2.9814,-3.0089,-3.0671,-3.0961,-3.0789,-3.0098,-3.0762,-3.1271,-3.1347,-3.2029,-3.2442,-3.2401,-3.2872,-3.3223,-3.3258,-3.3632,-3.4003,-3.4101,-3.4016,-3.3848,-3.371,-3.3607,-3.3503,-3.3346,-3.3293,-3.3324,-3.3324,-3.3403,-3.334,-3.3372,-3.3293,-3.3293,-3.3293,-3.3293,-3.3293,-3.3293,-3.3293,-3.3293,-3.3293,-3.3203,-3.315,-3.315,-3.3005,-3.2897,-3.2703,-3.2523,-3.2398,-3.2231,-3.1894,-3.1667,-3.1552,-3.1351,-3.1117,-3.0895,-3.0836,-3.0702,-3.9451,-3.9328,-3.9183,-3.9101,-3.8943,-3.7561,-3.6164,-3.487,-3.4793,-3.4243,-3.3429,-3.3196,-3.306,-3.2948,-3.2802,-3.269,-3.2641,-3.2541,-3.2439,-3.2318,-3.2267,-3.2196,-3.2144,-3.2001,-3.1929,-3.1819,-3.1703,-3.1551,-3.1385,-3.1274,-3.1134,-3.0969,-3.1133,-3.1461,-3.1905,-3.2471,-3.2753,-3.2673,-3.2268,-3.2089,-3.2089,-3.1688,-3.151,-3.151,-3.117,-3.1024,-3.104,-3.1024,-3.1024,-3.1024,-3.0652,-3.0441,-3.0425,-3.0085,-2.9918,-2.9918,-3.0231,-3.0457,-3.0441,-3.0814,-3.117,-3.1477,-3.1694,-3.1626,-3.1238,-3.178,-3.2155,-3.2188,-3.2772,-3.3139,-3.3126,-3.3563,-3.3844,-3.3795,-3.4006,-3.405,-3.4,-3.3949,-3.3797,-3.3658,-3.3555,-3.3466,-3.3293,-3.3293,-3.3467,-3.3735,-3.3846,-3.3846,-3.383,-3.3514,-3.3309,-3.3293,-3.3293,-3.3293,-3.3293,-3.3293,-3.324,-3.3203,-3.315,-3.3058,-3.3005,-3.2827,-3.2648,-3.2523,-3.2358,-3.2191,-3.1894,-3.1667,-3.1495,-3.1292,-3.1117,-3.0881,-3.0702,-3.0493,-3.0266,-3.9384,-3.9156,-3.9055,-3.8877,-3.8501,-3.7625,-3.663,-3.567,-3.5537,-3.4839,-3.3826,-3.3337,-3.3152,-3.3054,-3.2745,-3.2523,-3.2422,-3.2388,-3.2284,-3.2179,-3.2108,-3.2054,-3.2001,-3.1819,-3.1726,-3.1671,-3.15,-3.1308,-3.1134,-3.1055,-3.0955,-3.09,-3.1435,-3.1949,-3.2317,-3.2967,-3.3307,-3.3226,-3.2676,-3.2385,-3.2433,-3.224,-3.2127,-3.2143,-3.1998,-3.1901,-3.1965,-3.1965,-3.1965,-3.1979,-3.1477,-3.1124,-3.1108,-3.0606,-3.0315,-3.0348,-3.0787,-3.1078,-3.111,-3.1594,-3.2029,-3.2191,-3.2333,-3.2492,-3.2686,-3.2919,-3.3003,-3.2954,-3.3406,-3.3804,-3.3806,-3.4072,-3.43,-3.4201,-3.4101,-3.4016,-3.3848,-3.3848,-3.3745,-3.3555,-3.363,-3.3652,-3.3599,-3.3688,-3.4004,-3.4446,-3.4541,-3.4541,-3.4407,-3.3903,-3.3524,-3.3392,-3.3366,-3.3293,-3.3309,-3.3256,-3.3203,-3.3112,-3.3043,-3.2935,-3.2773,-3.2594,-3.2468,-3.2302,-3.212,-3.1894,-3.1595,-3.1364,-3.1263,-3.1058,-3.0821,-3.0642,-3.0462,-3.0129,-2.9884,-3.9239,-3.9101,-3.8905,-3.8265,-3.7442,-3.7162,-3.6497,-3.5616,-3.5341,-3.5134,-3.4905,-3.4296,-3.3875,-3.3529,-3.2876,-3.244,-3.2284,-3.2214,-3.2196,-3.2107,-3.1966,-3.1875,-3.1906,-3.1706,-3.1504,-3.1368,-3.1303,-3.1145,-3.0861,-3.0667,-3.0747,-3.1181,-3.2252,-3.2773,-3.2804,-3.3331,-3.3633,-3.3633,-3.3601,-3.362,-3.3671,-3.2944,-3.2558,-3.2526,-3.1966,-3.1678,-3.1903,-3.1838,-3.187,-3.2012,-3.1963,-3.1851,-3.1693,-3.1645,-3.1565,-3.1406,-3.1502,-3.1534,-3.155,-3.1726,-3.2128,-3.2659,-3.2967,-3.3323,-3.3958,-3.4186,-3.4037,-3.358,-3.3973,-3.4268,-3.4252,-3.4267,-3.4201,-3.4,-3.3949,-3.3848,-3.3745,-3.3591,-3.3487,-3.3503,-3.3921,-3.4209,-3.4241,-3.4731,-3.5173,-3.5252,-3.5228,-3.5156,-3.5021,-3.4431,-3.4023,-3.3818,-3.3552,-3.3319,-3.3272,-3.3219,-3.3096,-3.3058,-3.2812,-3.2648,-3.2523,-3.2358,-3.2206,-3.2023,-3.1781,-3.1552,-3.1437,-3.1219,-3.0881,-3.0807,-3.0568,-3.0341,-3.0172,-2.996,-2.9822,-3.9185,-3.8921,-3.8663,-3.8248,-3.7729,-3.7496,-3.7181,-3.6755,-3.6506,-3.636,-3.6198,-3.5436,-3.4781,-3.418,-3.3389,-3.2931,-3.2735,-3.2264,-3.2244,-3.2533,-3.2493,-3.2565,-3.2764,-3.2736,-3.2354,-3.177,-3.1648,-3.1232,-3.0726,-3.0685,-3.1177,-3.2045,-3.2563,-3.2946,-3.3297,-3.355,-3.371,-3.369,-3.3623,-3.3639,-3.3603,-3.3403,-3.3227,-3.3243,-3.2955,-3.2862,-3.2896,-3.2896,-3.2946,-3.298,-3.261,-3.2337,-3.2273,-3.1887,-3.163,-3.1611,-3.1964,-3.2364,-3.283,-3.2912,-3.3008,-3.3297,-3.3414,-3.3659,-3.3901,-3.4,-3.3905,-3.3711,-3.4088,-3.4349,-3.4184,-3.4101,-3.4,-3.3797,-3.3813,-3.3745,-3.3607,-3.3555,-3.3577,-3.3937,-3.4184,-3.4494,-3.492,-3.5512,-3.5849,-3.5823,-3.5765,-3.5692,-3.5571,-3.5023,-3.4591,-3.441,-3.4038,-3.3513,-3.3184,-3.3058,-3.2935,-3.2827,-3.2648,-3.2453,-3.2302,-3.2064,-3.1853,-3.1739,-3.1509,-3.1263,-3.1087,-3.0925,-3.0642,-3.0507,-3.0237,-3.0007,-2.996,-2.9775,-2.9713,-3.9013,-3.8695,-3.8387,-3.8129,-3.7931,-3.7739,-3.7559,-3.7466,-3.7279,-3.7143,-3.6939,-3.6334,-3.5696,-3.499,-3.41,-3.3572,-3.3338,-3.276,-3.27,-3.3102,-3.3036,-3.3168,-3.3464,-3.333,-3.2908,-3.2269,-3.1831,-3.1236,-3.0718,-3.118,-3.1838,-3.2576,-3.278,-3.3096,-3.3491,-3.3539,-3.3534,-3.3461,-3.3377,-3.3324,-3.3372,-3.3466,-3.3571,-3.3603,-3.3571,-3.3607,-3.3658,-3.3642,-3.3658,-3.3678,-3.3214,-3.2862,-3.285,-3.2398,-3.2106,-3.2114,-3.2533,-3.2997,-3.3575,-3.3591,-3.3658,-3.3658,-3.3658,-3.3694,-3.3694,-3.3694,-3.3694,-3.3729,-3.3949,-3.4101,-3.4,-3.3899,-3.3813,-3.3642,-3.3658,-3.3591,-3.345,-3.3577,-3.3874,-3.4263,-3.4683,-3.5142,-3.578,-3.6216,-3.6472,-3.6428,-3.6294,-3.616,-3.6007,-3.5481,-3.5015,-3.4926,-3.4326,-3.3733,-3.3263,-3.2866,-3.2765,-3.2594,-3.2398,-3.2191,-3.2079,-3.1781,-3.1567,-3.1452,-3.1278,-3.1102,-3.0851,-3.0628,-3.0447,-3.019,-3.0007,-2.9808,-2.9761,-2.9651,-2.9602,-3.8628,-3.846,-3.807,-3.781,-3.7631,-3.7466,-3.7299,-3.7147,-3.7048,-3.6948,-3.6829,-3.6655,-3.6498,-3.6049,-3.4896,-3.4198,-3.3955,-3.3835,-3.3733,-3.3652,-3.3529,-3.3439,-3.3406,-3.3117,-3.2934,-3.2613,-3.1764,-3.1136,-3.0774,-3.1871,-3.2474,-3.2485,-3.3038,-3.3298,-3.3219,-3.315,-3.3058,-3.3005,-3.2966,-3.2935,-3.2958,-3.3081,-3.3203,-3.3309,-3.3309,-3.3398,-3.3503,-3.3503,-3.3555,-3.3694,-3.363,-3.3563,-3.3459,-3.3375,-3.3276,-3.3166,-3.3198,-3.3245,-3.333,-3.345,-3.3503,-3.3503,-3.3607,-3.3694,-3.3642,-3.3642,-3.3642,-3.371,-3.3694,-3.3745,-3.371,-3.371,-3.3642,-3.3539,-3.3503,-3.345,-3.3346,-3.3884,-3.4194,-3.4525,-3.5458,-3.6301,-3.6955,-3.71,-3.6964,-3.6874,-3.6921,-3.6768,-3.6399,-3.586,-3.5431,-3.4988,-3.447,-3.3918,-3.3764,-3.315,-3.2622,-3.2435,-3.2287,-3.194,-3.1667,-3.148,-3.1336,-3.1176,-3.094,-3.0747,-3.0628,-3.0433,-3.019,-3.0007,-2.9884,-2.9761,-2.9651,-2.9602,-2.9602,-3.8314,-3.7925,-3.7756,-3.7613,-3.7466,-3.7241,-3.7087,-3.7009,-3.6886,-3.6708,-3.6609,-3.6502,-3.6301,-3.6054,-3.5557,-3.4959,-3.4438,-3.3926,-3.3819,-3.4049,-3.3953,-3.403,-3.4318,-3.418,-3.3667,-3.2973,-3.2148,-3.1481,-3.115,-3.1942,-3.2487,-3.2741,-3.2971,-3.3058,-3.302,-3.2951,-3.2966,-3.2912,-3.2912,-3.2897,-3.2866,-3.2951,-3.3005,-3.3058,-3.3203,-3.3293,-3.3346,-3.3361,-3.3398,-3.3466,-3.345,-3.3398,-3.3346,-3.3346,-3.3346,-3.3309,-3.3293,-3.3293,-3.3309,-3.3361,-3.3346,-3.3346,-3.3398,-3.345,-3.345,-3.345,-3.3466,-3.345,-3.345,-3.345,-3.345,-3.3503,-3.3503,-3.3382,-3.3346,-3.3361,-3.3419,-3.3878,-3.4462,-3.5078,-3.6143,-3.6971,-3.704,-3.6968,-3.6723,-3.6677,-3.6492,-3.6367,-3.6211,-3.5919,-3.5704,-3.541,-3.4908,-3.4394,-3.4212,-3.3404,-3.2776,-3.2581,-3.2319,-3.1875,-3.1524,-3.1219,-3.0999,-3.0881,-3.0702,-3.0507,-3.0372,-3.0129,-2.9946,-2.9775,-2.9713,-2.9651,-2.9602,-2.954,-2.9477,-3.7966,-3.756,-3.7431,-3.7337,-3.7223,-3.7027,-3.6869,-3.6811,-3.6643,-3.6502,-3.6318,-3.6174,-3.6019,-3.58,-3.5684,-3.5357,-3.4745,-3.4293,-3.424,-3.4549,-3.4368,-3.4449,-3.4673,-3.4594,-3.4023,-3.3145,-3.2402,-3.1725,-3.1234,-3.2002,-3.2572,-3.2866,-3.2827,-3.2773,-3.2718,-3.2718,-3.2664,-3.2624,-3.2624,-3.2609,-3.2609,-3.2679,-3.2679,-3.2718,-3.292,-3.3118,-3.315,-3.315,-3.3203,-3.3256,-3.3256,-3.3256,-3.3293,-3.3293,-3.3293,-3.3293,-3.3293,-3.3293,-3.3293,-3.3293,-3.3293,-3.3293,-3.3309,-3.3293,-3.3293,-3.3293,-3.3293,-3.3293,-3.3293,-3.3293,-3.3293,-3.3398,-3.3398,-3.3293,-3.3293,-3.3388,-3.3625,-3.4241,-3.5063,-3.5906,-3.6625,-3.7055,-3.6968,-3.6723,-3.6492,-3.6367,-3.61,-3.591,-3.5861,-3.5782,-3.5653,-3.5464,-3.5055,-3.4752,-3.4528,-3.3829,-3.3216,-3.2931,-3.2377,-3.19,-3.153,-3.1116,-3.0775,-3.0671,-3.0447,-3.0266,-3.0068,-2.9898,-2.9775,-2.9602,-2.954,-2.954,-2.9477,-2.9415,-2.9289,-3.7595,-3.7374,-3.7087,-3.7009,-3.6987,-3.6766,-3.6602,-3.6485,-3.636,-3.6191,-3.5993,-3.5844,-3.5667,-3.5424,-3.5321,-3.5118,-3.4878,-3.4888,-3.4935,-3.4925,-3.4704,-3.4512,-3.4448,-3.4201,-3.3629,-3.2884,-3.2421,-3.1719,-3.0994,-3.208,-3.278,-3.2827,-3.2633,-3.2492,-3.2382,-3.2302,-3.215,-3.2094,-3.2053,-3.2053,-3.1996,-3.215,-3.2247,-3.2247,-3.2508,-3.2687,-3.2843,-3.2897,-3.3005,-3.3112,-3.3096,-3.315,-3.324,-3.3256,-3.324,-3.3256,-3.3309,-3.3309,-3.3293,-3.3256,-3.3256,-3.3256,-3.3309,-3.3256,-3.3256,-3.3309,-3.3293,-3.3293,-3.3293,-3.3293,-3.3293,-3.3309,-3.3309,-3.3293,-3.3309,-3.353,-3.4162,-3.4936,-3.5843,-3.6798,-3.7103,-3.6997,-3.6662,-3.6429,-3.6241,-3.6037,-3.5767,-3.5574,-3.5474,-3.5344,-3.5133,-3.5001,-3.4883,-3.4779,-3.4596,-3.4375,-3.379,-3.3262,-3.2626,-3.2016,-3.1806,-3.1489,-3.1014,-3.0776,-3.0248,-3.0036,-2.9837,-2.9651,-2.9588,-2.9477,-2.9477,-2.9352,-2.9275,-2.9149,-2.8958,-3.7334,-3.7087,-3.6834,-3.6673,-3.6609,-3.6419,-3.6293,-3.6148,-3.6019,-3.5817,-3.5549,-3.5475,-3.5258,-3.493,-3.4787,-3.4643,-3.4497,-3.4399,-3.4399,-3.4497,-3.4284,-3.4151,-3.405,-3.3797,-3.3224,-3.2459,-3.2431,-3.2042,-3.1458,-3.1997,-3.2373,-3.2277,-3.2206,-3.215,-3.2135,-3.2079,-3.1981,-3.1796,-3.1796,-3.1796,-3.1781,-3.1838,-3.194,-3.2042,-3.2165,-3.2206,-3.2277,-3.2664,-3.2897,-3.2966,-3.2951,-3.3005,-3.3005,-3.3005,-3.3043,-3.3058,-3.3005,-3.3005,-3.3058,-3.3058,-3.3058,-3.3058,-3.3096,-3.315,-3.3203,-3.3256,-3.3293,-3.3293,-3.3293,-3.324,-3.3203,-3.315,-3.3203,-3.3293,-3.3309,-3.3577,-3.4281,-3.5282,-3.6189,-3.6826,-3.6862,-3.6677,-3.6429,-3.6194,-3.5812,-3.5668,-3.5394,-3.5118,-3.5067,-3.5016,-3.4949,-3.4817,-3.475,-3.4698,-3.447,-3.4316,-3.3995,-3.3492,-3.2893,-3.2411,-3.2169,-3.1734,-3.132,-3.0759,-3.0244,-2.9831,-2.9617,-2.9463,-2.9401,-2.9226,-2.9085,-2.9008,-2.8931,-2.8739,-2.8495,-3.697,-3.6788,-3.6568,-3.6385,-3.6293,-3.6122,-3.5949,-3.5773,-3.5639,-3.5429,-3.5152,-3.5041,-3.4851,-3.4546,-3.4349,-3.4201,-3.405,-3.3797,-3.3761,-3.3848,-3.3797,-3.3745,-3.3594,-3.3045,-3.2431,-3.1856,-3.1975,-3.1758,-3.1204,-3.1728,-3.1966,-3.1796,-3.1754,-3.1754,-3.1754,-3.1712,-3.1597,-3.1467,-3.1467,-3.1452,-3.1495,-3.1452,-3.1539,-3.1642,-3.1727,-3.1754,-3.1754,-3.215,-3.2484,-3.2609,-3.2703,-3.2757,-3.2812,-3.2843,-3.2912,-3.2912,-3.2912,-3.2912,-3.2912,-3.2912,-3.2912,-3.2912,-3.2951,-3.2989,-3.3058,-3.3096,-3.315,-3.315,-3.315,-3.3112,-3.3043,-3.3058,-3.3058,-3.3165,-3.315,-3.3558,-3.4439,-3.566,-3.6466,-3.6723,-3.6616,-3.6429,-3.6067,-3.5876,-3.5439,-3.5294,-3.5016,-3.4802,-3.4802,-3.4668,-3.4601,-3.4481,-3.4346,-3.4293,-3.4225,-3.4142,-3.4074,-3.3681,-3.3229,-3.2854,-3.2558,-3.204,-3.1504,-3.0814,-3.0228,-2.9715,-2.9456,-2.9253,-2.9071,-2.8881,-2.8702,-2.856,-2.8417,-2.817,-2.7973,-3.6527,-3.6444,-3.6208,-3.6062,-3.5949,-3.5773,-3.5549,-3.5291,-3.5245,-3.4994,-3.4691,-3.4497,-3.4399,-3.4201,-3.3949,-3.3745,-3.3642,-3.3398,-3.3187,-3.3171,-3.3224,-3.3277,-3.3071,-3.2313,-3.1728,-3.142,-3.1341,-3.1131,-3.094,-3.1411,-3.161,-3.1437,-3.1336,-3.1292,-3.1292,-3.1132,-3.1073,-3.1073,-3.1087,-3.1073,-3.1014,-3.1014,-3.1087,-3.1102,-3.1234,-3.1278,-3.1336,-3.1495,-3.1724,-3.2135,-3.2398,-3.2563,-3.2617,-3.2773,-3.2788,-3.2788,-3.2858,-3.2788,-3.2843,-3.2734,-3.2734,-3.2734,-3.2788,-3.2843,-3.2827,-3.2827,-3.2881,-3.2827,-3.2843,-3.2843,-3.2843,-3.2843,-3.2858,-3.2921,-3.3178,-3.381,-3.4847,-3.6082,-3.6645,-3.6523,-3.6429,-3.6257,-3.5634,-3.5504,-3.5228,-3.4949,-3.475,-3.4616,-3.4549,-3.4346,-3.4196,-3.4059,-3.4074,-3.4088,-3.402,-3.3813,-3.3744,-3.3587,-3.3203,-3.3018,-3.2734,-3.2217,-3.1692,-3.0974,-3.0206,-2.9744,-2.9261,-2.9008,-2.8743,-2.8495,-2.83,-2.8026,-2.7829,-2.7577,-2.7377,-3.6088,-3.5958,-3.5684,-3.552,-3.5458,-3.5228,-3.4977,-3.4739,-3.4691,-3.4497,-3.4151,-3.3933,-3.3832,-3.3694,-3.345,-3.3224,-3.3033,-3.2873,-3.2726,-3.2563,-3.2523,-3.2523,-3.2468,-3.2109,-3.1749,-3.1509,-3.1309,-3.1213,-3.114,-3.1188,-3.1176,-3.0984,-3.094,-3.0866,-3.0807,-3.0762,-3.0628,-3.0507,-3.0507,-3.0522,-3.0536,-3.0522,-3.0565,-3.0713,-3.0865,-3.094,-3.094,-3.1117,-3.1409,-3.1796,-3.2023,-3.2135,-3.215,-3.2221,-3.2277,-3.2277,-3.2277,-3.2221,-3.2277,-3.2277,-3.2221,-3.2221,-3.2373,-3.2373,-3.2358,-3.2468,-3.2523,-3.2523,-3.2523,-3.2484,-3.2428,-3.2459,-3.2588,-3.3038,-3.3681,-3.4472,-3.5208,-3.6029,-3.6492,-3.6178,-3.5925,-3.5683,-3.5489,-3.5162,-3.4831,-3.4616,-3.4414,-3.4278,-3.4225,-3.4088,-3.3951,-3.3951,-3.3951,-3.3951,-3.3813,-3.3605,-3.3452,-3.3382,-3.3157,-3.2947,-3.2681,-3.2373,-3.1833,-3.1309,-3.0471,-2.9818,-2.9158,-2.8704,-2.8411,-2.8053,-2.7709,-2.7443,-2.7242,-2.704,-2.6769,-3.5622,-3.547,-3.5165,-3.4994,-3.4947,-3.4739,-3.4448,-3.4201,-3.4134,-3.3949,-3.3642,-3.3435,-3.3298,-3.3171,-3.2888,-3.2687,-3.2437,-3.2398,-3.2216,-3.2007,-3.1781,-3.1781,-3.1838,-3.1754,-3.1582,-3.1336,-3.1161,-3.097,-3.0851,-3.0821,-3.0702,-3.0522,-3.0536,-3.0387,-3.0251,-3.0251,-3.0205,-3.0083,-3.0083,-3.0068,-3.0083,-3.0158,-3.0248,-3.038,-3.0444,-3.0476,-3.0536,-3.0642,-3.0999,-3.1351,-3.1582,-3.1697,-3.1697,-3.1754,-3.1796,-3.1811,-3.1811,-3.1796,-3.1868,-3.1868,-3.194,-3.1996,-3.2094,-3.2094,-3.215,-3.2191,-3.2247,-3.2247,-3.2247,-3.2191,-3.2196,-3.2322,-3.2752,-3.3317,-3.4224,-3.4939,-3.5187,-3.5783,-3.5976,-3.5782,-3.5554,-3.5294,-3.5162,-3.4831,-3.4549,-3.4346,-3.4142,-3.402,-3.3965,-3.3827,-3.3758,-3.3744,-3.3591,-3.3507,-3.3368,-3.3227,-3.2945,-3.286,-3.266,-3.2503,-3.2451,-3.2203,-3.1828,-3.1262,-3.0512,-2.9834,-2.9051,-2.8315,-2.7876,-2.753,-2.7143,-2.685,-2.6633,-2.6564,-2.6289,-3.4988,-3.4814,-3.4658,-3.4497,-3.4399,-3.4234,-3.3869,-3.3582,-3.3543,-3.3355,-3.3045,-3.281,-3.2695,-3.268,-3.2382,-3.2135,-3.1868,-3.1868,-3.1667,-3.1364,-3.1131,-3.1073,-3.1248,-3.1219,-3.1043,-3.0807,-3.0762,-3.0507,-3.0372,-3.0266,-3.0144,-3.0036,-3.005,-2.9913,-2.9761,-2.9761,-2.9651,-2.9602,-2.9651,-2.9699,-2.9699,-2.9851,-2.9941,-2.9927,-2.9988,-3.0036,-3.0097,-3.0205,-3.0493,-3.0969,-3.119,-3.1234,-3.1292,-3.1379,-3.1437,-3.1495,-3.1452,-3.1495,-3.1625,-3.164,-3.1682,-3.1826,-3.1826,-3.1868,-3.1868,-3.1826,-3.1868,-3.1883,-3.1883,-3.1868,-3.1902,-3.2428,-3.293,-3.3412,-3.4194,-3.4663,-3.4982,-3.5341,-3.5574,-3.5424,-3.5228,-3.4964,-3.475,-3.4481,-3.4278,-3.4074,-3.3868,-3.3799,-3.366,-3.3521,-3.3452,-3.3382,-3.3227,-3.2917,-3.2846,-3.2775,-3.2489,-3.2273,-3.2009,-3.1863,-3.1909,-3.1734,-3.1487,-3.1021,-3.0365,-2.9526,-2.8586,-2.7971,-2.748,-2.6942,-2.6615,-2.6302,-2.6082,-2.6013,-2.5816,-3.35,-3.3307,-3.3742,-3.3848,-3.3694,-3.3539,-3.3029,-3.2379,-3.2814,-3.2538,-3.1975,-3.2057,-3.2176,-3.2135,-3.1823,-3.1537,-3.1263,-3.1204,-3.1029,-3.0792,-3.0418,-3.0312,-3.0418,-3.0433,-3.0447,-3.0326,-3.0115,-2.9993,-2.9884,-2.9775,-2.9651,-2.9512,-2.9449,-2.9373,-2.9275,-2.9212,-2.9212,-2.9226,-2.9212,-2.9198,-2.9275,-2.9289,-2.9366,-2.9352,-2.9463,-2.9637,-2.9822,-2.9884,-3.0007,-3.0326,-3.0642,-3.0821,-3.094,-3.1058,-3.1117,-3.1132,-3.119,-3.1176,-3.1234,-3.1234,-3.1249,-3.1307,-3.1366,-3.1307,-3.1307,-3.1322,-3.1307,-3.1322,-3.1307,-3.1366,-3.1499,-3.1857,-3.2539,-3.3206,-3.3828,-3.4327,-3.4691,-3.5059,-3.5198,-3.5016,-3.475,-3.4563,-3.4414,-3.4157,-3.3951,-3.373,-3.3591,-3.3521,-3.3368,-3.3143,-3.3072,-3.3002,-3.2717,-3.2489,-3.2345,-3.22,-3.1836,-3.1616,-3.1334,-3.1048,-3.1097,-3.1084,-3.0839,-3.0507,-3.0138,-2.9263,-2.8384,-2.7578,-2.7089,-2.6549,-2.6131,-2.5816,-2.5606,-2.5465,-2.5394,-3.2143,-3.2042,-3.2523,-3.2667,-3.2641,-3.2694,-3.2284,-3.1705,-3.2035,-3.1778,-3.1122,-3.1324,-3.1509,-3.1379,-3.1087,-3.0777,-3.0613,-3.0372,-3.0266,-3.0083,-2.9775,-2.9637,-2.9574,-2.9574,-2.9574,-2.9761,-2.9574,-2.9449,-2.931,-2.9198,-2.9085,-2.9008,-2.8944,-2.8817,-2.8624,-2.8573,-2.8509,-2.8495,-2.856,-2.8624,-2.8702,-2.8844,-2.8844,-2.8908,-2.9008,-2.9184,-2.931,-2.9449,-2.954,-2.9665,-2.996,-3.0266,-3.0476,-3.0597,-3.0597,-3.0597,-3.0671,-3.0657,-3.0702,-3.0821,-3.0881,-3.0955,-3.1014,-3.1087,-3.1087,-3.1087,-3.1087,-3.1087,-3.1117,-3.1176,-3.1395,-3.1997,-3.2566,-3.299,-3.3616,-3.4103,-3.4341,-3.4631,-3.475,-3.4549,-3.4346,-3.4157,-3.402,-3.3744,-3.3591,-3.3368,-3.3129,-3.2988,-3.286,-3.2704,-3.2632,-3.2489,-3.22,-3.1982,-3.185,-3.1629,-3.111,-3.0872,-3.057,-3.0266,-3.0101,-3.019,-3.0101,-2.9859,-2.9606,-2.9114,-2.8276,-2.7521,-2.6736,-2.6154,-2.572,-2.5397,-2.5194,-2.5123,-2.5064,-3.0804,-3.0798,-3.1145,-3.1319,-3.1305,-3.1595,-3.1192,-3.0643,-3.1144,-3.081,-3.0258,-3.0543,-3.0718,-3.0539,-3.0297,-3.0054,-2.9822,-2.9588,-2.9477,-2.9338,-2.9085,-2.8894,-2.883,-2.8638,-2.8624,-2.8994,-2.8944,-2.8817,-2.8688,-2.8509,-2.8379,-2.8457,-2.8392,-2.8249,-2.7973,-2.7908,-2.7908,-2.7842,-2.7973,-2.8039,-2.817,-2.8314,-2.8392,-2.8379,-2.843,-2.861,-2.8675,-2.8817,-2.8972,-2.9035,-2.9135,-2.9463,-2.9775,-3.005,-3.005,-3.0097,-3.0172,-3.0233,-3.0341,-3.0447,-3.0568,-3.0717,-3.0836,-3.0895,-3.091,-3.085,-3.085,-3.0969,-3.0982,-3.1185,-3.1558,-3.2271,-3.2738,-3.3091,-3.3643,-3.3879,-3.3868,-3.4074,-3.4059,-3.4074,-3.3868,-3.373,-3.3521,-3.3312,-3.3086,-3.2931,-3.2704,-3.2547,-3.2331,-3.22,-3.2128,-3.1836,-3.1542,-3.1158,-3.1009,-3.0784,-3.0343,-3.0126,-2.9806,-2.9574,-2.9263,-2.9263,-2.9263,-2.9341,-2.9102,-2.8611,-2.8078,-2.7255,-2.6536,-2.5858,-2.537,-2.5087,-2.4849,-2.479,-2.48,-2.9281,-2.924,-2.9735,-2.9831,-2.9753,-2.9724,-2.9292,-2.8769,-2.9591,-2.9493,-2.8929,-2.9585,-2.9917,-2.9732,-2.956,-2.931,-2.8994,-2.8766,-2.8624,-2.8481,-2.83,-2.8118,-2.7987,-2.7789,-2.7776,-2.7855,-2.7973,-2.8091,-2.8039,-2.7855,-2.7723,-2.7669,-2.7656,-2.759,-2.759,-2.759,-2.7523,-2.7456,-2.7456,-2.7523,-2.759,-2.7656,-2.7723,-2.7723,-2.7709,-2.7908,-2.8105,-2.817,-2.83,-2.8638,-2.8716,-2.8817,-2.9058,-2.9512,-2.9775,-2.9974,-2.9988,-2.9988,-3.0036,-3.0097,-3.0172,-3.0248,-3.0294,-3.0294,-3.0294,-3.0294,-3.0355,-3.0424,-3.0725,-3.1051,-3.1117,-3.2076,-3.2734,-3.3054,-3.3303,-3.3591,-3.3452,-3.3368,-3.3368,-3.3437,-3.3382,-3.3241,-3.3016,-3.2731,-3.2574,-3.2345,-3.22,-3.1909,-3.169,-3.1616,-3.1542,-3.1185,-3.0823,-3.0419,-3.0012,-2.9793,-2.9496,-2.9353,-2.9118,-2.8882,-2.8645,-2.8407,-2.8407,-2.8554,-2.8505,-2.8234,-2.7567,-2.6949,-2.6482,-2.5965,-2.5339,-2.4788,-2.4879,-2.4931,-2.4869,-2.7765,-2.7735,-2.8223,-2.8378,-2.8327,-2.845,-2.8037,-2.758,-2.8409,-2.8401,-2.8033,-2.8588,-2.8994,-2.8803,-2.8597,-2.8338,-2.8026,-2.7908,-2.7762,-2.763,-2.7443,-2.7323,-2.7175,-2.7053,-2.6973,-2.6973,-2.704,-2.7229,-2.743,-2.7108,-2.6973,-2.6905,-2.6905,-2.6905,-2.685,-2.6769,-2.685,-2.6837,-2.6837,-2.685,-2.6905,-2.6905,-2.6905,-2.6973,-2.7053,-2.7255,-2.7443,-2.7577,-2.7709,-2.7921,-2.7987,-2.817,-2.8417,-2.8675,-2.9058,-2.9463,-2.9602,-2.9602,-2.9665,-2.9727,-2.9865,-2.9865,-2.9988,-3.0111,-3.0111,-3.0111,-3.005,-3.0131,-3.0466,-3.0928,-3.1087,-3.1946,-3.2495,-3.2751,-3.2905,-3.2889,-3.2789,-3.2646,-3.2646,-3.266,-3.2646,-3.2588,-3.2372,-3.2155,-3.1996,-3.1776,-3.1629,-3.1334,-3.1035,-3.0885,-3.081,-3.0419,-3.005,-2.9741,-2.9328,-2.9015,-2.8779,-2.8645,-2.8419,-2.8179,-2.8018,-2.7857,-2.7765,-2.7834,-2.7763,-2.7705,-2.7517,-2.6971,-2.6485,-2.6012,-2.5564,-2.5188,-2.5165,-2.5125,-2.5073,-2.6443,-2.6447,-2.6745,-2.6861,-2.6876,-2.7001,-2.6803,-2.6578,-2.7143,-2.7115,-2.6748,-2.7511,-2.7893,-2.7749,-2.751,-2.731,-2.704,-2.696,-2.6892,-2.6701,-2.6564,-2.6508,-2.6358,-2.6289,-2.622,-2.6139,-2.6082,-2.6208,-2.6633,-2.6427,-2.6277,-2.6208,-2.6208,-2.6139,-2.6082,-2.6082,-2.6025,-2.6013,-2.6013,-2.6082,-2.6151,-2.6208,-2.6208,-2.6208,-2.6358,-2.6577,-2.6769,-2.6905,-2.704,-2.7255,-2.7323,-2.7443,-2.7709,-2.7842,-2.8105,-2.8702,-2.8908,-2.9035,-2.9085,-2.9289,-2.9415,-2.9477,-2.9741,-2.9865,-2.9865,-2.9817,-2.9845,-2.9953,-3.0347,-3.0862,-3.1263,-3.182,-3.2249,-3.2439,-3.2376,-3.22,-3.22,-3.1996,-3.1776,-3.1776,-3.1909,-3.185,-3.1629,-3.1482,-3.1259,-3.1097,-3.0947,-3.0558,-3.0266,-3.0126,-2.9973,-2.9496,-2.9184,-2.8973,-2.8645,-2.8315,-2.8155,-2.7995,-2.7777,-2.7626,-2.7464,-2.7301,-2.7196,-2.7103,-2.7185,-2.7116,-2.7082,-2.6921,-2.6393,-2.5892,-2.5732,-2.5527,-2.521,-2.5199,-2.5202,-2.5563,-2.5522,-2.5341,-2.5269,-2.5254,-2.5051,-2.4895,-2.4865,-2.5269,-2.5577,-2.5733,-2.6246,-2.6552,-2.6616,-2.6445,-2.6333,-2.6289,-2.6126,-2.5931,-2.5804,-2.5676,-2.5606,-2.5523,-2.5441,-2.5453,-2.5441,-2.5229,-2.5523,-2.5816,-2.5746,-2.5606,-2.5523,-2.5523,-2.5453,-2.5465,-2.5465,-2.5394,-2.5453,-2.5382,-2.5382,-2.5453,-2.5441,-2.5453,-2.5523,-2.5676,-2.5816,-2.6025,-2.622,-2.6358,-2.6483,-2.6552,-2.6756,-2.704,-2.7108,-2.731,-2.7789,-2.8249,-2.8716,-2.8739,-2.8867,-2.8958,-2.9085,-2.9226,-2.9226,-2.9303,-2.94,-2.9517,-2.9951,-3.0358,-3.076,-3.1281,-3.1768,-3.2064,-3.2015,-3.185,-3.1703,-3.1629,-3.1233,-3.0947,-3.081,-3.0872,-3.0947,-3.0885,-3.0659,-3.0508,-3.0355,-3.019,-2.9871,-2.9561,-2.9353,-2.9118,-2.8712,-2.8395,-2.8179,-2.8018,-2.7696,-2.7522,-2.7348,-2.7196,-2.7056,-2.6891,-2.6798,-2.6539,-2.6539,-2.6539,-2.6539,-2.6449,-2.6248,-2.5945,-2.5858,-2.5734,-2.5374,-2.5038,-2.5139,-2.5374,-2.4124,-2.4624,-2.4337,-2.4234,-2.4163,-2.3872,-2.3682,-2.3739,-2.3984,-2.4179,-2.4356,-2.4676,-2.4969,-2.5139,-2.4993,-2.5035,-2.5169,-2.5134,-2.5016,-2.4826,-2.4838,-2.4766,-2.4671,-2.4696,-2.4684,-2.4683,-2.4611,-2.4539,-2.4838,-2.5052,-2.5052,-2.5064,-2.4981,-2.5052,-2.4981,-2.4992,-2.4909,-2.4838,-2.4754,-2.4683,-2.4683,-2.4754,-2.4838,-2.4838,-2.5064,-2.5194,-2.5382,-2.5441,-2.5581,-2.5721,-2.5873,-2.6094,-2.6302,-2.6508,-2.6633,-2.6905,-2.7175,-2.7564,-2.8091,-2.8274,-2.8417,-2.8624,-2.8766,-2.8844,-2.8899,-2.908,-2.9247,-2.9494,-3.0186,-3.0653,-3.0931,-3.1209,-3.1375,-3.1408,-3.111,-3.1035,-3.0797,-3.0482,-3.0177,-3.0037,-2.9896,-2.9973,-2.996,-2.9896,-2.9741,-2.9729,-2.9496,-2.9184,-2.8779,-2.8395,-2.8247,-2.7926,-2.7684,-2.7371,-2.7301,-2.7138,-2.7044,-2.6869,-2.6693,-2.6456,-2.6373,-2.6207,-2.5957,-2.579,-2.5706,-2.5695,-2.5695,-2.5764,-2.5733,-2.5738,-2.5661,-2.5451,-2.5264,-2.5462,-2.5579,-2.2652,-2.3267,-2.3267,-2.322,-2.3207,-2.2847,-2.2713,-2.2775,-2.2823,-2.2926,-2.2975,-2.3287,-2.3494,-2.349,-2.3526,-2.3676,-2.4008,-2.3959,-2.3929,-2.3913,-2.3897,-2.3897,-2.3875,-2.3902,-2.3902,-2.3897,-2.3886,-2.3813,-2.3886,-2.4032,-2.4334,-2.4502,-2.4406,-2.449,-2.449,-2.449,-2.4334,-2.4261,-2.4116,-2.4116,-2.4116,-2.4189,-2.4273,-2.4345,-2.4418,-2.4634,-2.4743,-2.4814,-2.4886,-2.5111,-2.5253,-2.5407,-2.5676,-2.5804,-2.5943,-2.607,-2.6208,-2.6552,-2.7095,-2.751,-2.7829,-2.8039,-2.821,-2.8329,-2.8571,-2.8906,-2.9389,-2.9533,-2.9852,-3.0263,-3.0446,-3.0615,-3.0568,-3.057,-3.0355,-3.0203,-3.005,-2.9729,-2.9484,-2.9263,-2.9118,-2.8961,-2.904,-2.8961,-2.8961,-2.9028,-2.8791,-2.8486,-2.8087,-2.7672,-2.7429,-2.7196,-2.7033,-2.6715,-2.6644,-2.6479,-2.6396,-2.6302,-2.6124,-2.5946,-2.579,-2.5622,-2.5369,-2.5115,-2.4871,-2.4775,-2.485,-2.52,-2.5538,-2.5408,-2.5333,-2.5525,-2.5535,-2.5644,-2.5633,-2.1198,-2.121,-2.1865,-2.2163,-2.2175,-2.1865,-2.1678,-2.1667,-2.1434,-2.1585,-2.1835,-2.2139,-2.2196,-2.2205,-2.2134,-2.2277,-2.2744,-2.2529,-2.2732,-2.2922,-2.3075,-2.3075,-2.3075,-2.3065,-2.3065,-2.3075,-2.3086,-2.3086,-2.3075,-2.3075,-2.3383,-2.3604,-2.3751,-2.3677,-2.3751,-2.3751,-2.3751,-2.3677,-2.3593,-2.3593,-2.3593,-2.3666,-2.3677,-2.3677,-2.3824,-2.397,-2.397,-2.4105,-2.4334,-2.449,-2.4562,-2.4766,-2.4957,-2.5087,-2.5241,-2.5382,-2.5453,-2.5721,-2.6151,-2.6782,-2.7201,-2.7456,-2.7681,-2.7917,-2.8281,-2.836,-2.8882,-2.9621,-2.9766,-2.9854,-3.0011,-3.0101,-2.9871,-2.9716,-2.9574,-2.9419,-2.9275,-2.904,-2.8803,-2.8578,-2.8419,-2.8327,-2.8179,-2.8179,-2.8327,-2.8395,-2.8167,-2.7846,-2.7429,-2.7021,-2.6704,-2.6456,-2.6362,-2.6124,-2.5979,-2.5812,-2.5622,-2.5538,-2.5359,-2.52,-2.5031,-2.4861,-2.469,-2.4444,-2.4272,-2.41,-2.4013,-2.4262,-2.4509,-2.4861,-2.4946,-2.4956,-2.5041,-2.4956,-2.4946,-1.9955,-1.989,-2.0052,-2.0515,-2.1135,-2.0794,-2.0677,-2.0602,-2.0302,-2.0183,-2.0314,-2.0376,-2.0557,-2.0636,-2.0732,-2.0828,-2.1275,-2.1615,-2.1744,-2.1956,-2.2072,-2.2231,-2.2252,-2.2252,-2.2252,-2.2262,-2.2283,-2.2273,-2.2252,-2.2252,-2.2338,-2.2553,-2.2927,-2.3224,-2.3224,-2.3075,-2.3075,-2.3001,-2.2927,-2.2852,-2.2852,-2.3001,-2.3086,-2.3075,-2.3224,-2.3298,-2.3372,-2.3372,-2.3593,-2.3751,-2.3897,-2.4105,-2.4311,-2.4383,-2.4611,-2.4754,-2.4754,-2.4981,-2.536,-2.6017,-2.6578,-2.717,-2.7385,-2.7519,-2.8066,-2.8397,-2.874,-2.9174,-2.9378,-2.9515,-2.9422,-2.9341,-2.9094,-2.8949,-2.8791,-2.8645,-2.8486,-2.8339,-2.8167,-2.7938,-2.7777,-2.7696,-2.7534,-2.7301,-2.7534,-2.7672,-2.7441,-2.7126,-2.6704,-2.6373,-2.6041,-2.579,-2.5611,-2.5443,-2.5295,-2.5115,-2.4935,-2.485,-2.469,-2.4519,-2.4348,-2.41,-2.3927,-2.3754,-2.359,-2.3406,-2.3309,-2.3222,-2.3474,-2.4003,-2.4176,-2.4262,-2.4262,-2.4348,-2.4262,-1.8767,-1.87,-1.8499,-1.9034,-1.9966,-1.9759,-1.9639,-1.9573,-1.933,-1.9065,-1.8834,-1.8854,-1.8941,-1.9069,-1.915,-1.9453,-1.99,-2.0307,-2.0665,-2.0961,-2.1267,-2.1385,-2.1415,-2.1415,-2.1415,-2.1425,-2.1446,-2.1446,-2.1405,-2.1415,-2.1492,-2.1634,-2.2014,-2.2241,-2.2553,-2.2478,-2.2402,-2.2402,-2.2327,-2.2262,-2.2262,-2.2338,-2.2413,-2.2478,-2.2553,-2.2628,-2.2628,-2.2703,-2.2852,-2.3075,-2.3224,-2.3446,-2.3593,-2.3751,-2.397,-2.4043,-2.4212,-2.438,-2.487,-2.56,-2.6247,-2.6952,-2.7051,-2.7347,-2.7817,-2.8337,-2.8498,-2.882,-2.8999,-2.8949,-2.8816,-2.8645,-2.8395,-2.8235,-2.8155,-2.8007,-2.7857,-2.7626,-2.7452,-2.729,-2.7126,-2.6951,-2.6787,-2.6633,-2.6704,-2.6857,-2.6715,-2.6385,-2.603,-2.5695,-2.5454,-2.5115,-2.4861,-2.4775,-2.4594,-2.4348,-2.4176,-2.4176,-2.4003,-2.3831,-2.3667,-2.3406,-2.3232,-2.3057,-2.2969,-2.2706,-2.2706,-2.2784,-2.3047,-2.3396,-2.3484,-2.3657,-2.3754,-2.3754,-2.358,-1.7569,-1.7442,-1.7442,-1.7901,-1.869,-1.8643,-1.8566,-1.8499,-1.8317,-1.8046,-1.7765,-1.7765,-1.7638,-1.7646,-1.7821,-1.8103,-1.8521,-1.9102,-1.9556,-1.9938,-2.0301,-2.0556,-2.0644,-2.0644,-2.0566,-2.0644,-2.0566,-2.0644,-2.0634,-2.0634,-2.0634,-2.0634,-2.0779,-2.1098,-2.1721,-2.1818,-2.1818,-2.1807,-2.1731,-2.1783,-2.1721,-2.1721,-2.1807,-2.1807,-2.1797,-2.1797,-2.1873,-2.1939,-2.209,-2.2327,-2.2553,-2.2703,-2.2927,-2.3001,-2.315,-2.3298,-2.3416,-2.3798,-2.4578,-2.553,-2.6208,-2.6704,-2.6788,-2.7052,-2.7548,-2.7801,-2.7945,-2.8246,-2.8291,-2.8259,-2.8111,-2.803,-2.7777,-2.7603,-2.7522,-2.736,-2.7126,-2.6974,-2.6809,-2.6622,-2.6362,-2.6196,-2.603,-2.5946,-2.5863,-2.5946,-2.5968,-2.5717,-2.5285,-2.5031,-2.4775,-2.4444,-2.4186,-2.4013,-2.3831,-2.3667,-2.3503,-2.3503,-2.3319,-2.3144,-2.2969,-2.2715,-2.2539,-2.2451,-2.2264,-2.2078,-2.2255,-2.2344,-2.252,-2.2608,-2.2969,-2.3144,-2.3232,-2.3232,-2.3057,-1.6245,-1.6097,-1.5974,-1.6105,-1.6515,-1.7285,-1.756,-1.7413,-1.7139,-1.6862,-1.6802,-1.6793,-1.6733,-1.6733,-1.6742,-1.6963,-1.7278,-1.7729,-1.821,-1.877,-1.9202,-1.9531,-1.9681,-1.9756,-1.9696,-1.9696,-1.9775,-1.9775,-1.9775,-1.9696,-1.9696,-1.9696,-1.9766,-2.0079,-2.0644,-2.0899,-2.0948,-2.0654,-2.083,-2.1017,-2.0829,-2.0867,-2.1031,-2.1031,-2.1031,-2.1031,-2.1031,-2.1098,-2.1252,-2.1568,-2.1721,-2.1873,-2.2187,-2.2187,-2.2348,-2.2735,-2.294,-2.3709,-2.4557,-2.5397,-2.5745,-2.6196,-2.6589,-2.6799,-2.7242,-2.7335,-2.7463,-2.7533,-2.7603,-2.7441,-2.7371,-2.7301,-2.7138,-2.688,-2.6787,-2.661,-2.6445,-2.6302,-2.6146,-2.5957,-2.5779,-2.5527,-2.5359,-2.5105,-2.5105,-2.4935,-2.4946,-2.4871,-2.4615,-2.4348,-2.41,-2.3754,-2.3503,-2.3329,-2.3154,-2.2891,-2.2715,-2.2618,-2.2539,-2.2362,-2.2185,-2.2008,-2.1919,-2.1741,-2.1642,-2.1454,-2.1544,-2.1633,-2.1642,-2.182,-2.2167,-2.253,-2.2618,-2.2706,-2.2618,-1.5037,-1.5037,-1.484,-1.4848,-1.4982,-1.6035,-1.6464,-1.6237,-1.6035,-1.5886,-1.5807,-1.5816,-1.5745,-1.5745,-1.5816,-1.5886,-1.6079,-1.666,-1.6971,-1.7519,-1.8096,-1.8419,-1.8653,-1.8771,-1.8825,-1.8834,-1.8825,-1.8825,-1.8834,-1.8834,-1.8825,-1.8825,-1.8816,-1.8975,-1.9366,-1.9715,-1.9982,-1.9743,-1.9916,-2.0052,-1.9882,-1.9991,-2.0167,-2.0167,-2.0167,-2.0177,-2.0167,-2.0245,-2.0401,-2.0644,-2.0886,-2.1051,-2.1292,-2.1558,-2.1763,-2.2159,-2.2982,-2.3689,-2.4367,-2.4823,-2.5142,-2.5524,-2.5965,-2.6377,-2.6719,-2.6648,-2.6659,-2.6787,-2.6787,-2.6704,-2.655,-2.6561,-2.6467,-2.6218,-2.6041,-2.5852,-2.5684,-2.5549,-2.5369,-2.5189,-2.502,-2.4775,-2.4519,-2.4348,-2.4262,-2.4003,-2.3841,-2.3851,-2.3764,-2.358,-2.3319,-2.3057,-2.2803,-2.2618,-2.2441,-2.2176,-2.2008,-2.1919,-2.1741,-2.1562,-2.1383,-2.1195,-2.1114,-2.1024,-2.0925,-2.0817,-2.0817,-2.0826,-2.0916,-2.1015,-2.1275,-2.1642,-2.1998,-2.1998,-2.1989,-1.3985,-1.4057,-1.3985,-1.3985,-1.4122,-1.4689,-1.5054,-1.5125,-1.5125,-1.5046,-1.4832,-1.4832,-1.476,-1.4697,-1.476,-1.4903,-1.5007,-1.5688,-1.5993,-1.6328,-1.6903,-1.726,-1.762,-1.778,-1.7917,-1.7959,-1.7959,-1.7951,-1.7951,-1.7951,-1.7951,-1.7951,-1.7951,-1.7942,-1.8129,-1.8379,-1.8692,-1.8665,-1.895,-1.903,-1.8904,-1.9125,-1.9213,-1.9222,-1.9213,-1.9301,-1.9292,-1.9371,-1.9608,-1.9854,-2.001,-2.0274,-2.0644,-2.0917,-2.1382,-2.205,-2.3074,-2.3515,-2.3876,-2.4196,-2.4289,-2.4608,-2.5189,-2.5622,-2.5884,-2.5801,-2.5874,-2.5874,-2.5874,-2.5801,-2.5812,-2.5801,-2.5706,-2.5454,-2.5285,-2.5105,-2.485,-2.468,-2.4498,-2.4337,-2.4262,-2.4013,-2.3657,-2.3484,-2.3396,-2.3047,-2.2784,-2.2687,-2.2696,-2.2803,-2.253,-2.2264,-2.2097,-2.1909,-2.1731,-2.1463,-2.1284,-2.1105,-2.0835,-2.0654,-2.0564,-2.0382,-2.0201,-2.011,-2.0192,-2.0192,-2.0002,-2.0102,-2.0201,-2.0292,-2.0374,-2.0744,-2.1105,-2.1186,-2.1177,-1.2365,-1.2365,-1.2365,-1.2372,-1.2445,-1.2659,-1.3244,-1.4122,-1.4057,-1.392,-1.392,-1.392,-1.384,-1.3855,-1.3848,-1.3985,-1.416,-1.4382,-1.4788,-1.5229,-1.5739,-1.6154,-1.6555,-1.6831,-1.7009,-1.7057,-1.7057,-1.7057,-1.7057,-1.7057,-1.7057,-1.7066,-1.7057,-1.6968,-1.6968,-1.7041,-1.7269,-1.7635,-1.7958,-1.807,-1.8049,-1.8256,-1.8345,-1.8345,-1.8345,-1.8353,-1.8425,-1.8416,-1.8656,-1.8975,-1.9054,-1.9384,-2.0093,-2.0304,-2.0545,-2.1755,-2.2516,-2.2958,-2.3246,-2.3404,-2.3474,-2.3464,-2.382,-2.4337,-2.4594,-2.485,-2.4861,-2.4946,-2.4861,-2.4861,-2.485,-2.485,-2.485,-2.468,-2.4423,-2.4166,-2.3993,-2.3734,-2.356,-2.3474,-2.3406,-2.3135,-2.2784,-2.2696,-2.2511,-2.2078,-2.1811,-2.1624,-2.1624,-2.1731,-2.1741,-2.1472,-2.1284,-2.1096,-2.1006,-2.0744,-2.0564,-2.0292,-2.011,-1.9828,-1.9737,-1.9554,-1.9279,-1.9279,-1.9371,-1.9279,-1.9188,-1.9279,-1.9379,-1.9288,-1.9379,-1.9837,-2.0201,-2.0374,-2.0456,-1.1347,-1.1186,-1.118,-1.118,-1.126,-1.126,-1.1774,-1.2439,-1.2666,-1.2826,-1.282,-1.2746,-1.282,-1.29,-1.2893,-1.2966,-1.3185,-1.3346,-1.366,-1.4044,-1.4554,-1.5019,-1.5449,-1.5875,-1.6075,-1.6167,-1.6229,-1.6229,-1.6147,-1.6147,-1.6229,-1.6229,-1.6147,-1.6139,-1.6057,-1.6064,-1.6064,-1.6448,-1.6849,-1.7105,-1.7204,-1.7294,-1.7465,-1.7465,-1.7473,-1.7465,-1.7465,-1.7465,-1.77,-1.8103,-1.8193,-1.8536,-1.9368,-1.9775,-2.0377,-2.141,-2.1907,-2.2282,-2.2444,-2.2492,-2.252,-2.252,-2.253,-2.2862,-2.3299,-2.3637,-2.381,-2.3897,-2.3907,-2.3907,-2.3897,-2.3983,-2.3983,-2.3897,-2.3647,-2.3309,-2.3047,-2.2784,-2.2696,-2.2608,-2.2432,-2.2255,-2.2078,-2.1891,-2.1713,-2.1186,-2.0826,-2.0645,-2.0727,-2.0826,-2.0835,-2.0744,-2.0564,-2.0374,-2.0192,-2.0011,-1.9828,-1.9554,-1.9279,-1.9088,-1.8912,-1.8727,-1.8635,-1.8542,-1.8542,-1.8542,-1.845,-1.855,-1.8643,-1.8458,-1.8458,-1.8827,-1.9279,-1.9646,-1.9737,-1.0692,-1.0363,-1.0201,-1.0207,-1.0363,-1.0315,-1.0408,-1.0472,-1.1196,-1.1527,-1.1571,-1.1639,-1.1706,-1.1855,-1.1935,-1.2003,-1.2224,-1.2378,-1.2526,-1.2854,-1.3339,-1.3894,-1.4352,-1.47,-1.5049,-1.5231,-1.5311,-1.5311,-1.5311,-1.5311,-1.5318,-1.5311,-1.5311,-1.5311,-1.5228,-1.5159,-1.5151,-1.5257,-1.5763,-1.6087,-1.6319,-1.6468,-1.6566,-1.6574,-1.6574,-1.664,-1.6648,-1.6738,-1.682,-1.7147,-1.7491,-1.7813,-1.8676,-1.9609,-2.0395,-2.0784,-2.1257,-2.148,-2.1526,-2.1553,-2.1553,-2.1553,-2.1642,-2.1633,-2.198,-2.2599,-2.295,-2.295,-2.295,-2.296,-2.295,-2.295,-2.295,-2.2862,-2.2599,-2.2344,-2.2167,-2.19,-2.1633,-2.1544,-2.1544,-2.1365,-2.1087,-2.0898,-2.0727,-2.0283,-1.9928,-1.9737,-1.9646,-1.9828,-1.9928,-1.9837,-1.9737,-1.9554,-1.9371,-1.9188,-1.9004,-1.8819,-1.8535,-1.8357,-1.8179,-1.8079,-1.7986,-1.7893,-1.7707,-1.78,-1.7893,-1.79,-1.78,-1.78,-1.7807,-1.79,-1.8265,-1.8635,-1.9004,-0.9402,-0.9155,-0.9074,-0.9074,-0.918,-0.9266,-0.9335,-0.935,-0.9662,-1.0234,-1.0715,-1.0749,-1.0824,-1.0848,-1.0998,-1.1135,-1.1186,-1.1335,-1.1558,-1.187,-1.2296,-1.2815,-1.3265,-1.3722,-1.4097,-1.4302,-1.4391,-1.4384,-1.4391,-1.4398,-1.4405,-1.4391,-1.4391,-1.4391,-1.4391,-1.4314,-1.4314,-1.4314,-1.4559,-1.4963,-1.5289,-1.556,-1.5741,-1.568,-1.5688,-1.5816,-1.5899,-1.5982,-1.6229,-1.6582,-1.6849,-1.7523,-1.8378,-1.9264,-1.9777,-1.9977,-2.0365,-2.0555,-2.0645,-2.0654,-2.0654,-2.0654,-2.0654,-2.0654,-2.0925,-2.1633,-2.1998,-2.1998,-2.1998,-2.1998,-2.2087,-2.1998,-2.1998,-2.182,-2.1633,-2.1454,-2.1365,-2.1006,-2.0645,-2.0654,-2.0654,-2.0374,-2.0093,-1.982,-1.9646,-1.9371,-1.9004,-1.8819,-1.8727,-1.8819,-1.8819,-1.8819,-1.8912,-1.8727,-1.8635,-1.845,-1.8272,-1.7986,-1.78,-1.7621,-1.7441,-1.734,-1.7333,-1.7052,-1.6958,-1.7145,-1.7246,-1.6965,-1.6965,-1.7145,-1.7239,-1.734,-1.7246,-1.752,-1.8079,-0.8331,-0.8183,-0.819,-0.8225,-0.826,-0.8427,-0.8515,-0.8528,-0.862,-0.8868,-0.9385,-0.9745,-0.9937,-0.994,-1.0067,-1.0225,-1.0262,-1.0363,-1.0663,-1.0964,-1.133,-1.1805,-1.2313,-1.2757,-1.3112,-1.34,-1.3451,-1.3464,-1.3464,-1.347,-1.347,-1.3464,-1.3464,-1.347,-1.3464,-1.3464,-1.3464,-1.347,-1.3464,-1.3704,-1.4196,-1.4461,-1.4755,-1.4783,-1.4936,-1.4992,-1.5151,-1.5249,-1.5587,-1.6062,-1.6507,-1.6999,-1.7709,-1.8391,-1.8864,-1.9096,-1.9279,-1.9646,-1.9646,-1.9646,-1.9646,-1.9646,-1.9654,-1.9654,-1.9654,-2.0275,-2.0645,-2.0736,-2.1015,-2.1105,-2.1105,-2.1105,-2.1105,-2.0925,-2.0736,-2.0555,-2.0192,-1.992,-1.9646,-1.9654,-1.9554,-1.9463,-1.918,-1.8996,-1.8727,-1.845,-1.8179,-1.7893,-1.78,-1.78,-1.79,-1.79,-1.7986,-1.7893,-1.7714,-1.7621,-1.7527,-1.7246,-1.7153,-1.7059,-1.6965,-1.6777,-1.6588,-1.6581,-1.6581,-1.6683,-1.6683,-1.6494,-1.6588,-1.6777,-1.6777,-1.6683,-1.6683,-1.6683,-1.7145,-0.7249,-0.7277,-0.7438,-0.7513,-0.7545,-0.7718,-0.7797,-0.78,-0.7824,-0.784,-0.7994,-0.8652,-0.8941,-0.9115,-0.9211,-0.932,-0.9483,-0.9596,-0.9842,-1.0028,-1.0323,-1.0897,-1.1277,-1.164,-1.2116,-1.236,-1.2516,-1.2528,-1.2528,-1.2528,-1.2528,-1.2528,-1.2528,-1.2534,-1.2534,-1.2534,-1.2528,-1.2528,-1.2522,-1.251,-1.293,-1.336,-1.375,-1.4024,-1.4095,-1.423,-1.4314,-1.4572,-1.4873,-1.5446,-1.6042,-1.6461,-1.6861,-1.7472,-1.774,-1.7986,-1.8357,-1.8535,-1.8635,-1.8643,-1.8643,-1.8643,-1.8643,-1.8643,-1.8735,-1.892,-1.9371,-1.9554,-1.9837,-2.011,-2.011,-2.011,-2.011,-2.0019,-1.9828,-1.9554,-1.9196,-1.8827,-1.8735,-1.8643,-1.8643,-1.8542,-1.8357,-1.8087,-1.79,-1.7621,-1.734,-1.7153,-1.7059,-1.7153,-1.7153,-1.7153,-1.7153,-1.7066,-1.6972,-1.6972,-1.6965,-1.6784,-1.6683,-1.6588,-1.6494,-1.64,-1.6305,-1.6393,-1.6393,-1.64,-1.64,-1.6298,-1.64,-1.6515,-1.64,-1.6305,-1.6305,-1.6298,-1.6494,-0.6009,-0.586,-0.6251,-0.6478,-0.668,-0.7003,-0.7123,-0.7147,-0.717,-0.7225,-0.7288,-0.7368,-0.768,-0.8122,-0.8376,-0.8559,-0.8733,-0.8894,-0.9105,-0.9394,-0.9546,-1.0034,-1.0445,-1.0815,-1.1122,-1.1412,-1.1585,-1.1585,-1.1607,-1.1596,-1.1591,-1.1607,-1.1613,-1.1613,-1.1607,-1.1624,-1.1662,-1.1679,-1.1662,-1.1657,-1.1877,-1.2307,-1.282,-1.3083,-1.3168,-1.3404,-1.3613,-1.3965,-1.4336,-1.4757,-1.5244,-1.5629,-1.6019,-1.6511,-1.6749,-1.6958,-1.7326,-1.7512,-1.7613,-1.7613,-1.7613,-1.7807,-1.79,-1.7994,-1.7994,-1.8001,-1.8272,-1.8272,-1.855,-1.9004,-1.9004,-1.9096,-1.9104,-1.9004,-1.8819,-1.8635,-1.8365,-1.8087,-1.79,-1.7807,-1.7807,-1.7621,-1.7441,-1.7246,-1.7052,-1.6871,-1.6777,-1.6588,-1.6494,-1.6494,-1.6494,-1.6501,-1.6407,-1.6595,-1.669,-1.6588,-1.6494,-1.64,-1.6218,-1.6116,-1.6021,-1.5927,-1.5927,-1.5927,-1.5927,-1.5933,-1.5927,-1.6075,-1.6062,-1.6082,-1.594,-1.592,-1.6015,-1.6015,-1.6211]}]]